[[{"header":{"parameterUnit":"m.s-1","parameterCategory":1,"la1":31.0,"la2":29.5877,"lo1":-88.7671,"lo2":-86.6584,"dy":0.0162,"dx":0.0185,"nx":115,"ny":88,"refTime":"2023-07-17T06:00:00:Z","depth":0,"parameterNumber":2,"parameterNumberName":"U-component_of_WINDS"},"data":[0.0,0.0,0.0,0.0,0.0,0.0,0.0,0.0,0.0,0.0,0.0,0.0,0.0,0.0,0.0,0.0,0.0,0.0,0.0,0.0,0.0,0.0,0.0,0.0,0.0,0.0,0.0,0.0,0.0,0.0,0.0,0.0,0.0,0.0,0.0,0.0,0.0,0.0,0.0,0.0,0.0,0.0,0.0,0.0,0.0,0.0,0.0,0.0,0.0,0.0,0.0,0.0,0.0,0.0,0.0,0.0,0.0,0.0,0.0,0.0,0.0,0.0,0.0,0.0,0.0,0.0,0.0,0.0,0.0,0.0,0.0,0.0,0.0,0.0,0.0,0.0,0.0,0.0,0.0,0.0,0.0,0.0,0.0,0.0,0.0,0.0,0.0,0.0,0.0,0.0,0.0,0.0,0.0,0.0,0.0,0.0,0.0,0.0,0.0,0.0,0.0,0.0,0.0,0.0,0.0,0.0,0.0,0.0,0.0,0.0,0.0,0.0,0.0,0.0,0.0,0.0,0.0,0.0,0.0,0.0,0.0,0.0,0.0,0.0,0.0,0.0,0.0,0.0,0.0,0.0,0.0,0.0,0.0,0.0,0.0,0.0,0.0,0.0,0.0,0.0,0.0,0.0,0.0,0.0,0.0,0.0,0.0,0.0,0.0,0.0,0.0,0.0,0.0,0.0,0.0,0.0,0.0,0.0,0.0,0.0,0.0,0.0,0.0,0.0,0.0,0.0,0.0,0.0,0.0,0.0,0.0,0.0,0.0,0.0,0.0,0.0,0.0,0.0,0.0,0.0,0.0,0.0,0.0,0.0,0.0,0.0,0.0,0.0,0.0,0.0,0.0,0.0,0.0,0.0,0.0,0.0,0.0,0.0,0.0,0.0,0.0,0.0,0.0,0.0,0.0,0.0,0.0,0.0,0.0,0.0,0.0,0.0,0.0,0.0,0.0,0.0,0.0,0.0,0.0,0.0,0.0,0.0,0.0,0.0,0.0,0.0,0.0,0.0,0.0,0.0,0.0,0.0,0.0,0.0,0.0,0.0,0.0,0.0,0.0,0.0,0.0,0.0,0.0,0.0,0.0,0.0,0.0,0.0,0.0,0.0,0.0,0.0,0.0,0.0,0.0,0.0,0.0,0.0,0.0,0.0,0.0,0.0,0.0,0.0,0.0,0.0,0.0,0.0,0.0,0.0,0.0,0.0,0.0,0.0,0.0,0.0,0.0,0.0,0.0,0.0,0.0,0.0,0.0,0.0,0.0,0.0,0.0,0.0,0.0,0.0,0.0,0.0,0.0,0.0,0.0,0.0,0.0,0.0,0.0,0.0,0.0,0.0,0.0,0.0,0.0,0.0,0.0,0.0,0.0,0.0,0.0,0.0,0.0,0.0,0.0,0.0,0.0,0.0,0.0,0.0,0.0,0.0,0.0,0.0,0.0,0.0,0.0,0.0,0.0,0.0,0.0,0.0,0.0,0.0,0.0,0.0,0.0,0.0,0.0,0.0,0.0,0.0,0.0,0.0,0.0,0.0,0.0,0.0,0.0,0.0,0.0,0.0,0.0,0.0,0.0,0.0,0.0,0.0,0.0,0.0,0.0,0.0,0.0,0.0,0.0,0.0,0.0,0.0,0.0,0.0,0.0,0.0,0.0,0.0,0.0,0.0,0.0,0.0,0.0,0.0,0.0,0.0,0.0,0.0,0.0,0.0,0.0,0.0,0.0,0.0,0.0,0.0,0.0,0.0,0.0,0.0,0.0,0.0,0.0,0.0,0.0,0.0,0.0,0.0,0.0,0.0,0.0,0.0,0.0,0.0,0.0,0.0,0.0,0.0,0.0,0.0,0.0,0.0,0.0,0.0,0.0,0.0,0.0,0.0,0.0,0.0,0.0,0.0,0.0,0.0,0.0,0.0,0.0,0.0,0.0,0.0,0.0,0.0,0.0,0.0,0.0,0.0,0.0,0.0,0.0,0.0,0.0,0.0,0.0,0.0,0.0,0.0,0.0,0.0,0.0,0.0,0.0,0.0,0.0,0.0,0.0,0.0,0.0,0.0,0.0,0.0,0.0,0.0,0.0,0.0,0.0,0.0,0.0,0.0,0.0,0.0,0.0,0.0,0.0,0.0,0.0,0.0,0.0,0.0,0.0,0.0,0.0,0.0,0.0,0.0,0.0,0.0,0.0,0.0,0.0,0.0,0.0,0.0,0.0,0.0,0.0,0.0,0.0,0.0,0.0,0.0,0.0,0.0,0.0,0.0,0.0,0.0,0.0,0.0,0.0,0.0,0.0,0.0,0.0,0.0,0.0,0.0,0.0,0.0,0.0,0.0,0.0,0.0,0.0,0.0,0.0,0.0,0.0,0.0,0.0,0.0,0.0,0.0,0.0,0.0,0.0,0.0,0.0,0.0,0.0,0.0,0.0,0.0,0.0,0.0,0.0,0.0,0.0,0.0,0.0,0.0,0.0,0.0,0.0,0.0,0.0,0.0,0.0,0.0,0.0,0.0,0.0,0.0,0.0,0.0,0.0,0.0,0.0,0.0,0.0,0.0,0.0,0.0,0.0,0.0,0.0,0.0,0.0,0.0,0.0,0.0,0.0,0.0,0.0,0.0,0.0,0.0,0.0,0.0,0.0,0.0,0.0,0.0,0.0,0.0,0.0,0.0,0.0,0.0,0.0,0.0,0.0,0.0,0.0,0.0,0.0,0.0,0.0,0.0,0.0,0.0,0.0,0.0,0.0,0.0,0.0,0.0,0.0,0.0,0.0,0.0,0.0,0.0,0.0,0.0,0.0,0.0,0.0,0.0,0.0,0.0,0.0,0.0,0.0,0.0,0.0,0.0,0.0,0.0,0.0,0.0,0.0,0.0,0.0,0.0,0.0,0.0,0.0,0.0,0.0,0.0,0.0,0.0,0.0,0.0,0.0,0.0,0.0,0.0,0.0,0.0,0.0,0.0,0.0,0.0,0.0,0.0,0.0,0.0,0.0,0.0,0.0,0.0,0.0,0.0,0.0,0.0,0.0,0.0,0.0,0.0,0.0,0.0,0.0,0.0,0.0,0.0,0.0,0.0,0.0,0.0,0.0,0.0,0.0,0.0,0.0,0.0,0.0,0.0,0.0,0.0,0.0,0.0,0.0,0.0,0.0,0.0,0.0,0.0,0.0,0.0,0.0,0.0,0.0,0.0,0.0,0.0,0.0,0.0,0.0,0.0,0.0,0.0,0.0,0.0,0.0,0.0,0.0,0.0,0.0,0.0,0.0,0.0,0.0,0.0,0.0,0.0,0.0,0.0,0.0,0.0,0.0,0.0,0.0,0.0,0.0,0.0,0.0,0.0,0.0,0.0,0.0,0.0,0.0,0.0,0.0,0.0,0.0,0.0,0.0,0.0,0.0,0.0,0.0,0.0,0.0,0.0,0.0,0.0,0.0,0.0,0.0,0.0,0.0,0.0,0.0,0.0,0.0,0.0,0.0,0.0,0.0,0.0,0.0,0.0,0.0,0.0,0.0,0.0,0.0,0.0,0.0,0.0,0.0,0.0,0.0,0.0,0.0,0.0,0.0,0.0,0.0,0.0,0.0,0.0,0.0,0.0,0.0,0.0,0.0,0.0,0.0,0.0,0.0,0.0,0.0,0.0,0.0,0.0,0.0,0.0,0.0,0.0,0.0,0.0,0.0,0.0,0.0,0.0,0.0,0.0,0.0,0.0,0.0,0.0,0.0,0.0,0.0,0.0,0.0,0.0,0.0,0.0,0.0,0.0,0.0,0.0,0.0,0.0,0.0,0.0,0.0,0.0,0.0,0.0,0.0,0.0,0.0,0.0,0.0,0.0,0.0,0.0,0.0,0.0,0.0,0.0,0.0,0.0,0.0,0.0,0.0,0.0,0.0,0.0,0.0,0.0,0.0,0.0,0.0,0.0,0.0,0.0,0.0,0.0,0.0,0.0,0.0,0.0,0.0,0.0,0.0,0.0,0.0,0.0,0.0,0.0,0.0,0.0,0.0,0.0,0.0,0.0,0.0,0.0,0.0,0.0,0.0,0.0,0.0,0.0,0.0,0.0,0.0,0.0,0.0,0.0,0.0,0.0,0.0,0.0,0.0,0.0,0.0,0.0,0.0,0.0,0.0,0.0,0.0,0.0,0.0,0.0,0.0,0.0,0.0,0.0,0.0,0.0,0.0,0.0,0.0,0.0,0.0,0.0,0.0,0.0,0.0,0.0,0.0,0.0,0.0,0.0,0.0,0.0,0.0,0.0,0.0,0.0,0.0,0.0,-2.9514,0.0,0.0,0.0,0.0,0.0,0.0,0.0,0.0,0.0,0.0,0.0,0.0,0.0,0.0,0.0,0.0,0.0,0.0,0.0,0.0,0.0,0.0,0.0,0.0,0.0,0.0,0.0,0.0,0.0,0.0,0.0,0.0,0.0,0.0,0.0,0.0,0.0,0.0,0.0,0.0,0.0,0.0,0.0,0.0,0.0,0.0,0.0,0.0,0.0,0.0,0.0,0.0,0.0,0.0,0.0,0.0,0.0,0.0,0.0,0.0,0.0,0.0,0.0,0.0,0.0,0.0,0.0,0.0,0.0,0.0,0.0,0.0,0.0,0.0,0.0,0.0,0.0,0.0,0.0,0.0,0.0,0.0,0.0,0.0,0.0,0.0,0.0,0.0,0.0,0.0,0.0,0.0,0.0,0.0,0.0,0.0,0.0,0.0,0.0,0.0,0.0,0.0,0.0,0.0,0.0,0.0,0.0,0.0,0.0,0.0,-3.222,-3.0837,-3.205,-3.1996,-3.049,0.0,0.0,0.0,0.0,0.0,0.0,0.0,0.0,0.0,0.0,0.0,0.0,0.0,0.0,0.0,0.0,0.0,0.0,0.0,0.0,0.0,0.0,0.0,0.0,0.0,0.0,0.0,0.0,0.0,0.0,0.0,0.0,0.0,0.0,0.0,0.0,0.0,0.0,0.0,0.0,0.0,0.0,0.0,0.0,0.0,0.0,0.0,0.0,0.0,0.0,0.0,0.0,0.0,0.0,0.0,0.0,0.0,0.0,0.0,0.0,0.0,0.0,0.0,0.0,0.0,0.0,0.0,0.0,0.0,0.0,0.0,0.0,0.0,0.0,0.0,0.0,0.0,0.0,0.0,0.0,0.0,0.0,0.0,0.0,0.0,0.0,0.0,0.0,0.0,0.0,0.0,0.0,0.0,0.0,0.0,0.0,0.0,0.0,0.0,0.0,0.0,0.0,0.0,0.0,0.0,0.0,0.0,0.0,0.0,0.0,0.0,0.0,-3.4069,-3.397,-3.2316,0.0,0.0,0.0,0.0,0.0,0.0,0.0,0.0,0.0,0.0,0.0,0.0,0.0,0.0,0.0,0.0,0.0,0.0,0.0,0.0,0.0,0.0,0.0,0.0,0.0,0.0,0.0,0.0,0.0,0.0,0.0,0.0,0.0,0.0,0.0,0.0,0.0,0.0,0.0,0.0,0.0,0.0,0.0,0.0,0.0,0.0,0.0,0.0,0.0,0.0,0.0,0.0,0.0,0.0,0.0,0.0,0.0,0.0,0.0,0.0,0.0,0.0,0.0,0.0,0.0,0.0,0.0,0.0,0.0,0.0,0.0,0.0,0.0,0.0,0.0,0.0,0.0,0.0,0.0,0.0,0.0,0.0,0.0,0.0,0.0,0.0,0.0,0.0,0.0,0.0,0.0,0.0,0.0,0.0,0.0,0.0,0.0,0.0,0.0,0.0,0.0,0.0,0.0,0.0,0.0,0.0,0.0,0.0,0.0,0.0,-3.3391,-3.7077,-3.7274,0.0,-3.5685,0.0,0.0,0.0,0.0,0.0,0.0,0.0,0.0,0.0,0.0,0.0,0.0,0.0,0.0,0.0,0.0,0.0,0.0,0.0,0.0,0.0,0.0,0.0,0.0,0.0,0.0,0.0,0.0,0.0,0.0,0.0,0.0,0.0,0.0,0.0,0.0,0.0,0.0,0.0,0.0,0.0,0.0,0.0,0.0,0.0,0.0,0.0,0.0,0.0,0.0,0.0,0.0,0.0,0.0,0.0,0.0,0.0,0.0,0.0,0.0,0.0,0.0,0.0,0.0,0.0,0.0,0.0,0.0,0.0,0.0,0.0,0.0,0.0,0.0,0.0,0.0,0.0,0.0,0.0,0.0,0.0,0.0,0.0,0.0,0.0,0.0,0.0,0.0,0.0,0.0,0.0,0.0,0.0,0.0,0.0,0.0,0.0,0.0,0.0,0.0,0.0,0.0,0.0,0.0,0.0,0.0,0.0,0.0,0.0,0.0,-3.4907,-3.774,-3.7695,-3.6672,0.0,0.0,0.0,0.0,0.0,0.0,0.0,0.0,0.0,0.0,0.0,0.0,0.0,0.0,0.0,0.0,0.0,0.0,0.0,0.0,0.0,0.0,0.0,0.0,0.0,0.0,0.0,0.0,0.0,0.0,0.0,0.0,0.0,0.0,0.0,0.0,0.0,0.0,0.0,0.0,0.0,0.0,0.0,0.0,0.0,0.0,0.0,0.0,0.0,0.0,0.0,0.0,0.0,0.0,0.0,0.0,0.0,0.0,0.0,0.0,0.0,0.0,0.0,0.0,0.0,0.0,0.0,0.0,0.0,0.0,0.0,0.0,0.0,0.0,0.0,0.0,0.0,0.0,0.0,0.0,0.0,0.0,0.0,0.0,0.0,0.0,0.0,0.0,0.0,0.0,0.0,0.0,0.0,0.0,0.0,0.0,0.0,0.0,0.0,0.0,0.0,0.0,0.0,0.0,0.0,0.0,0.0,0.0,0.0,0.0,-3.4756,-3.6934,-3.9346,-3.8553,-3.6673,-3.3903,0.0,0.0,0.0,0.0,0.0,0.0,0.0,0.0,0.0,0.0,0.0,0.0,0.0,0.0,0.0,0.0,0.0,0.0,0.0,0.0,0.0,0.0,0.0,0.0,0.0,0.0,0.0,0.0,0.0,0.0,0.0,0.0,0.0,0.0,0.0,0.0,0.0,0.0,0.0,0.0,0.0,0.0,0.0,0.0,0.0,0.0,0.0,0.0,0.0,0.0,0.0,0.0,0.0,0.0,0.0,0.0,0.0,0.0,0.0,0.0,0.0,0.0,0.0,0.0,0.0,0.0,0.0,0.0,0.0,0.0,0.0,0.0,0.0,0.0,0.0,0.0,0.0,0.0,0.0,0.0,0.0,0.0,0.0,0.0,0.0,0.0,0.0,0.0,0.0,0.0,0.0,0.0,0.0,0.0,0.0,0.0,0.0,0.0,0.0,0.0,0.0,0.0,0.0,0.0,0.0,0.0,0.0,0.0,-4.0565,-3.866,-3.9528,-4.3579,-4.0691,-3.7641,0.0,0.0,0.0,0.0,0.0,0.0,0.0,0.0,0.0,0.0,0.0,0.0,0.0,0.0,0.0,0.0,0.0,0.0,0.0,0.0,0.0,0.0,0.0,0.0,0.0,0.0,0.0,0.0,0.0,0.0,0.0,0.0,0.0,0.0,0.0,0.0,0.0,0.0,0.0,0.0,0.0,0.0,0.0,0.0,0.0,0.0,0.0,0.0,0.0,0.0,0.0,0.0,0.0,0.0,0.0,0.0,0.0,0.0,0.0,0.0,0.0,0.0,0.0,0.0,0.0,0.0,0.0,0.0,0.0,0.0,0.0,0.0,0.0,0.0,0.0,0.0,0.0,0.0,0.0,0.0,0.0,0.0,0.0,0.0,0.0,0.0,0.0,0.0,0.0,0.0,0.0,0.0,0.0,0.0,0.0,0.0,0.0,0.0,0.0,0.0,0.0,0.0,0.0,0.0,0.0,0.0,0.0,0.0,0.0,-3.3586,-3.6329,-3.9842,-4.3828,-4.0326,-3.7604,0.0,0.0,0.0,0.0,0.0,0.0,0.0,0.0,0.0,0.0,0.0,0.0,0.0,0.0,0.0,0.0,0.0,0.0,0.0,0.0,0.0,0.0,0.0,0.0,0.0,0.0,0.0,0.0,0.0,0.0,0.0,0.0,0.0,0.0,0.0,0.0,0.0,0.0,0.0,0.0,0.0,0.0,0.0,0.0,0.0,0.0,0.0,0.0,0.0,0.0,0.0,0.0,0.0,0.0,0.0,0.0,0.0,0.0,0.0,0.0,0.0,0.0,0.0,0.0,0.0,0.0,0.0,0.0,0.0,0.0,0.0,0.0,0.0,0.0,0.0,0.0,0.0,0.0,0.0,0.0,0.0,0.0,0.0,0.0,0.0,0.0,0.0,0.0,0.0,0.0,0.0,0.0,0.0,0.0,0.0,0.0,0.0,0.0,0.0,0.0,0.0,0.0,0.0,0.0,0.0,0.0,0.0,0.0,0.0,-3.3084,0.0,-4.178,-4.3157,-3.9983,-3.7015,0.0,0.0,0.0,0.0,0.0,0.0,0.0,0.0,0.0,0.0,0.0,0.0,0.0,0.0,0.0,0.0,0.0,0.0,0.0,0.0,0.0,0.0,0.0,0.0,0.0,0.0,0.0,0.0,0.0,0.0,0.0,0.0,0.0,0.0,0.0,0.0,0.0,0.0,0.0,0.0,0.0,0.0,0.0,0.0,0.0,0.0,0.0,0.0,0.0,0.0,0.0,0.0,0.0,0.0,0.0,0.0,0.0,0.0,0.0,0.0,0.0,0.0,0.0,0.0,0.0,0.0,0.0,0.0,0.0,0.0,0.0,0.0,0.0,0.0,0.0,0.0,0.0,0.0,0.0,0.0,0.0,0.0,0.0,0.0,0.0,0.0,0.0,0.0,0.0,0.0,0.0,0.0,0.0,0.0,0.0,0.0,0.0,0.0,0.0,0.0,0.0,0.0,0.0,0.0,0.0,0.0,0.0,0.0,-3.3542,-4.0819,-4.4881,-4.5227,-4.1909,-3.9871,-3.5951,0.0,0.0,0.0,0.0,0.0,0.0,0.0,0.0,0.0,0.0,0.0,0.0,0.0,0.0,0.0,0.0,0.0,0.0,0.0,0.0,0.0,0.0,0.0,0.0,0.0,0.0,0.0,0.0,0.0,0.0,0.0,0.0,0.0,0.0,0.0,0.0,0.0,0.0,0.0,0.0,0.0,0.0,0.0,0.0,0.0,0.0,0.0,0.0,0.0,0.0,0.0,0.0,0.0,0.0,0.0,0.0,0.0,0.0,0.0,0.0,0.0,0.0,0.0,0.0,0.0,0.0,0.0,0.0,0.0,0.0,0.0,0.0,0.0,0.0,0.0,0.0,0.0,0.0,0.0,0.0,0.0,0.0,0.0,0.0,0.0,0.0,0.0,0.0,0.0,0.0,0.0,0.0,0.0,0.0,0.0,0.0,0.0,0.0,0.0,0.0,0.0,0.0,0.0,0.0,0.0,0.0,0.0,0.0,0.0,-3.7548,-4.1292,-4.4067,-4.55,-4.0653,-3.7715,0.0,0.0,0.0,0.0,0.0,0.0,0.0,0.0,0.0,0.0,0.0,0.0,0.0,0.0,0.0,0.0,0.0,0.0,0.0,0.0,0.0,0.0,0.0,0.0,0.0,0.0,0.0,0.0,0.0,0.0,0.0,0.0,0.0,0.0,0.0,0.0,0.0,0.0,0.0,0.0,0.0,0.0,0.0,0.0,0.0,0.0,0.0,0.0,0.0,0.0,0.0,0.0,0.0,0.0,0.0,0.0,0.0,0.0,0.0,0.0,0.0,0.0,0.0,0.0,0.0,0.0,0.0,0.0,0.0,0.0,0.0,0.0,0.0,0.0,0.0,0.0,0.0,0.0,0.0,0.0,0.0,0.0,0.0,0.0,0.0,0.0,0.0,0.0,0.0,0.0,0.0,0.0,0.0,0.0,0.0,0.0,0.0,0.0,0.0,0.0,0.0,0.0,0.0,0.0,0.0,0.0,0.0,0.0,0.0,-3.9002,-4.2527,-4.5043,-4.6398,-4.167,-3.8829,-3.819,0.0,0.0,0.0,0.0,0.0,0.0,0.0,0.0,0.0,0.0,0.0,0.0,0.0,0.0,0.0,0.0,0.0,0.0,0.0,0.0,0.0,0.0,0.0,0.0,0.0,0.0,0.0,0.0,0.0,0.0,0.0,0.0,0.0,0.0,0.0,0.0,0.0,0.0,0.0,0.0,0.0,0.0,0.0,0.0,0.0,0.0,0.0,0.0,0.0,0.0,0.0,0.0,0.0,0.0,0.0,0.0,0.0,0.0,0.0,0.0,0.0,0.0,0.0,0.0,0.0,0.0,0.0,0.0,0.0,0.0,0.0,0.0,0.0,0.0,0.0,0.0,0.0,0.0,0.0,0.0,0.0,0.0,0.0,0.0,0.0,0.0,0.0,0.0,0.0,0.0,0.0,0.0,0.0,0.0,0.0,0.0,0.0,0.0,0.0,0.0,0.0,0.0,0.0,0.0,0.0,0.0,0.0,0.0,-4.4042,-4.7691,-4.8096,-4.5197,-4.2994,-3.9541,0.0,0.0,0.0,0.0,0.0,0.0,0.0,0.0,0.0,0.0,0.0,0.0,0.0,0.0,0.0,0.0,0.0,0.0,0.0,0.0,0.0,0.0,0.0,0.0,0.0,0.0,0.0,0.0,0.0,0.0,0.0,0.0,0.0,0.0,0.0,0.0,0.0,0.0,0.0,0.0,0.0,0.0,0.0,0.0,0.0,0.0,0.0,0.0,0.0,0.0,0.0,0.0,0.0,0.0,0.0,0.0,0.0,0.0,0.0,0.0,0.0,0.0,0.0,0.0,0.0,0.0,0.0,0.0,0.0,0.0,0.0,0.0,0.0,0.0,0.0,0.0,0.0,0.0,0.0,0.0,0.0,0.0,0.0,0.0,0.0,0.0,0.0,0.0,0.0,0.0,0.0,0.0,0.0,0.0,0.0,0.0,0.0,0.0,0.0,0.0,0.0,0.0,0.0,0.0,0.0,0.0,0.0,0.0,0.0,-4.4934,-4.8739,-5.0738,-5.0581,-4.5506,-4.1735,0.0,0.0,0.0,0.0,0.0,0.0,0.0,0.0,0.0,0.0,0.0,0.0,0.0,0.0,0.0,0.0,0.0,0.0,0.0,0.0,0.0,0.0,0.0,0.0,0.0,0.0,0.0,0.0,0.0,0.0,0.0,0.0,0.0,0.0,0.0,0.0,0.0,0.0,0.0,0.0,0.0,0.0,0.0,0.0,0.0,0.0,0.0,0.0,0.0,0.0,0.0,0.0,0.0,0.0,0.0,0.0,0.0,0.0,0.0,0.0,0.0,0.0,0.0,0.0,0.0,0.0,0.0,0.0,0.0,0.0,0.0,0.0,0.0,0.0,0.0,0.0,0.0,0.0,0.0,0.0,0.0,0.0,0.0,0.0,0.0,0.0,0.0,0.0,0.0,0.0,0.0,0.0,0.0,0.0,0.0,0.0,0.0,0.0,0.0,0.0,0.0,0.0,0.0,0.0,0.0,0.0,0.0,0.0,-4.2976,-4.6724,-4.9991,-5.214,-5.3107,-4.8404,-4.4233,0.0,0.0,0.0,0.0,0.0,0.0,0.0,0.0,0.0,0.0,0.0,0.0,0.0,0.0,0.0,0.0,0.0,0.0,0.0,0.0,0.0,0.0,0.0,0.0,0.0,0.0,0.0,0.0,0.0,0.0,0.0,0.0,0.0,0.0,0.0,0.0,0.0,0.0,0.0,0.0,0.0,0.0,0.0,0.0,0.0,0.0,0.0,0.0,0.0,0.0,0.0,0.0,0.0,0.0,0.0,0.0,0.0,0.0,0.0,0.0,0.0,0.0,0.0,0.0,0.0,0.0,0.0,0.0,0.0,0.0,0.0,0.0,0.0,0.0,0.0,0.0,0.0,0.0,0.0,0.0,0.0,0.0,0.0,0.0,0.0,0.0,0.0,0.0,0.0,0.0,0.0,0.0,0.0,0.0,0.0,0.0,0.0,0.0,0.0,0.0,0.0,0.0,0.0,0.0,0.0,0.0,0.0,0.0,-4.4615,-4.8436,-5.0972,-5.2578,-5.3156,-5.0704,-4.6396,0.0,0.0,0.0,0.0,0.0,0.0,0.0,0.0,0.0,0.0,0.0,0.0,0.0,0.0,0.0,0.0,0.0,0.0,0.0,0.0,0.0,0.0,0.0,0.0,0.0,0.0,0.0,0.0,0.0,0.0,0.0,0.0,0.0,0.0,0.0,0.0,0.0,0.0,0.0,0.0,0.0,0.0,0.0,0.0,0.0,0.0,0.0,0.0,0.0,0.0,0.0,0.0,0.0,0.0,0.0,0.0,0.0,0.0,0.0,0.0,0.0,0.0,0.0,0.0,0.0,0.0,0.0,0.0,0.0,0.0,0.0,0.0,0.0,0.0,0.0,0.0,0.0,0.0,0.0,0.0,0.0,0.0,0.0,0.0,0.0,0.0,0.0,0.0,0.0,0.0,0.0,0.0,0.0,0.0,0.0,0.0,0.0,0.0,0.0,0.0,0.0,0.0,0.0,0.0,0.0,0.0,0.0,0.0,-4.3793,-4.6786,-4.9713,-5.1572,-5.2364,-4.8808,-4.4854,0.0,0.0,0.0,0.0,0.0,0.0,0.0,0.0,0.0,0.0,0.0,0.0,0.0,0.0,0.0,0.0,0.0,0.0,0.0,0.0,0.0,0.0,0.0,0.0,0.0,0.0,0.0,0.0,0.0,0.0,0.0,0.0,0.0,0.0,0.0,0.0,0.0,0.0,0.0,0.0,0.0,0.0,0.0,0.0,0.0,0.0,0.0,0.0,-3.2703,0.0,0.0,0.0,0.0,0.0,0.0,0.0,0.0,0.0,0.0,0.0,0.0,0.0,0.0,0.0,0.0,0.0,0.0,0.0,0.0,0.0,0.0,0.0,0.0,0.0,0.0,0.0,0.0,0.0,0.0,0.0,0.0,0.0,0.0,0.0,0.0,0.0,0.0,0.0,0.0,0.0,0.0,0.0,0.0,0.0,0.0,0.0,0.0,0.0,0.0,0.0,0.0,0.0,0.0,0.0,0.0,0.0,0.0,0.0,-4.3233,-4.6155,-4.8443,-4.9998,-5.0628,-4.797,-4.4974,0.0,0.0,0.0,0.0,0.0,0.0,0.0,0.0,0.0,0.0,0.0,0.0,0.0,0.0,0.0,0.0,0.0,0.0,0.0,0.0,0.0,0.0,0.0,0.0,0.0,0.0,0.0,0.0,0.0,0.0,0.0,0.0,0.0,0.0,0.0,0.0,0.0,0.0,0.0,0.0,0.0,0.0,0.0,0.0,0.0,0.0,0.0,0.0,0.0,0.0,0.0,0.0,0.0,0.0,0.0,0.0,0.0,0.0,0.0,0.0,0.0,0.0,0.0,0.0,0.0,0.0,0.0,0.0,0.0,0.0,0.0,0.0,0.0,0.0,0.0,0.0,0.0,0.0,0.0,0.0,0.0,0.0,0.0,0.0,0.0,0.0,0.0,0.0,0.0,0.0,0.0,0.0,0.0,0.0,0.0,0.0,0.0,0.0,0.0,0.0,0.0,0.0,0.0,0.0,0.0,0.0,0.0,-3.9246,-4.2501,-4.5594,-4.6972,-4.7992,-4.8704,-4.7255,-4.5183,-4.2535,0.0,0.0,0.0,0.0,0.0,0.0,0.0,0.0,0.0,0.0,0.0,0.0,0.0,0.0,0.0,0.0,0.0,0.0,0.0,0.0,0.0,0.0,0.0,0.0,0.0,0.0,0.0,0.0,0.0,0.0,0.0,0.0,0.0,0.0,0.0,0.0,0.0,0.0,-3.0387,-3.391,0.0,0.0,0.0,0.0,0.0,0.0,0.0,0.0,-3.4362,0.0,0.0,0.0,0.0,0.0,0.0,0.0,0.0,0.0,0.0,0.0,0.0,0.0,0.0,0.0,0.0,0.0,0.0,0.0,0.0,0.0,0.0,0.0,0.0,0.0,0.0,0.0,0.0,0.0,0.0,0.0,0.0,0.0,0.0,0.0,0.0,0.0,0.0,0.0,0.0,0.0,0.0,0.0,0.0,0.0,0.0,0.0,0.0,0.0,0.0,0.0,0.0,0.0,0.0,0.0,0.0,-3.8892,-3.8961,-4.0574,-4.3817,-4.4754,-4.5569,-4.6302,-4.5095,-4.2988,-4.0081,0.0,0.0,0.0,0.0,0.0,0.0,0.0,0.0,0.0,0.0,0.0,0.0,0.0,0.0,0.0,0.0,0.0,0.0,0.0,0.0,0.0,0.0,0.0,0.0,0.0,0.0,0.0,0.0,0.0,0.0,0.0,0.0,0.0,0.0,0.0,0.0,0.0,0.0,0.0,-3.6606,-3.8403,0.0,0.0,0.0,0.0,0.0,0.0,0.0,0.0,-3.2595,0.0,0.0,0.0,0.0,0.0,0.0,0.0,0.0,0.0,0.0,0.0,0.0,0.0,0.0,0.0,0.0,0.0,0.0,0.0,0.0,0.0,0.0,0.0,0.0,0.0,0.0,0.0,0.0,0.0,0.0,0.0,0.0,0.0,0.0,0.0,0.0,0.0,0.0,0.0,0.0,0.0,0.0,0.0,0.0,0.0,0.0,0.0,0.0,0.0,0.0,0.0,0.0,0.0,0.0,0.0,-3.733,-3.8655,-4.0393,-4.2767,-4.3522,-4.4027,-4.4407,-4.2702,-4.0488,0.0,0.0,0.0,0.0,0.0,0.0,0.0,0.0,0.0,0.0,0.0,0.0,0.0,0.0,0.0,0.0,0.0,0.0,0.0,0.0,0.0,0.0,0.0,0.0,0.0,0.0,0.0,0.0,0.0,0.0,0.0,0.0,0.0,0.0,0.0,0.0,0.0,0.0,0.0,0.0,-3.7119,-3.8645,-3.8197,0.0,0.0,0.0,0.0,0.0,0.0,-3.3064,-3.2213,0.0,0.0,0.0,0.0,0.0,0.0,0.0,0.0,0.0,0.0,0.0,0.0,0.0,0.0,0.0,0.0,0.0,0.0,0.0,0.0,0.0,0.0,0.0,0.0,0.0,0.0,0.0,0.0,0.0,0.0,0.0,0.0,0.0,0.0,0.0,0.0,0.0,0.0,0.0,0.0,0.0,0.0,0.0,0.0,0.0,0.0,0.0,0.0,0.0,0.0,0.0,0.0,0.0,0.0,0.0,-3.5687,-3.8157,-4.0216,-4.186,-4.2455,-4.2748,-4.2664,-4.075,-3.8629,0.0,0.0,0.0,0.0,0.0,0.0,0.0,0.0,0.0,0.0,0.0,0.0,0.0,0.0,0.0,0.0,0.0,0.0,0.0,0.0,0.0,0.0,0.0,0.0,0.0,0.0,0.0,0.0,0.0,0.0,0.0,0.0,0.0,0.0,0.0,0.0,0.0,0.0,0.0,0.0,0.0,-3.9287,-3.8178,-3.8345,0.0,0.0,0.0,0.0,-3.4235,-3.3453,0.0,0.0,0.0,0.0,0.0,0.0,0.0,0.0,0.0,0.0,0.0,0.0,0.0,0.0,0.0,0.0,0.0,0.0,0.0,0.0,0.0,0.0,0.0,0.0,0.0,0.0,0.0,0.0,0.0,0.0,0.0,0.0,0.0,0.0,0.0,0.0,0.0,0.0,0.0,0.0,0.0,0.0,0.0,0.0,0.0,0.0,0.0,0.0,0.0,0.0,0.0,0.0,0.0,0.0,0.0,0.0,-3.6225,-3.7369,-3.8918,-4.0935,-4.1142,-4.1147,-4.1177,-4.0198,-3.8629,0.0,0.0,0.0,0.0,0.0,0.0,0.0,0.0,0.0,0.0,0.0,0.0,0.0,0.0,0.0,0.0,0.0,0.0,0.0,0.0,0.0,0.0,0.0,0.0,0.0,0.0,0.0,0.0,0.0,0.0,0.0,0.0,0.0,0.0,0.0,0.0,0.0,0.0,0.0,0.0,0.0,-4.2072,-3.9173,-3.8946,-3.8598,0.0,0.0,-3.5064,-3.661,-3.5969,0.0,0.0,0.0,0.0,0.0,0.0,0.0,0.0,0.0,0.0,0.0,0.0,0.0,0.0,0.0,0.0,0.0,0.0,0.0,0.0,0.0,0.0,0.0,0.0,0.0,0.0,0.0,0.0,0.0,0.0,0.0,0.0,0.0,0.0,0.0,0.0,0.0,0.0,0.0,0.0,0.0,0.0,0.0,0.0,0.0,0.0,0.0,0.0,0.0,0.0,0.0,0.0,0.0,0.0,0.0,-3.2599,-3.6281,-3.7491,-3.8963,-4.0707,-4.0793,-4.0793,-4.0776,-3.8797,-3.7249,0.0,0.0,0.0,0.0,0.0,0.0,0.0,0.0,0.0,0.0,0.0,0.0,0.0,0.0,0.0,0.0,0.0,0.0,0.0,0.0,0.0,0.0,0.0,0.0,0.0,0.0,0.0,0.0,0.0,0.0,0.0,0.0,0.0,0.0,0.0,0.0,0.0,0.0,0.0,0.0,0.0,0.0,-3.8563,-3.916,0.0,0.0,0.0,-3.5799,-3.6279,0.0,0.0,0.0,0.0,0.0,0.0,0.0,0.0,0.0,0.0,0.0,0.0,0.0,0.0,0.0,0.0,0.0,0.0,0.0,0.0,0.0,0.0,0.0,0.0,0.0,0.0,0.0,0.0,0.0,0.0,0.0,0.0,0.0,0.0,0.0,0.0,0.0,0.0,0.0,0.0,0.0,0.0,0.0,0.0,0.0,0.0,0.0,0.0,0.0,0.0,0.0,0.0,0.0,0.0,0.0,0.0,0.0,-3.6165,-3.7641,-3.9123,-4.058,-4.0648,-4.0563,-4.034,-3.7974,0.0,0.0,0.0,0.0,0.0,0.0,0.0,0.0,0.0,0.0,0.0,0.0,0.0,0.0,0.0,0.0,0.0,0.0,0.0,0.0,0.0,0.0,0.0,0.0,0.0,0.0,0.0,-2.3357,0.0,0.0,0.0,0.0,0.0,0.0,0.0,0.0,0.0,0.0,0.0,0.0,0.0,0.0,-3.8904,-3.8027,-3.9336,-3.9928,0.0,0.0,-3.652,-3.6153,-3.5552,-3.4516,0.0,0.0,0.0,0.0,0.0,0.0,0.0,0.0,0.0,0.0,0.0,0.0,0.0,0.0,0.0,0.0,0.0,0.0,0.0,0.0,0.0,0.0,0.0,0.0,0.0,0.0,0.0,0.0,0.0,0.0,0.0,0.0,0.0,0.0,0.0,0.0,0.0,0.0,0.0,0.0,0.0,0.0,0.0,0.0,0.0,0.0,0.0,0.0,0.0,0.0,0.0,0.0,0.0,0.0,0.0,-3.595,-3.7597,-3.9088,-4.0466,-4.0534,-4.0192,-3.9525,-3.8555,-3.7086,0.0,0.0,0.0,0.0,0.0,0.0,0.0,0.0,0.0,0.0,0.0,0.0,0.0,0.0,0.0,0.0,0.0,0.0,0.0,0.0,0.0,0.0,0.0,0.0,0.0,0.0,0.0,0.0,0.0,0.0,0.0,0.0,0.0,0.0,0.0,0.0,0.0,0.0,0.0,0.0,0.0,-4.0387,-3.8173,-3.9699,-4.0641,0.0,0.0,-3.7406,-3.7203,-3.7098,-3.5952,-3.2733,0.0,0.0,0.0,0.0,0.0,0.0,0.0,0.0,0.0,0.0,0.0,0.0,0.0,0.0,0.0,0.0,0.0,0.0,0.0,0.0,0.0,0.0,0.0,0.0,0.0,0.0,0.0,0.0,0.0,0.0,0.0,0.0,0.0,0.0,0.0,0.0,0.0,0.0,0.0,0.0,0.0,0.0,0.0,0.0,0.0,0.0,0.0,0.0,0.0,0.0,0.0,0.0,0.0,-3.2068,-3.595,-3.6495,-3.7933,-4.0251,-3.9944,-3.9538,-3.9313,-3.8547,-3.6877,0.0,0.0,0.0,0.0,0.0,0.0,0.0,0.0,0.0,0.0,0.0,0.0,0.0,0.0,0.0,0.0,0.0,0.0,0.0,0.0,0.0,0.0,0.0,0.0,0.0,0.0,0.0,0.0,-2.4663,-2.4638,-2.4996,0.0,0.0,0.0,0.0,0.0,0.0,0.0,0.0,0.0,0.0,-3.7297,-3.7058,-3.8508,0.0,0.0,-3.7272,-3.6707,-3.6737,-3.5638,-3.3984,-3.1878,-2.9907,0.0,0.0,0.0,0.0,0.0,0.0,0.0,0.0,0.0,0.0,0.0,0.0,0.0,0.0,0.0,0.0,0.0,0.0,0.0,0.0,0.0,0.0,0.0,0.0,0.0,0.0,0.0,0.0,0.0,0.0,0.0,0.0,0.0,0.0,0.0,0.0,0.0,0.0,0.0,0.0,0.0,0.0,0.0,0.0,0.0,0.0,0.0,0.0,0.0,0.0,0.0,0.0,-3.1635,-3.5496,-3.5902,-3.7335,-3.9865,-3.9406,-3.9033,-3.8829,-3.832,-3.6724,0.0,0.0,0.0,0.0,0.0,0.0,0.0,0.0,0.0,0.0,0.0,0.0,0.0,0.0,0.0,0.0,0.0,0.0,0.0,0.0,0.0,0.0,0.0,0.0,0.0,0.0,0.0,0.0,-2.5085,-2.4799,-2.4752,0.0,0.0,0.0,0.0,0.0,0.0,0.0,0.0,0.0,0.0,-3.4972,-3.5594,-3.7088,-3.776,-3.6505,-3.6028,-3.5741,-3.5467,-3.3844,-3.2164,-3.0509,0.0,0.0,0.0,0.0,0.0,0.0,0.0,0.0,0.0,0.0,0.0,0.0,0.0,0.0,0.0,0.0,0.0,0.0,0.0,0.0,0.0,0.0,0.0,0.0,0.0,0.0,0.0,0.0,0.0,0.0,0.0,0.0,0.0,0.0,0.0,0.0,0.0,0.0,0.0,0.0,0.0,0.0,0.0,0.0,0.0,0.0,0.0,0.0,0.0,0.0,0.0,0.0,0.0,-3.1959,-3.4506,-3.6017,-3.7526,-3.8988,-3.8988,-3.865,-3.8007,-3.7922,-3.6823,-3.4472,0.0,0.0,0.0,0.0,0.0,0.0,0.0,0.0,0.0,0.0,0.0,0.0,0.0,0.0,0.0,0.0,0.0,0.0,0.0,0.0,0.0,0.0,0.0,0.0,0.0,0.0,-2.6738,-2.5809,-2.4879,0.0,0.0,0.0,0.0,0.0,0.0,0.0,0.0,0.0,0.0,-3.2478,-3.4273,-3.3747,-3.5656,-3.6505,-3.4596,-3.4615,-3.4427,-3.3254,-3.2232,-3.0828,0.0,0.0,0.0,0.0,0.0,0.0,0.0,0.0,0.0,0.0,0.0,0.0,0.0,0.0,0.0,0.0,0.0,0.0,0.0,0.0,0.0,0.0,0.0,0.0,0.0,0.0,0.0,-3.5645,-3.518,0.0,0.0,0.0,0.0,0.0,0.0,0.0,0.0,0.0,0.0,0.0,-3.3356,-3.3601,0.0,0.0,0.0,0.0,0.0,0.0,0.0,0.0,0.0,0.0,0.0,0.0,-3.1381,-3.4472,-3.4731,-3.6183,-3.8987,-3.8554,-3.8396,-3.8616,-3.7834,-3.5723,-3.2248,0.0,0.0,0.0,0.0,0.0,0.0,0.0,0.0,0.0,0.0,0.0,0.0,0.0,0.0,0.0,0.0,0.0,0.0,0.0,0.0,0.0,0.0,0.0,0.0,0.0,-2.5084,0.0,0.0,0.0,0.0,0.0,0.0,0.0,0.0,0.0,0.0,0.0,-2.9406,-3.0792,-3.2196,-3.3042,-3.2782,-3.3856,-3.4087,0.0,0.0,0.0,0.0,0.0,0.0,0.0,0.0,0.0,0.0,0.0,0.0,0.0,0.0,-2.9021,-2.6031,-2.4669,-2.3825,-2.3311,0.0,0.0,0.0,0.0,0.0,0.0,0.0,0.0,0.0,0.0,0.0,0.0,0.0,0.0,0.0,0.0,-3.5697,0.0,0.0,0.0,0.0,0.0,0.0,0.0,0.0,-3.4616,-3.5361,-3.4763,-3.5044,-3.4865,0.0,-3.4067,-3.3243,0.0,0.0,0.0,0.0,0.0,0.0,0.0,0.0,-3.1019,-3.328,-3.3862,-3.5299,-3.7672,-3.7436,-3.748,-3.7917,-3.687,-3.4611,-3.1114,-2.9231,-2.7588,0.0,0.0,0.0,0.0,0.0,0.0,0.0,0.0,0.0,0.0,0.0,0.0,0.0,0.0,0.0,0.0,0.0,0.0,0.0,0.0,0.0,0.0,0.0,-2.4828,0.0,0.0,0.0,0.0,0.0,0.0,0.0,0.0,0.0,-2.8237,-2.8624,-2.9334,-3.1108,-3.1511,-3.1523,-3.1318,0.0,0.0,0.0,0.0,0.0,0.0,0.0,-2.8746,-2.7617,-2.7799,-2.7941,-2.7366,-2.8046,-2.8739,-2.8935,0.0,0.0,-2.6911,-2.5619,-2.4541,-2.3884,-2.3182,-2.2601,-2.2343,-2.1943,-2.1527,0.0,0.0,0.0,0.0,0.0,0.0,0.0,0.0,-3.5335,-3.6111,0.0,-3.6611,0.0,0.0,0.0,0.0,0.0,0.0,0.0,0.0,-3.5902,-3.6944,-3.6937,-3.7516,-3.7127,-3.591,-3.7838,-3.7313,-3.4506,-3.1715,0.0,0.0,0.0,0.0,0.0,0.0,-3.0907,-3.118,-3.3494,-3.4906,-3.5289,-3.5778,-3.6008,-3.5909,-3.5215,-3.3696,-3.1227,-2.9832,-2.8276,-2.6395,-2.6272,0.0,0.0,0.0,0.0,0.0,0.0,0.0,0.0,0.0,0.0,0.0,0.0,0.0,0.0,0.0,0.0,0.0,0.0,0.0,0.0,-2.5617,0.0,0.0,0.0,0.0,0.0,0.0,0.0,0.0,0.0,0.0,-2.8068,-2.8638,-2.9371,-3.0673,0.0,0.0,0.0,0.0,-3.0065,-2.9282,-2.9947,-3.0312,-2.9627,-2.9797,-2.9248,-2.7079,0.0,0.0,-2.8503,-2.7968,-2.7837,-2.832,-2.7524,-2.7143,-2.924,-2.8494,-2.7195,-2.5024,-2.3792,-2.2832,-2.1474,-2.1066,-2.082,-3.937,0.0,0.0,0.0,0.0,-3.5904,-3.6715,-3.8336,-3.7284,-3.7077,-3.7439,-3.6646,0.0,0.0,0.0,0.0,0.0,0.0,-3.5479,-3.523,-3.6922,-3.7899,-3.8345,-3.8041,-3.7939,-3.8041,-3.8159,-3.7499,-3.6096,-3.4726,-3.2993,-3.0948,0.0,0.0,0.0,0.0,-3.1166,-3.2934,-3.3811,-3.4787,-3.5902,-3.5959,-3.5383,-3.4105,-3.4753,-3.3239,-2.9368,-2.9643,-2.8779,-2.6502,-2.5872,0.0,0.0,0.0,0.0,0.0,0.0,0.0,0.0,0.0,0.0,0.0,0.0,0.0,0.0,0.0,0.0,0.0,0.0,0.0,-2.5544,-2.5026,-2.4717,0.0,0.0,0.0,0.0,0.0,0.0,0.0,0.0,0.0,-2.8214,-2.8766,-2.919,0.0,0.0,-2.9281,-2.9107,-2.8866,-2.8652,-2.8253,0.0,0.0,0.0,-2.8164,-2.8046,-2.7379,-2.8046,-2.8712,-2.8974,-2.8882,-2.883,-2.8987,-2.8742,-2.8718,-2.9014,-2.6825,-2.4637,-2.3875,-2.2822,-2.1966,-2.1628,-2.1478,-2.1468,-4.2753,-4.006,-3.8681,-3.8387,-3.875,-3.7991,-3.8422,-3.9612,-3.8439,-3.7922,-3.7922,-3.7688,-3.6449,-3.4603,-3.4949,0.0,0.0,0.0,-3.6888,-3.7102,-3.7967,-3.8781,-3.936,-3.8971,-3.8836,-3.8988,-3.8853,-3.8227,-3.7195,-3.6451,-3.5099,-3.3232,0.0,0.0,-3.0275,-3.1048,-3.1887,-3.2816,-3.3843,-3.4558,-3.4968,-3.4945,-3.4124,-3.2657,-3.3693,-3.2716,-2.9385,-2.9866,-2.9119,-2.6933,-2.638,-2.5428,0.0,0.0,0.0,0.0,0.0,0.0,0.0,0.0,0.0,0.0,0.0,-2.4374,-2.4523,0.0,0.0,0.0,-2.4451,-2.487,-2.5346,-2.4732,0.0,0.0,0.0,0.0,0.0,0.0,0.0,-2.6559,-2.5681,-2.5647,-2.7644,-2.7771,-2.8155,-2.9542,-2.905,-2.8545,-2.8612,0.0,-2.7748,-2.7762,-2.8,-2.8065,-2.7863,-2.7863,-2.7719,-2.7249,-2.7458,-2.7902,-2.8464,-2.8412,-2.8333,-2.8477,-2.7997,-2.7537,-2.7537,-2.5002,-2.3233,-2.4032,-2.2977,-2.1869,-2.1636,-2.1393,-2.1259,-4.5573,-4.4268,-4.2061,-4.1078,-4.0905,-4.0181,-3.9836,-3.9715,-3.9008,-3.8681,-3.8732,-3.9198,-3.8625,-3.7357,-3.7115,0.0,0.0,-3.7682,-3.8345,-3.8988,-3.9056,-3.9428,-4.0054,-4.0003,-3.9648,-3.8988,-3.9614,-3.9225,-3.7905,-3.7195,-3.6485,-3.569,-3.4353,-3.2794,-3.1303,-3.2771,-3.2865,-3.1369,-3.3583,-3.4219,-3.3182,-3.3135,-3.251,-3.1297,-3.2226,-3.1935,-3.0166,-3.0032,-2.9108,-2.7365,-2.7226,-2.6026,-2.3517,0.0,0.0,0.0,0.0,0.0,0.0,0.0,0.0,0.0,0.0,0.0,0.0,0.0,0.0,0.0,-2.4426,0.0,-2.5186,-2.4602,0.0,0.0,0.0,-2.4273,-2.3763,-2.4575,-2.534,-2.588,0.0,0.0,0.0,0.0,-2.6673,-2.899,-2.8356,-2.771,-2.7947,-2.7442,-2.7205,-2.7486,-2.8106,-2.8368,-2.8009,-2.7981,-2.7654,-2.6778,-2.6595,-2.6817,-2.7262,-2.7013,-2.6883,-2.7301,-2.596,-2.4911,-2.4822,-2.3549,-2.2983,-2.4679,-2.3602,-2.2099,-2.1251,-2.0772,-2.0514,-4.6672,-4.5906,-4.4182,-4.2802,-4.1716,-4.1526,-4.1129,-4.0543,-3.9784,-3.9422,-3.9422,-3.8906,-3.8328,-3.7831,-3.7695,-3.7682,-3.7716,-3.8396,-3.8819,-3.9022,-3.9563,-3.9918,-4.0104,-3.9512,-3.9157,-3.8988,-3.8599,-3.8261,-3.7905,-3.7736,-3.7263,-3.6518,-3.6146,-3.4997,-3.3123,-3.3139,-3.2918,-3.24,-3.3501,-3.3684,-3.3077,-3.2588,-3.1565,-2.992,-3.0485,-2.9687,-2.7489,-2.7794,-2.7349,-2.5903,-2.5826,-2.4998,-2.3305,-2.3366,0.0,0.0,0.0,0.0,0.0,0.0,0.0,0.0,0.0,-2.5543,-2.4591,0.0,-2.598,0.0,-2.3348,-2.3475,-2.4485,-2.3942,0.0,0.0,-2.4721,-2.4667,-2.4084,-2.4649,-2.5074,-2.5205,-2.5232,-2.538,-2.5955,-2.5903,-2.602,-2.6633,-2.6476,-2.6463,-2.6921,-2.6514,-2.6149,-2.6306,-2.6463,-2.6502,-2.6465,-2.6425,-2.636,-2.6073,-2.6033,-2.6073,-2.6203,-2.6125,-2.6086,-2.614,-2.5486,-2.4809,-2.4578,-2.3344,-2.2354,-2.2635,-2.1903,-2.1066,-2.0658,-2.0493,-2.04,-4.6508,-4.5492,-4.463,-4.3388,-4.1992,-4.1992,-4.175,-4.1319,-4.056,-4.0026,-3.9681,-3.91,-3.8914,-3.903,-3.8918,-3.887,-3.8903,-3.9309,-3.9478,-3.9495,-3.9884,-4.0087,-4.007,-3.9665,-3.9326,-3.8988,-3.8582,-3.8041,-3.7432,-3.7398,-3.7026,-3.6282,-3.6248,-3.5689,-3.4593,-3.4267,-3.4016,-3.3713,-3.3793,-3.3521,-3.2636,-3.2081,-3.1135,-2.9904,-2.972,-2.8947,-2.7334,-2.7303,-2.678,-2.5857,-2.5795,-2.5136,-2.3774,-2.3682,-2.3197,0.0,0.0,0.0,0.0,0.0,0.0,0.0,0.0,0.0,0.0,0.0,-2.5138,0.0,-2.3288,0.0,-2.4657,-2.4155,-2.3852,-2.4281,-2.4509,-2.4465,-2.4151,-2.4622,-2.5079,-2.5315,-2.5132,-2.5171,-2.5733,-2.5367,-2.5158,-2.5393,-2.4975,-2.5066,-2.6046,-2.602,-2.5811,-2.5811,-2.5811,-2.572,-2.5497,-2.5445,-2.5354,-2.5145,-2.5275,-2.5445,-2.5458,-2.5432,-2.5383,-2.5047,-2.4243,-2.3426,-2.2991,-2.195,-2.0961,-2.0736,-2.0179,-1.9812,-2.0048,-1.9965,-1.982,-4.5847,-4.4404,-4.4112,-4.3216,-4.1992,-4.1888,-4.1854,-4.1802,-4.1164,-4.0491,-3.9807,-3.9654,-3.9839,-4.0288,-4.0188,-4.0138,-4.0087,-4.0087,-4.0087,-4.0087,-4.0087,-4.0087,-4.0087,-3.9884,-3.9462,-3.8853,-3.8667,-3.7905,-3.6637,-3.662,-3.6299,-3.5656,-3.5639,-3.5639,-3.5639,-3.5639,-3.527,-3.4673,-3.4119,-3.3358,-3.2384,-3.1778,-3.1096,-3.0304,-2.9408,-2.8593,-2.7904,-2.724,-2.6612,-2.6164,-2.6195,-2.5656,-2.4394,-2.4302,-2.3697,0.0,-2.2315,0.0,0.0,0.0,0.0,0.0,0.0,0.0,0.0,-2.3407,-2.3641,-2.4298,-2.3724,-2.3775,-2.4873,-2.4436,-2.3891,-2.3398,-2.3799,-2.4125,-2.4138,-2.4557,-2.5014,-2.5445,-2.5053,-2.4936,-2.5301,-2.4596,-2.4217,-2.4661,-2.3995,-2.389,-2.5105,-2.5315,-2.5197,-2.538,-2.538,-2.4988,-2.4753,-2.4713,-2.4557,-2.4178,-2.4387,-2.4713,-2.4596,-2.4523,-2.4343,-2.3674,-2.2629,-2.1552,-2.0825,-2.0008,-1.9369,-1.9162,-1.8749,-1.863,-1.9349,-1.9199,-1.894,-4.5521,-4.4725,-4.3103,-4.2233,-4.194,-4.1354,-4.1095,-4.1078,-4.094,-4.0754,-4.0539,-4.0491,-4.0431,-4.0288,-4.0255,-4.0188,-4.007,-4.0087,-4.0087,-4.0087,-4.0087,-4.0087,-4.0003,-3.887,-3.8244,-3.8024,-3.684,-3.6113,-3.5859,-3.5825,-3.5757,-3.5639,-3.5639,-3.5639,-3.5639,0.0,0.0,0.0,-3.3459,-3.3099,-3.2967,-3.2298,-3.1212,-2.9612,-2.8124,0.0,-2.5179,-2.5372,-2.528,-2.4764,-2.5226,0.0,0.0,0.0,0.0,0.0,0.0,0.0,0.0,0.0,0.0,0.0,-2.4,-2.3893,-2.3966,-2.4113,-2.4229,-2.4279,-2.3811,-2.3512,-2.3553,-2.3444,-2.352,-2.389,-2.4047,-2.4125,-2.4125,-2.4204,-2.4151,-2.3746,-2.3616,-2.3589,-2.3707,-2.3498,-2.3629,-2.4099,-2.3668,-2.3367,-2.3655,-2.342,-2.3093,-2.3027,-2.321,-2.325,-2.3511,-2.3563,-2.3576,-2.342,-2.3446,-2.3406,-2.3011,-2.2531,-2.2173,-2.1983,-2.0899,-1.993,-1.958,-1.8837,-1.8302,-1.8061,-1.7916,-1.8009,-1.8516,-1.8299,-1.8081,-4.5775,0.0,-4.3353,-4.2354,0.0,-4.1043,-4.0871,-4.0871,-4.0871,-4.0871,-4.0793,-4.0745,-4.0583,-4.0387,-4.0355,-4.0051,-3.9563,-3.9918,-3.9884,-3.9563,-3.9918,-4.0087,-4.0054,-3.8954,-3.8261,-3.7872,-3.6755,-3.5977,-3.5639,-3.5639,-3.5639,-3.5639,-3.5639,-3.5436,-3.5064,-3.4709,-3.4442,-3.4301,-3.4003,-3.3511,-3.2734,-3.1961,-3.1013,-2.9889,0.0,0.0,0.0,0.0,0.0,0.0,0.0,0.0,0.0,0.0,0.0,-2.4155,-2.4024,-2.394,-2.3839,-2.3797,-2.3797,-2.3797,-2.3792,-2.3743,-2.3569,-2.371,-2.3797,-2.3769,-2.3503,-2.3349,-2.321,-2.321,-2.3223,-2.3263,-2.3263,-2.325,-2.325,-2.325,-2.3132,-2.2871,-2.2792,-2.2792,-2.2818,-2.308,-2.3184,-2.3223,-2.3014,-2.2714,-2.2452,-2.24,-2.2413,-2.2387,-2.24,-2.2505,-2.2753,-2.2792,-2.2792,-2.2805,-2.2805,-2.2688,-2.2426,-2.1911,-2.1375,-2.0981,-2.0134,-1.9324,-1.8736,-1.8262,-1.7915,-1.7709,-1.7482,-1.7399,-1.7688,-1.7719,-1.7729,-4.6216,-4.4304,-4.3885,-4.2737,-4.1185,-4.0987,-4.0871,-4.0871,0.0,0.0,0.0,-4.0793,-4.0563,-4.028,-4.0199,-3.9661,-3.8853,-3.9411,-3.9377,-3.8836,-3.9411,-3.9698,-3.9665,-3.8954,-3.8278,-3.7686,-3.6924,-3.6248,-3.5639,-3.5639,-3.5639,-3.5639,-3.5639,-3.5301,-3.4675,-3.3964,-3.3973,-3.4767,-3.4673,-3.3941,-3.2602,-3.1719,-3.0958,-3.0428,-2.8452,-2.7348,-2.7196,-2.6197,-2.5582,-2.5518,-2.5626,-2.5626,-2.5503,-2.5336,-2.4943,-2.4253,-2.4043,-2.3882,-2.3595,-2.3595,-2.3595,-2.3595,-2.3819,-2.3673,-2.3041,-2.3114,-2.3204,-2.3194,-2.3122,-2.3067,-2.3067,-2.3067,-2.2884,-2.2454,-2.2428,-2.2441,-2.2428,-2.2428,-2.2428,-2.2297,-2.2271,-2.223,-2.2256,-2.2596,-2.2858,-2.2583,-2.2413,-2.2047,-2.1577,-2.1747,-2.1995,-2.1982,-2.1943,-2.2073,-2.223,-2.223,-2.223,-2.223,-2.223,-2.2178,-2.1912,-2.1441,-2.0754,-1.9915,-1.9391,-1.8677,-1.7945,-1.7662,-1.7674,-1.7502,-1.7142,-1.6933,-1.6894,-1.7222,-1.7481,-4.6468,-4.5977,-4.3767,-4.2693,-4.2374,-4.1365,-4.0871,-4.0871,-4.0871,-4.0871,-4.0871,-4.0871,-4.0384,-3.9546,-3.9546,-3.8993,-3.8091,-3.8159,-3.8159,0.0,-3.8159,-3.821,-3.8176,-3.7432,-3.7043,-3.6874,-3.6146,-3.5723,-3.5639,-3.5639,-3.5639,-3.5639,-3.5639,-3.5554,-3.5402,-3.4709,-3.4522,-3.48,-3.4268,-3.4008,-3.3909,-3.2812,-3.1605,-3.0428,-2.8912,-2.7578,-2.658,-2.678,-2.6719,-2.6303,-2.6795,-2.6842,-2.6257,-2.5599,-2.5129,-2.4861,-2.4215,-2.3739,-2.3595,-2.3595,-2.3595,-2.364,-2.4149,-2.4095,-2.3118,-2.3077,-2.3109,-2.3111,-2.2776,-2.2492,-2.2518,-2.2492,-2.2481,-2.2402,-2.2402,-2.2415,-2.2363,-2.235,-2.2113,-2.1694,-2.1629,-2.1629,-2.1655,-2.1747,-2.2165,-2.2688,-2.223,-2.1459,-2.1002,-2.0882,-2.0948,-2.0948,-2.0948,-2.1106,-2.1446,-2.1616,-2.1525,-2.1629,-2.1538,-2.1199,-2.0436,-1.9756,-1.9071,-1.8412,-1.7767,-1.713,-1.6833,-1.6723,-1.6659,-1.6622,-1.6519,-1.6467,-1.6477,-1.657,-1.6726,-4.7074,-4.6418,-4.5228,-4.4125,-4.2987,-4.1778,-4.1088,-4.0918,-4.0871,-4.0871,-4.0871,-4.0871,-4.0363,-3.9457,-3.9375,-3.8618,-3.7313,-3.7719,-3.7686,-3.733,-3.7702,-3.7922,-3.7838,-3.7144,-3.6789,-3.6721,-3.5994,-3.5639,-3.5639,-3.5639,-3.5639,-3.5605,-3.5216,-3.5013,-3.4945,-3.4269,-3.4122,-3.4588,-3.3746,-3.321,-3.3087,-3.2144,-3.1073,-2.9904,-2.9077,-2.8143,-2.698,-2.7164,-2.7042,-2.6411,-2.6672,-2.6703,-2.6395,-2.6043,-2.5645,-2.5146,-2.4696,-2.4217,-2.3754,-2.3338,-2.3101,-2.3101,-2.3385,-2.3126,-2.2044,-2.2972,-2.3447,-2.3134,-2.2671,-2.223,-2.1956,-2.1904,-2.1826,-2.1524,-2.1485,-2.1485,-2.1485,-2.1485,-2.138,-2.1093,-2.1041,-2.1041,-2.1054,-2.1315,-2.1642,-2.2165,-2.176,-2.1276,-2.0777,-2.0374,-2.0358,-2.0594,-2.045,-2.026,-2.0455,-2.0234,-2.009,-2.0064,-2.0064,-1.9851,-1.9245,-1.8646,-1.8112,-1.7722,-1.7067,-1.6637,-1.6513,-1.6213,-1.6098,-1.6011,-1.6001,-1.6001,-1.6022,-1.6187,-1.6446,-4.7785,-4.6906,-4.6585,-4.5245,-4.3195,-4.2009,-4.1283,-4.0918,-4.0871,-4.0871,-4.0871,-4.0871,-4.0229,-3.9217,-3.9136,-3.8159,-3.6785,-3.7127,-3.7077,-3.662,-3.7127,-3.7398,-3.733,-3.6772,-3.6502,-3.6451,-3.5893,-3.5639,-3.5639,-3.5639,-3.5639,-3.5571,-3.503,-3.4742,-3.4726,-3.4015,-3.3972,-3.4431,-3.3317,-3.2613,-3.2342,-3.1634,-3.0689,-2.9473,-2.9296,-2.8728,-2.7719,-2.7626,-2.738,-2.6888,-2.6842,-2.6842,-2.6811,-2.6534,-2.6104,-2.545,-2.5011,-2.447,-2.3812,-2.311,-2.2783,-2.2877,-2.2757,-2.2319,-2.1718,-2.2708,-2.32,-2.2454,-2.1928,-2.1498,-2.0989,-2.0884,-2.074,-2.0371,-2.0319,-2.0306,-2.0306,-2.0306,-2.0306,-2.0306,-2.0306,-2.0306,-2.0411,-2.0767,-2.1093,-2.1093,-2.1224,-2.1054,-2.0437,-1.9852,-1.9839,-2.0022,-1.9878,-1.9595,-1.9409,-1.9183,-1.8949,-1.8673,-1.8674,-1.8548,-1.8226,-1.7717,-1.7339,-1.6885,-1.6479,-1.6137,-1.6057,-1.5784,-1.5566,-1.5535,-1.5525,-1.5525,-1.5546,-1.5887,-1.6249,-4.8212,-4.797,-4.6943,-4.506,-4.2802,-4.1877,-4.1283,-4.0935,-4.0918,-4.0871,-4.0871,-4.0871,-3.9954,-3.855,-3.8418,-3.7444,-3.5808,-3.5808,-3.5825,-3.5774,-3.5808,-3.5842,-3.5926,-3.5791,-3.574,-3.5757,-3.569,-3.5673,-3.5639,-3.5639,-3.5639,-3.5622,-3.5537,-3.5487,-3.5419,-3.4759,-3.4522,-3.4714,-3.3387,-3.2751,-3.287,-3.2376,-3.124,-2.9458,-2.9377,-2.9073,-2.835,-2.8319,-2.8288,-2.8227,-2.8165,-2.8181,-2.8073,-2.7057,-2.6244,-2.591,-2.48,-2.3943,-2.3623,-2.3068,-2.2906,-2.34,-2.2936,-2.2607,-2.2465,-2.2333,-2.1648,-2.0492,-2.0086,-1.9917,-1.9237,-1.9277,-1.9355,-1.9342,-1.9251,-1.9054,-1.9146,-1.9068,-1.9068,-1.9068,-1.9198,-1.9094,-1.9316,-1.9812,-2.0074,-2.0244,-2.0531,-2.0427,-1.9564,-1.9133,-1.9002,-1.9081,-1.8989,-1.8956,-1.8851,-1.8884,-1.8526,-1.81,-1.7999,-1.7666,-1.7018,-1.6514,-1.6151,-1.5892,-1.5437,-1.5309,-1.5278,-1.507,-1.507,-1.5059,-1.5059,-1.507,-1.5111,-1.5473,-1.5877,-4.8324,-4.8233,-4.7291,-4.5588,-4.3542,-4.266,-4.1906,-4.13,-4.1237,-4.1117,-4.0935,-4.084,-3.9873,-3.8316,-3.8235,-3.7262,-3.5673,-3.5639,-3.5639,-3.5639,-3.5639,-3.5639,-3.5673,-3.6113,-3.6096,-3.569,-3.6079,-3.6079,-3.569,-3.5639,-3.5639,-3.5639,-3.5639,-3.5639,-3.5588,-3.5318,-3.5228,-3.5253,-3.4729,-3.4134,-3.3461,-3.264,-3.1643,-3.0595,-3.0149,-2.9704,-2.9042,-2.8642,-2.8411,-2.8381,-2.8027,-2.7764,-2.7685,-2.6796,-2.6,-2.5423,-2.4455,-2.3797,-2.3595,-2.3026,-2.2828,-2.3041,-2.2458,-2.2017,-2.1772,-2.1626,-2.1018,-1.998,-1.9787,-1.9812,-1.99,-1.963,-1.9433,-1.9433,-1.9433,-1.929,-1.8937,-1.8885,-1.8898,-1.8898,-1.8898,-1.9041,-1.942,-1.9943,-2.027,-2.027,-2.027,-1.9852,-1.9433,-1.8885,-1.8466,-1.8388,-1.8065,-1.7956,-1.8131,-1.7981,-1.7663,-1.7397,-1.7097,-1.6622,-1.6249,-1.578,-1.5444,-1.5122,-1.4977,-1.4935,-1.5038,-1.4738,-1.4593,-1.4593,-1.4604,-1.4656,-1.4925,-1.5359,-1.5649,-4.7994,-4.7829,-4.6893,-4.5551,-4.4041,-4.3226,-4.2458,-4.1735,-4.1692,-4.1445,-4.1088,-4.0931,-4.0006,-3.8675,-3.8274,-3.7301,-3.6011,-3.5723,-3.5639,-3.5656,-3.5825,-3.5943,-3.5994,-3.6502,-3.6485,-3.6079,-3.6265,-3.6146,-3.5673,-3.5639,-3.5639,-3.5639,-3.5639,-3.5639,-3.5639,-3.5639,-3.5639,-3.5605,-3.5453,-3.4852,-3.4006,-3.3112,-3.2155,-3.1272,-3.0519,-2.9904,-2.9427,-2.8765,-2.8411,-2.8396,-2.7702,-2.7287,-2.7147,-2.6367,-2.5499,-2.4712,-2.4111,-2.3696,-2.3595,-2.3026,-2.2798,-2.2888,-2.2338,-2.1868,-2.1589,-2.1498,-2.1066,-2.0295,-1.9927,-1.9956,-2.0035,-1.9799,-1.9525,-1.9381,-1.9342,-1.9094,-1.8506,-1.844,-1.8401,-1.844,-1.8323,-1.8662,-1.9224,-1.9616,-1.9834,-1.9795,-1.9538,-1.9191,-1.9021,-1.8291,-1.7765,-1.7752,-1.7316,-1.7222,-1.7493,-1.7364,-1.6944,-1.6572,-1.6332,-1.6102,-1.5671,-1.5154,-1.4837,-1.4505,-1.4603,-1.4593,-1.4438,-1.4231,-1.4148,-1.4128,-1.4148,-1.4242,-1.4428,-1.4893,-1.5007,-4.7186,-4.6929,-4.548,-4.4583,-4.4023,-4.3264,-4.2634,-4.2157,-4.2157,-4.1906,-4.1445,-4.1241,-4.0539,-3.9255,-3.838,-3.7589,-3.6688,-3.5943,-3.5639,-3.569,-3.6299,-3.6688,-3.6738,-3.6772,-3.6738,-3.6485,-3.6096,-3.5757,-3.5639,-3.5639,-3.5639,-3.5639,-3.5639,-3.5639,-3.5639,-3.5639,-3.5639,-3.5571,-3.503,-3.4573,-3.4401,-3.3906,-3.2818,-3.1339,-3.0114,-2.9566,-2.9381,-2.8781,-2.8427,-2.8411,-2.7624,-2.7194,-2.7055,-2.5818,-2.4682,-2.399,-2.3726,-2.3595,-2.3535,-2.3056,-2.2936,-2.334,-2.2906,-2.2607,-2.2554,-2.2161,-2.1693,-2.1181,-2.0415,-1.979,-1.935,-1.931,-1.8924,-1.8506,-1.8296,-1.8022,-1.7434,-1.7486,-1.7303,-1.7356,-1.7473,-1.7787,-1.8205,-1.8192,-1.8453,-1.8479,-1.831,-1.8122,-1.7813,-1.7368,-1.7183,-1.714,-1.7033,-1.6944,-1.6927,-1.694,-1.6633,-1.6318,-1.6162,-1.5775,-1.5006,-1.4381,-1.4153,-1.3947,-1.3917,-1.3869,-1.3734,-1.3693,-1.3724,-1.3734,-1.3755,-1.3848,-1.4014,-1.376,-1.3912,-4.6489,-4.5535,-4.4947,-4.4308,-4.3724,-4.3378,-4.3069,-4.2616,-4.2338,-4.1948,-4.1385,-4.0487,-3.9817,-3.9324,-3.7908,-3.7089,-3.6721,-3.5977,-3.5639,-3.5656,-3.591,-3.6045,-3.6096,-3.6518,-3.6485,-3.6113,-3.6248,-3.6096,-3.5656,-3.5639,-3.5639,-3.5639,-3.5639,-3.5639,-3.5639,-3.5639,-3.5639,-3.5588,-3.5334,-3.4996,-3.4428,-3.3951,-3.3036,-3.1742,-3.1365,-3.0767,-2.994,-2.9346,-2.8744,-2.8183,-2.7147,-2.6489,-2.6182,-2.4927,-2.3995,-2.3741,-2.3638,-2.3595,-2.3565,-2.34,-2.3355,-2.3505,-2.3026,-2.2903,-2.3046,-2.2484,-2.1924,-2.1717,-2.1527,-2.1029,-2.0489,-1.9885,-1.9407,-1.9198,-1.8832,-1.8375,-1.7865,-1.746,-1.7212,-1.7264,-1.7444,-1.7778,-1.7939,-1.7956,-1.8196,-1.8891,-1.8169,-1.786,-1.8332,-1.8016,-1.7414,-1.7414,-1.7344,-1.713,-1.6774,-1.6774,-1.6633,-1.6392,-1.6188,-1.5881,-1.5311,-1.464,-1.4345,-1.4168,-1.3858,-1.3621,-1.3652,-1.3641,-1.361,-1.361,-1.361,-1.361,-1.3621,-1.3606,-1.3677,-4.5938,-4.4764,-4.4433,-4.4011,-4.3516,-4.3479,-4.3339,-4.3014,-4.2616,-4.2032,-4.1251,-4.0134,-3.9456,-3.8845,-3.7517,-3.6835,-3.6705,-3.5977,-3.5639,-3.5656,-3.5876,-3.5994,-3.6079,-3.6535,-3.6518,-3.6079,-3.6231,-3.6096,-3.569,-3.5639,-3.5639,-3.5639,-3.5639,-3.5639,-3.5639,-3.5639,-3.5537,-3.5301,-3.5047,-3.4506,-3.3837,-3.3443,-3.2706,-3.1783,-3.1919,-3.1388,-2.9935,-2.9291,-2.8706,-2.7963,-2.6761,-2.5788,-2.5078,-2.4147,-2.3595,-2.3595,-2.3595,-2.3595,-2.3595,-2.3595,-2.3595,-2.3595,-2.3251,-2.3176,-2.3477,-2.2746,-2.2334,-2.2321,-2.2189,-2.1955,-2.1615,-2.0982,-2.0414,-2.0046,-1.9344,-1.8702,-1.8166,-1.7735,-1.7434,-1.729,-1.7401,-1.767,-1.7948,-1.7854,-1.8248,-1.9279,-1.8158,-1.8087,-1.8768,-1.8567,-1.79,-1.7842,-1.7764,-1.751,-1.7194,-1.7068,-1.6827,-1.6535,-1.6349,-1.6064,-1.5724,-1.5062,-1.4592,-1.4395,-1.4104,-1.3763,-1.3621,-1.3621,-1.361,-1.361,-1.361,-1.361,-1.3625,-1.3621,-1.3693,-4.5406,-4.458,-4.3846,-4.3534,-4.3479,-4.3406,-4.3442,-4.3283,-4.2886,-4.1965,-4.0935,-4.0295,-3.9212,-3.8208,-3.724,-3.6859,-3.6564,-3.5926,-3.5639,-3.569,-3.6299,-3.6569,-3.6586,-3.6603,-3.6637,-3.6518,-3.5977,-3.5673,-3.5639,-3.5639,-3.5639,-3.5639,-3.5639,-3.5639,-3.5639,-3.5605,-3.525,-3.4658,-3.4117,-3.3305,-3.2466,-3.2469,-3.2,-3.1034,-3.1385,-3.0927,-2.9245,-2.8545,-2.8191,-2.7834,-2.6589,-2.5123,-2.4013,-2.364,-2.3595,-2.3595,-2.3595,-2.3595,-2.3595,-2.3595,-2.3595,-2.3595,-2.3565,-2.352,-2.3507,-2.3143,-2.2876,-2.2725,-2.2498,-2.2175,-2.2128,-2.1899,-2.1416,-2.0588,-1.9607,-1.8792,-1.8244,-1.8074,-1.7852,-1.73,-1.7164,-1.726,-1.7648,-1.774,-1.7958,-1.8439,-1.8444,-1.8397,-1.8719,-1.8618,-1.8371,-1.8251,-1.8179,-1.8025,-1.771,-1.7408,-1.7024,-1.6691,-1.6554,-1.6293,-1.5949,-1.5437,-1.5084,-1.4827,-1.4222,-1.3876,-1.3796,-1.3776,-1.3631,-1.361,-1.361,-1.3672,-1.3779,-1.3813,-1.3779,-4.4599,-4.3883,-4.3608,-4.3479,-4.3406,-4.291,-4.2671,-4.2564,-4.1632,-4.0815,-4.0089,-3.9089,-3.8192,-3.7415,-3.6559,-3.6084,-3.596,-3.5707,-3.5639,-3.5673,-3.5893,-3.6011,-3.5994,-3.5994,-3.5994,-3.596,-3.574,-3.5639,-3.5639,-3.5639,-3.5639,-3.5639,-3.5639,-3.5639,-3.5639,-3.5605,-3.525,-3.4624,-3.4793,-3.4117,-3.2544,-3.278,-3.2126,-3.0352,-3.0148,-2.9595,-2.8473,-2.8752,-2.8625,-2.7905,-2.6637,-2.5213,-2.3938,-2.3595,-2.3595,-2.3595,-2.3595,-2.3595,-2.3595,-2.3595,-2.3595,-2.3595,-2.3595,-2.3595,-2.3595,-2.3465,-2.3246,-2.3024,-2.3009,-2.2995,-2.261,-2.1873,-2.1223,-2.0552,-1.9881,-1.9048,-1.8262,-1.7774,-1.7392,-1.7138,-1.7015,-1.7021,-1.7213,-1.7339,-1.7809,-1.8384,-1.8431,-1.8538,-1.9181,-1.9005,-1.883,-1.8756,-1.8657,-1.8581,-1.8179,-1.789,-1.7652,-1.7262,-1.6986,-1.6617,-1.6252,-1.5901,-1.5556,-1.4946,-1.4392,-1.4101,-1.3972,-1.3859,-1.3683,-1.3631,-1.3641,-1.3796,-1.4014,-1.4055,-1.4042,-4.4397,-4.3938,-4.3608,-4.3296,-4.302,-4.2488,-4.2121,-4.1742,-4.0815,-4.0113,-3.9476,-3.8549,-3.7614,-3.6913,-3.6251,-3.5844,-3.5622,-3.5639,-3.5639,-3.5639,-3.5639,-3.5639,-3.5639,-3.5639,-3.5639,-3.5639,-3.5639,-3.5639,-3.5639,-3.5639,-3.5639,-3.5639,-3.5639,-3.5639,-3.5639,-3.5605,-3.525,-3.4675,-3.4928,-3.4269,-3.2797,-3.2747,-3.1959,-3.006,-2.9733,-2.915,-2.8152,-2.8532,-2.8468,-2.7629,-2.6509,-2.5228,-2.4088,-2.3759,-2.3595,-2.3595,-2.3595,-2.3595,-2.3595,-2.3595,-2.3595,-2.3595,-2.3595,-2.3595,-2.3595,-2.3595,-2.3421,-2.329,-2.3363,-2.3419,-2.2833,-2.2216,-2.1354,-2.0467,-1.9707,-1.9061,-1.8341,-1.7791,-1.7463,-1.7269,-1.7029,-1.6961,-1.7148,-1.746,-1.7823,-1.8354,-1.8664,-1.8781,-1.9472,-1.9434,-1.9309,-1.9271,-1.9296,-1.9032,-1.8618,-1.8405,-1.8267,-1.7877,-1.7476,-1.6987,-1.6569,-1.6315,-1.5998,-1.4941,-1.4213,-1.4084,-1.4003,-1.3796,-1.3631,-1.3652,-1.3776,-1.3734,-1.39,-1.4299,-1.432,-4.458,-4.4525,-4.3754,-4.2983,-4.2378,-4.2213,-4.1717,-4.1027,-4.0466,-3.982,-3.9138,-3.8485,-3.7629,-3.676,-3.6343,-3.6028,-3.5667,-3.5639,-3.5639,-3.5639,-3.5639,-3.5639,-3.5639,-3.5639,-3.5639,-3.5639,-3.5639,-3.5639,-3.5639,-3.5639,-3.5639,-3.5639,-3.5639,-3.5639,-3.5639,-3.5639,-3.525,-3.4607,-3.4539,-3.3812,-3.2415,-3.2347,-3.155,-2.9853,-2.9995,-2.9556,-2.8432,-2.8092,-2.775,-2.7289,-2.6096,-2.5136,-2.4537,-2.3939,-2.3595,-2.3595,-2.3595,-2.3595,-2.3595,-2.3595,-2.3595,-2.3595,-2.3595,-2.3595,-2.3595,-2.3595,-2.3551,-2.3508,-2.3551,-2.3355,-2.285,-2.2476,-2.172,-2.0359,-1.93,-1.8738,-1.8572,-1.8067,-1.7707,-1.7491,-1.7104,-1.687,-1.7289,-1.7685,-1.8012,-1.8216,-1.8868,-1.9095,-1.912,-1.9196,-1.9623,-1.9648,-1.9522,-1.9484,-1.9083,-1.9032,-1.8869,-1.8493,-1.8094,-1.7671,-1.6918,-1.6592,-1.6322,-1.5268,-1.4383,-1.425,-1.4169,-1.4128,-1.4097,-1.4231,-1.4128,-1.3796,-1.3931,-1.4426,-1.4633,-4.3277,-4.3699,-4.2947,-4.2488,-4.2213,-4.168,-4.0965,-4.0175,-3.9456,-3.897,-3.8445,-3.8185,-3.7552,-3.6638,-3.6433,-3.6114,-3.5739,-3.5622,-3.5639,-3.5639,-3.5639,-3.5639,-3.5639,-3.5639,-3.5639,-3.5639,-3.5639,-3.5639,-3.5639,-3.5639,-3.5639,-3.5639,-3.5639,-3.5639,-3.5639,-3.5639,-3.5216,-3.459,-3.4489,-3.3761,-3.2568,-3.2313,-3.164,-3.0476,-3.0208,-2.9805,-2.9012,-2.8467,-2.721,-2.5666,-2.5167,-2.4567,-2.4014,-2.3729,-2.3595,-2.3595,-2.3595,-2.3595,-2.3595,-2.3595,-2.3595,-2.3595,-2.3595,-2.3595,-2.3595,-2.3595,-2.3595,-2.3595,-2.358,-2.334,-2.2798,-2.2248,-2.1046,-1.9262,-1.8741,-1.8356,-1.7725,-1.7599,-1.758,-1.7053,-1.6832,-1.6789,-1.6879,-1.7295,-1.7614,-1.7727,-1.8179,-1.8656,-1.8606,-1.897,-1.9371,-1.9422,-1.9397,-1.9597,-1.9648,-1.961,-1.9434,-1.9083,-1.8783,-1.8561,-1.7649,-1.6779,-1.649,-1.5917,-1.5175,-1.4821,-1.4935,-1.4987,-1.4966,-1.4666,-1.4386,-1.4076,-1.4531,-1.5008,-1.4956,-4.2378,-4.247,-4.1992,-4.1589,-4.1258,-4.0781,-4.0139,-3.9423,-3.8927,-3.8546,-3.8285,-3.8219,-3.765,-3.6803,-3.6661,-3.635,-3.5898,-3.5871,-3.5915,-3.5888,-3.5711,-3.5622,-3.5639,-3.5639,-3.5639,-3.5639,-3.5639,-3.5639,-3.5639,-3.5639,-3.5639,-3.5639,-3.5639,-3.5639,-3.5639,-3.5605,-3.5233,-3.4624,-3.4438,-3.3761,-3.2432,-3.2313,-3.1549,-3.0684,-3.0335,-3.0041,-2.8949,-2.8015,-2.6864,-2.577,-2.5242,-2.4732,-2.4088,-2.3729,-2.361,-2.3595,-2.3595,-2.3595,-2.3595,-2.3595,-2.3595,-2.3595,-2.3595,-2.3595,-2.3595,-2.3595,-2.3595,-2.3595,-2.3595,-2.3281,-2.2685,-2.1768,-2.0309,-1.8838,-1.8552,-1.8215,-1.7268,-1.7511,-1.7435,-1.7093,-1.6784,-1.662,-1.6534,-1.7024,-1.7162,-1.7262,-1.779,-1.7953,-1.8003,-1.8581,-1.9058,-1.9171,-1.9409,-1.966,-1.9723,-1.9698,-1.9547,-1.9246,-1.9132,-1.9017,-1.8223,-1.7139,-1.6686,-1.6339,-1.5781,-1.5432,-1.5421,-1.5287,-1.4914,-1.4635,-1.4449,-1.4376,-1.4624,-1.4831,-1.4852,-4.1754,-4.1111,-4.1038,-4.0579,-4.001,-3.9882,-3.9515,-3.8836,-3.8726,-3.8627,-3.8528,-3.8415,-3.7877,-3.7097,-3.7055,-3.6759,-3.6284,-3.6241,-3.6216,-3.6045,-3.58,-3.5639,-3.5639,-3.5639,-3.5639,-3.5639,-3.5639,-3.5639,-3.5639,-3.5639,-3.5639,-3.5639,-3.5639,-3.5537,-3.5402,-3.5419,-3.5081,-3.4387,-3.4049,-3.3457,-3.2466,-3.2104,-3.1456,-3.0692,-3.0535,-2.9852,-2.8532,-2.7487,-2.6778,-2.6587,-2.5899,-2.5136,-2.4492,-2.3969,-2.364,-2.3595,-2.3595,-2.3595,-2.3595,-2.3595,-2.3595,-2.3595,-2.3595,-2.3595,-2.3595,-2.3595,-2.3595,-2.3595,-2.3595,-2.3238,-2.2446,-2.1197,-1.9935,-1.8782,-1.8546,-1.8137,-1.7791,-1.7568,-1.7543,-1.7383,-1.6873,-1.6584,-1.6722,-1.6923,-1.7137,-1.7162,-1.7589,-1.7777,-1.8016,-1.8568,-1.892,-1.9058,-1.9384,-1.9761,-1.9761,-1.971,-1.9522,-1.9283,-1.9304,-1.9147,-1.8514,-1.7647,-1.702,-1.6515,-1.6277,-1.5899,-1.5515,-1.5256,-1.4966,-1.4728,-1.4635,-1.4283,-1.4045,-1.4221,-1.4293,-4.1277,-4.1056,-4.0414,-4.0047,-3.99,-3.9863,-3.9423,-3.8726,-3.8707,-3.8658,-3.8627,-3.8465,-3.8099,-3.7649,-3.7487,-3.7111,-3.6422,-3.6357,-3.6199,-3.5756,-3.5667,-3.5622,-3.5588,-3.5537,-3.5588,-3.5605,-3.5622,-3.5605,-3.5605,-3.5487,-3.5605,-3.5537,-3.5368,-3.5318,-3.4793,-3.4709,-3.437,-3.366,-3.3102,-3.2713,-3.2273,-3.1715,-3.1314,-3.0878,-3.0559,-2.974,-2.8716,-2.8199,-2.7618,-2.6597,-2.5585,-2.491,-2.4582,-2.3984,-2.3625,-2.3595,-2.3595,-2.3595,-2.3595,-2.3595,-2.3595,-2.3595,-2.3595,-2.3595,-2.3595,-2.3595,-2.3595,-2.3595,-2.358,-2.3096,-2.2077,-2.0912,-1.9853,-1.8998,-1.828,-1.7923,-1.7911,-1.7685,-1.7446,-1.7345,-1.6974,-1.6697,-1.7099,-1.6886,-1.7024,-1.7162,-1.7426,-1.7702,-1.8129,-1.8593,-1.8844,-1.9045,-1.9434,-1.9786,-1.9761,-1.9673,-1.9434,-1.9359,-1.9393,-1.9275,-1.8654,-1.8201,-1.7622,-1.7235,-1.6983,-1.6469,-1.5745,-1.5659,-1.5452,-1.5152,-1.4821,-1.4562,-1.4314,-1.4138,-1.4045,-4.0671,-3.9955,-3.9515,-3.9331,-3.9331,-3.9331,-3.9093,-3.8762,-3.8707,-3.8658,-3.8609,-3.8478,-3.8034,-3.7356,-3.7576,-3.7254,-3.6594,-3.6544,-3.6184,-3.554,-3.5213,-3.5081,-3.4979,-3.4844,-3.4827,-3.5385,-3.5216,-3.5115,-3.503,-3.4776,-3.4506,-3.459,-3.4607,-3.4336,-3.4049,-3.3964,-3.3575,-3.2983,-3.2493,-3.2138,-3.1732,-3.1427,-3.1151,-3.0918,-3.0293,-2.9435,-2.8872,-2.8304,-2.7746,-2.6984,-2.6078,-2.5164,-2.4567,-2.3984,-2.364,-2.3595,-2.3595,-2.3595,-2.3595,-2.3595,-2.3595,-2.3595,-2.3595,-2.3595,-2.3595,-2.3595,-2.3595,-2.361,-2.3508,-2.3054,-2.1906,-2.1117,-2.0216,-1.9198,-1.8392,-1.8055,-1.8088,-1.7727,-1.7513,-1.7626,-1.7564,-1.7539,-1.7526,-1.7313,-1.74,-1.7765,-1.779,-1.8041,-1.8166,-1.8593,-1.8869,-1.9145,-1.9522,-1.9761,-1.9748,-1.961,-1.9346,-1.9346,-1.9459,-1.927,-1.8869,-1.8534,-1.8221,-1.7731,-1.7147,-1.6541,-1.5932,-1.5953,-1.5742,-1.5287,-1.4956,-1.4852,-1.4645,-1.4324,-1.4252,-4.0175,-3.8707,-3.8707,-3.8707,-3.8707,-3.8726,-3.8726,-3.8707,-3.8707,-3.8658,-3.8504,-3.8418,-3.7699,-3.7076,-3.7208,-3.698,-3.631,-3.6001,-3.5445,-3.4819,-3.4465,-3.4336,-3.4218,-3.3981,-3.4083,-3.5115,-3.4624,-3.4353,-3.4167,-3.3778,-3.3711,-3.3491,-3.3457,-3.3457,-3.3322,-3.3203,-3.2865,-3.2205,-3.2053,-3.1799,-3.1376,-3.1185,-3.1055,-3.0675,-3.0081,-2.9345,-2.8888,-2.8304,-2.773,-2.758,-2.6931,-2.5989,-2.4986,-2.4163,-2.3655,-2.364,-2.3595,-2.3595,-2.3595,-2.3595,-2.3595,-2.3595,-2.3595,-2.3595,-2.3595,-2.3551,-2.3566,-2.3566,-2.3436,-2.3024,-2.2021,-2.1416,-2.0617,-1.9642,-1.8933,-1.85,-1.8377,-1.7978,-1.8003,-1.8179,-1.8091,-1.8003,-1.8116,-1.8078,-1.8204,-1.8304,-1.8329,-1.8392,-1.8543,-1.8706,-1.9058,-1.9271,-1.9635,-1.956,-1.9497,-1.971,-1.9422,-1.9208,-1.9371,-1.9258,-1.9008,-1.8766,-1.8394,-1.7699,-1.7092,-1.6507,-1.6133,-1.5949,-1.5711,-1.5297,-1.508,-1.4976,-1.4738,-1.4459,-1.4542,-4.0175,-3.8707,-3.8707,-3.8689,-3.8689,-3.8689,-3.8615,-3.8707,-3.8579,-3.8689,-3.8511,-3.7863,-3.7449,-3.7113,-3.6535,-3.5919,-3.5226,-3.4762,-3.4148,-3.3802,-3.3634,-3.3575,-3.3525,-3.3288,-3.3491,-3.366,-3.3558,-3.3491,-3.3558,-3.3457,-3.3136,-3.3305,-3.3271,-3.3034,-3.2577,-3.2425,-3.2154,-3.163,-3.1512,-3.1343,-3.1258,-3.1112,-3.0895,-3.0526,-3.007,-2.9512,-2.8826,-2.8463,-2.814,-2.76,-2.698,-2.6228,-2.545,-2.4762,-2.4223,-2.3729,-2.3595,-2.3595,-2.3595,-2.3595,-2.3595,-2.3595,-2.3595,-2.3595,-2.3595,-2.3523,-2.3494,-2.3494,-2.3363,-2.2994,-2.2328,-2.182,-2.122,-2.0358,-1.9607,-1.9082,-1.9233,-1.9032,-1.8694,-1.8832,-1.8606,-1.8417,-1.8618,-1.8731,-1.8731,-1.8807,-1.8882,-1.9032,-1.9233,-1.9321,-1.9484,-1.9623,-1.9748,-1.9484,-1.9158,-1.9522,-1.956,-1.9133,-1.9133,-1.9256,-1.9066,-1.8927,-1.8519,-1.8027,-1.7379,-1.6824,-1.6493,-1.6165,-1.5898,-1.5639,-1.538,-1.5132,-1.4997,-1.4894,-1.4997,-3.8542,-3.7477,-3.7459,-3.7459,-3.7459,-3.7477,-3.7459,-3.7459,-3.7459,-3.7459,-3.7331,-3.6989,-3.652,-3.6245,-3.6079,-3.5415,-3.4531,-3.409,-3.3458,-3.3015,-3.2831,-3.2814,-3.2747,-3.2493,-3.256,-3.2594,-3.2493,-3.2544,-3.273,-3.2391,-3.2357,-3.2239,-3.2273,-3.2053,-3.1816,-3.1698,-3.1546,-3.1224,-3.119,-3.119,-3.119,-3.1112,-3.0895,-3.0692,-3.0113,-2.9512,-2.9058,-2.8238,-2.791,-2.7615,-2.731,-2.6572,-2.5824,-2.5255,-2.4672,-2.3834,-2.3595,-2.3595,-2.3595,-2.3595,-2.3595,-2.3595,-2.3566,-2.3523,-2.3538,-2.3451,-2.3378,-2.3349,-2.3319,-2.2994,-2.2296,-2.2049,-2.1513,-2.0756,-2.0051,-1.9813,-1.9762,-1.9522,-1.9434,-1.9371,-1.9221,-1.9145,-1.9284,-1.9321,-1.9246,-1.9296,-1.9397,-1.9547,-1.9748,-1.9635,-1.9547,-1.9698,-1.9736,-1.966,-1.9384,-1.9535,-1.9723,-1.9334,-1.9096,-1.9219,-1.9214,-1.9141,-1.8939,-1.8643,-1.7995,-1.7268,-1.6652,-1.6285,-1.6161,-1.6022,-1.5887,-1.5711,-1.5484,-1.539,-1.5463,-3.7048,-3.6285,-3.6285,-3.6285,-3.6285,-3.6303,-3.6321,-3.6285,-3.634,-3.6395,-3.6266,-3.6101,-3.5679,-3.519,-3.5006,-3.4697,-3.3962,-3.3723,-3.2973,-3.2252,-3.207,-3.2053,-3.1884,-3.1647,-3.1579,-3.1935,-3.1681,-3.1495,-3.1867,-3.163,-3.1292,-3.1376,-3.1258,-3.119,-3.1241,-3.1309,-3.119,-3.1151,-3.119,-3.119,-3.1151,-3.1168,-3.1112,-3.1072,-3.0123,-2.9601,-2.9196,-2.8543,-2.7959,-2.771,-2.741,-2.6961,-2.5869,-2.56,-2.4971,-2.3879,-2.361,-2.3595,-2.3595,-2.3595,-2.3595,-2.3595,-2.3523,-2.3538,-2.3466,-2.3378,-2.3201,-2.3127,-2.3112,-2.3008,-2.2509,-2.2203,-2.1657,-2.1028,-2.0547,-2.0308,-1.994,-1.9736,-1.971,-1.9698,-1.9736,-1.9673,-1.9597,-1.9648,-1.9522,-1.9522,-1.9597,-1.9397,-1.9535,-1.9309,-1.9271,-1.9522,-1.966,-1.9773,-1.9698,-1.966,-1.9773,-1.9635,-1.9522,-1.9545,-1.9465,-1.9384,-1.9133,-1.8869,-1.8417,-1.771,-1.7078,-1.6591,-1.6578,-1.6546,-1.6492,-1.6296,-1.5939,-1.5804,-1.5835,-3.7077,-3.6285,-3.6266,-3.6285,-3.6229,-3.6193,-3.6248,-3.6211,-3.6138,-3.6285,-3.6028,-3.5514,-3.5064,-3.4702,-3.3816,-3.3234,-3.272,-3.2347,-3.197,-3.1501,-3.1444,-3.1444,-3.136,-3.1275,-3.1241,-3.1461,-3.1292,-3.1224,-3.1376,-3.1292,-3.1207,-3.119,-3.119,-3.119,-3.119,-3.119,-3.1151,-3.1072,-3.1151,-3.1112,-3.1009,-3.0969,-3.0831,-3.0651,-3.0368,-2.9924,-2.9348,-2.8842,-2.8415,-2.7695,-2.7595,-2.6901,-2.5869,-2.56,-2.4866,-2.4044,-2.3595,-2.3595,-2.3595,-2.3595,-2.3595,-2.361,-2.3566,-2.3581,-2.3422,-2.3246,-2.3068,-2.2947,-2.2978,-2.2933,-2.2646,-2.2049,-2.1561,-2.1077,-2.0646,-2.0207,-1.985,-1.9798,-1.9798,-1.9723,-1.9673,-1.9648,-1.9597,-1.971,-1.9786,-1.9798,-1.9748,-1.9547,-1.9409,-1.9271,-1.8995,-1.9233,-1.9623,-1.9773,-1.9747,-1.9747,-1.9798,-1.9798,-1.9747,-1.9747,-1.9656,-1.95,-1.9251,-1.8922,-1.8578,-1.8405,-1.7984,-1.7611,-1.7257,-1.7,-1.6853,-1.6591,-1.6332,-1.6249,-1.609,-3.5294,-3.489,-3.489,-3.489,-3.489,-3.4871,-3.4871,-3.489,-3.4871,-3.4871,-3.4835,-3.4523,-3.4136,-3.3755,-3.3046,-3.2555,-3.1985,-3.1674,-3.1389,-3.123,-3.119,-3.119,-3.1207,-3.119,-3.119,-3.119,-3.119,-3.119,-3.119,-3.119,-3.119,-3.119,-3.119,-3.119,-3.119,-3.119,-3.1112,-3.1055,-3.1032,-3.0992,-3.0912,-3.0912,-3.0814,-3.0675,-3.0393,-2.9995,-2.9585,-2.8873,-2.8543,-2.7853,-2.7508,-2.6602,-2.5749,-2.5226,-2.4567,-2.3774,-2.3595,-2.3595,-2.3595,-2.3595,-2.3566,-2.3581,-2.3538,-2.3451,-2.329,-2.3171,-2.3037,-2.2888,-2.2888,-2.2888,-2.2888,-2.2495,-2.1969,-2.1479,-2.0881,-2.0346,-2.0003,-1.985,-1.9786,-1.9698,-1.961,-1.9572,-1.951,-1.9434,-1.9522,-1.9597,-1.9648,-1.9623,-1.9585,-1.9597,-1.9271,-1.8909,-1.9345,-1.9798,-1.9708,-1.9656,-1.9759,-1.9759,-1.9708,-1.9708,-1.9708,-1.9552,-1.9291,-1.9251,-1.9174,-1.9016,-1.8845,-1.8363,-1.7765,-1.7446,-1.7123,-1.6853,-1.6591,-1.6134,-1.5995,-3.3947,-3.3842,-3.3815,-3.3807,-3.3807,-3.3807,-3.3844,-3.3825,-3.388,-3.3844,-3.3807,-3.3825,-3.3541,-3.3105,-3.2925,-3.2537,-3.1802,-3.1579,-3.1351,-3.1252,-3.119,-3.119,-3.119,-3.119,-3.119,-3.119,-3.119,-3.119,-3.119,-3.119,-3.119,-3.119,-3.1151,-3.1151,-3.1151,-3.1112,-3.1015,-3.0975,-3.0912,-3.0754,-3.0547,-3.0496,-3.0379,-3.0225,-3.003,-2.9809,-2.9534,-2.9057,-2.8543,-2.7808,-2.7179,-2.6273,-2.5405,-2.4896,-2.4388,-2.3774,-2.3595,-2.361,-2.3551,-2.3551,-2.3581,-2.3509,-2.3393,-2.329,-2.3171,-2.3097,-2.3037,-2.2888,-2.2888,-2.2888,-2.2843,-2.2752,-2.231,-2.1813,-2.1403,-2.0782,-2.0245,-2.0093,-1.9876,-1.9685,-1.9597,-1.9484,-1.9371,-1.9171,-1.9196,-1.9346,-1.9484,-1.9559,-1.9597,-1.9622,-1.9295,-1.8834,-1.9193,-1.9631,-1.9604,-1.9565,-1.9656,-1.9656,-1.9604,-1.9617,-1.9604,-1.9565,-1.9356,-1.9408,-1.9512,-1.9356,-1.904,-1.8655,-1.8267,-1.805,-1.7722,-1.719,-1.6807,-1.6306,-1.5914,-3.4049,-3.3991,-3.3842,-3.3807,-3.3807,-3.3807,-3.3807,-3.3807,-3.3844,-3.388,-3.3935,-3.3807,-3.3734,-3.3578,-3.3202,-3.2844,-3.2401,-3.202,-3.1637,-3.1312,-3.119,-3.119,-3.119,-3.119,-3.119,-3.119,-3.119,-3.119,-3.119,-3.119,-3.119,-3.119,-3.1112,-3.1055,-3.1015,-3.1032,-3.0992,-3.0912,-3.0773,-3.0416,-3.0066,-2.9759,-2.9509,-2.9048,-2.9145,-2.9239,-2.8822,-2.8777,-2.8295,-2.7411,-2.6713,-2.5929,-2.5031,-2.4567,-2.4045,-2.3716,-2.3566,-2.3538,-2.3523,-2.3566,-2.3581,-2.3466,-2.329,-2.3171,-2.3097,-2.2992,-2.2933,-2.2902,-2.2888,-2.2888,-2.2797,-2.2569,-2.2356,-2.2016,-2.1623,-2.1042,-2.0547,-2.0346,-2.0118,-1.9788,-1.9597,-1.9497,-1.9321,-1.9133,-1.9108,-1.9271,-1.9282,-1.9419,-1.9256,-1.9231,-1.9018,-1.8869,-1.9138,-1.9411,-1.946,-1.946,-1.9512,-1.9565,-1.9512,-1.946,-1.946,-1.9368,-1.9316,-1.9263,-1.9316,-1.9275,-1.9223,-1.8934,-1.8709,-1.859,-1.8267,-1.7567,-1.6909,-1.6285,-1.6009,-3.4049,-3.3998,-3.3895,-3.3868,-3.3842,-3.3815,-3.3807,-3.3899,-3.4321,-3.4559,-3.4468,-3.4045,-3.368,-3.3484,-3.3262,-3.2925,-3.2519,-3.202,-3.1694,-3.1487,-3.1312,-3.123,-3.119,-3.119,-3.119,-3.119,-3.119,-3.119,-3.119,-3.119,-3.119,-3.1151,-3.1095,-3.1151,-3.1112,-3.0952,-3.0912,-3.0831,-3.0692,-3.0352,-3.017,-2.9679,-2.9324,-2.9118,-2.8655,-2.8573,-2.8192,-2.8136,-2.7573,-2.6853,-2.6123,-2.5304,-2.4612,-2.4149,-2.3763,-2.348,-2.3451,-2.3407,-2.3407,-2.3451,-2.3494,-2.3363,-2.3201,-2.3097,-2.3097,-2.3037,-2.2992,-2.2947,-2.2888,-2.2888,-2.2843,-2.2752,-2.2555,-2.217,-2.1779,-2.1286,-2.0894,-2.0696,-2.0295,-1.9978,-1.9686,-1.9535,-1.9334,-1.912,-1.9158,-1.9158,-1.9219,-1.9191,-1.9129,-1.9054,-1.8927,-1.8863,-1.9157,-1.9267,-1.9316,-1.9368,-1.942,-1.942,-1.942,-1.9368,-1.9368,-1.9275,-1.9223,-1.917,-1.9117,-1.917,-1.9223,-1.9263,-1.9093,-1.8827,-1.8321,-1.771,-1.7056,-1.6332,-1.6056,-3.408,-3.4049,-3.3979,-3.3921,-3.3868,-3.3834,-3.3807,-3.3899,-3.4357,-3.4669,-3.4596,-3.4,-3.3662,-3.3437,-3.3232,-3.2908,-3.2519,-3.2074,-3.1768,-3.1487,-3.1291,-3.119,-3.119,-3.119,-3.119,-3.119,-3.119,-3.119,-3.119,-3.119,-3.119,-3.119,-3.1134,-3.1112,-3.1032,-3.0912,-3.079,-3.0733,-3.0609,-3.0162,-2.988,-2.9367,-2.8605,-2.8456,-2.8058,-2.7982,-2.7662,-2.7542,-2.7084,-2.6302,-2.5509,-2.4791,-2.4209,-2.3777,-2.3408,-2.3319,-2.3319,-2.3275,-2.329,-2.329,-2.3334,-2.3246,-2.3127,-2.3037,-2.3037,-2.3037,-2.2992,-2.2933,-2.2888,-2.2888,-2.2888,-2.2843,-2.2737,-2.2463,-2.231,-2.1908,-2.1382,-2.1042,-2.0597,-2.0181,-1.9902,-1.9597,-1.9432,-1.9245,-1.907,-1.9082,-1.8995,-1.9117,-1.9233,-1.9169,-1.9129,-1.9077,-1.915,-1.9146,-1.917,-1.9263,-1.9316,-1.9328,-1.9328,-1.9328,-1.9275,-1.9223,-1.917,-1.9105,-1.9105,-1.9117,-1.9105,-1.9105,-1.9052,-1.8893,-1.8278,-1.749,-1.6922,-1.6265,-1.5921,-3.4197,-3.4197,-3.4105,-3.3935,-3.3815,-3.3807,-3.3807,-3.3807,-3.3899,-3.399,-3.4064,-3.3862,-3.3788,-3.368,-3.3426,-3.3063,-3.2601,-3.2162,-3.175,-3.1428,-3.1252,-3.119,-3.119,-3.119,-3.119,-3.119,-3.119,-3.119,-3.119,-3.119,-3.119,-3.1151,-3.1095,-3.0975,-3.0912,-3.0651,-3.0526,-3.0526,-3.0526,-2.9847,-2.9069,-2.8688,-2.7976,-2.7313,-2.7181,-2.7259,-2.7044,-2.7041,-2.6589,-2.5869,-2.5155,-2.4472,-2.3848,-2.3613,-2.3422,-2.3378,-2.3319,-2.3187,-2.3127,-2.3127,-2.3127,-2.3127,-2.2992,-2.2933,-2.2933,-2.2888,-2.2947,-2.2888,-2.2888,-2.2888,-2.2888,-2.2888,-2.2843,-2.2737,-2.2586,-2.231,-2.1779,-2.1334,-2.0845,-2.0409,-2.0055,-1.9747,-1.9552,-1.9362,-1.9115,-1.8943,-1.8834,-1.8918,-1.9165,-1.917,-1.9158,-1.9158,-1.9105,-1.9105,-1.9105,-1.9158,-1.917,-1.9182,-1.9235,-1.917,-1.917,-1.9117,-1.9052,-1.8999,-1.9052,-1.9052,-1.9052,-1.8999,-1.8721,-1.8333,-1.782,-1.7146,-1.6641,-1.6187,-1.5911,-3.4173,-3.4093,-3.3531,-3.3543,-3.3884,-3.3887,-3.3842,-3.3807,-3.3844,-3.4082,-3.4412,-3.41,-3.378,-3.3698,-3.3504,-3.3196,-3.2763,-3.2368,-3.1932,-3.149,-3.124,-3.123,-3.1173,-3.1106,-3.1157,-3.119,-3.119,-3.119,-3.119,-3.119,-3.119,-3.1151,-3.0965,-3.0952,-3.0871,-3.0733,-3.0651,-3.0609,-3.0485,-3.0046,-2.9118,-2.8539,-2.786,-2.6866,-2.6717,-2.6545,-2.6327,-2.6416,-2.6069,-2.5433,-2.4744,-2.4322,-2.3797,-2.3538,-2.3201,-2.3142,-2.3053,-2.3023,-2.2992,-2.2947,-2.2947,-2.2933,-2.2933,-2.2888,-2.2888,-2.2888,-2.2888,-2.2888,-2.2888,-2.2888,-2.2888,-2.2888,-2.2843,-2.2783,-2.2601,-2.237,-2.1935,-2.1527,-2.1126,-2.0709,-2.0321,-1.9811,-1.9512,-1.9368,-1.912,-1.9019,-1.8912,-1.8924,-1.9069,-1.9105,-1.9052,-1.9052,-1.904,-1.904,-1.9052,-1.9105,-1.9105,-1.9117,-1.9117,-1.9052,-1.9052,-1.9052,-1.9052,-1.8987,-1.8987,-1.8987,-1.8934,-1.8709,-1.8147,-1.7644,-1.7202,-1.681,-1.6358,-1.614,-1.6036,-3.3746,-3.3629,-3.2868,-3.2784,-3.3192,-3.3412,-3.3489,-3.3411,-3.3385,-3.3568,-3.3623,-3.3403,-3.3138,-3.3012,-3.3095,-3.2864,-3.2438,-3.2398,-3.1619,-3.1273,-3.0938,-3.0789,-3.0768,-3.0869,-3.0937,-3.1055,-3.1173,-3.119,-3.119,-3.119,-3.1151,-3.1004,-3.07,-3.0436,-3.0366,-3.0401,-3.0427,-3.0253,-2.9947,-2.9499,-2.8704,-2.8092,-2.7595,-2.6932,-2.6482,-2.6129,-2.5881,-2.5663,-2.5513,-2.4997,-2.4542,-2.4173,-2.3724,-2.3392,-2.2965,-2.276,-2.2614,-2.2599,-2.2585,-2.2859,-2.2859,-2.2888,-2.2888,-2.2888,-2.2888,-2.2888,-2.2888,-2.2888,-2.2888,-2.2888,-2.2888,-2.2888,-2.2843,-2.2783,-2.2692,-2.2463,-2.2217,-2.1813,-2.1224,-2.0809,-2.0169,-1.9772,-1.946,-1.9303,-1.915,-1.9056,-1.9016,-1.904,-1.8987,-1.8987,-1.8987,-1.8987,-1.8987,-1.8987,-1.8987,-1.9052,-1.9052,-1.8987,-1.8987,-1.8987,-1.8999,-1.9052,-1.8999,-1.8987,-1.8987,-1.8934,-1.8762,-1.8483,-1.7875,-1.7257,-1.6698,-1.6358,-1.6083,-1.6026,-1.5979,-3.2971,-3.2841,-3.2098,-3.1778,-3.1876,-3.2416,-3.2637,-3.2654,-3.2603,-3.2173,-3.1549,-3.2375,-3.2258,-3.1744,-3.2161,-3.2014,-3.1497,-3.1872,-3.1167,-3.0438,-3.0112,-3.0074,-3.0108,-3.0209,-3.0429,-3.0852,-3.1106,-3.1123,-3.114,-3.0931,-3.0853,-3.065,-3.0034,-2.9715,-2.9679,-2.9805,-2.9864,-2.9682,-2.9423,-2.887,-2.818,-2.7545,-2.7028,-2.6495,-2.6165,-2.6079,-2.5864,-2.5497,-2.5214,-2.4704,-2.4188,-2.3739,-2.3466,-2.3246,-2.2761,-2.2396,-2.2193,-2.2004,-2.2323,-2.2714,-2.2815,-2.2859,-2.2888,-2.2888,-2.2888,-2.2888,-2.2888,-2.2888,-2.2888,-2.2888,-2.2888,-2.2888,-2.2888,-2.2888,-2.2888,-2.2646,-2.2463,-2.1969,-2.1286,-2.066,-1.9914,-1.946,-1.9263,-1.9105,-1.9158,-1.904,-1.904,-1.904,-1.8987,-1.8987,-1.8987,-1.8987,-1.8987,-1.8987,-1.8987,-1.8987,-1.8987,-1.8987,-1.8987,-1.8987,-1.8987,-1.8987,-1.8987,-1.8987,-1.8987,-1.8881,-1.8815,-1.8321,-1.7655,-1.7045,-1.6797,-1.6151,-1.5931,-1.5979,-1.5921,-3.2135,-3.2061,-3.1262,-3.1244,-3.1685,-3.1298,-3.1347,-3.1746,-3.1733,-3.1549,-3.1403,-3.1623,-3.1506,-3.1382,-3.1506,-3.1088,-3.0764,-3.0492,-3.0058,-2.9604,-2.935,-2.9296,-2.9465,-2.9702,-2.9837,-3.0091,-3.0463,-3.0801,-3.048,-3.0357,-3.0241,-3.0007,-2.9271,-2.8888,-2.8793,-2.8887,-2.9052,-2.9135,-2.8876,-2.8362,-2.7864,-2.7433,-2.6722,-2.6118,-2.6079,-2.6043,-2.5701,-2.5481,-2.5237,-2.5082,-2.4379,-2.3909,-2.3767,-2.3363,-2.2892,-2.2643,-2.2062,-2.1598,-2.2396,-2.2425,-2.2454,-2.2757,-2.2859,-2.2888,-2.2888,-2.2888,-2.2888,-2.2888,-2.2888,-2.2888,-2.2888,-2.2888,-2.2843,-2.2843,-2.2843,-2.2737,-2.2463,-2.1983,-2.1299,-2.0396,-1.9656,-1.9368,-1.9158,-1.9158,-1.9146,-1.904,-1.8987,-1.8987,-1.8987,-1.8987,-1.8987,-1.8987,-1.8987,-1.8987,-1.8987,-1.8987,-1.8987,-1.8987,-1.8987,-1.8987,-1.8934,-1.8934,-1.8987,-1.8934,-1.8881,-1.8881,-1.8934,-1.8387,-1.7776,-1.7634,-1.7322,-1.6545,-1.5894,-1.5816,-1.5748,-3.134,-3.125,-3.0466,-3.0389,-3.0661,-3.0206,-3.0189,-3.0562,-3.0785,-3.0779,-3.0522,-3.0779,-3.0736,-3.0393,-3.0549,-3.0442,-2.9947,-3.0043,-2.9655,-2.8905,-2.8589,-2.8518,-2.8755,-2.8991,-2.9076,-2.933,-2.9651,-2.9973,-2.9715,-2.9538,-2.9446,-2.9281,-2.8498,-2.8139,-2.7914,-2.7765,-2.7931,-2.8163,-2.818,-2.7864,-2.7533,-2.7147,-2.6438,-2.5983,-2.6046,-2.5868,-2.5545,-2.54,-2.5189,-2.4973,-2.4214,-2.3739,-2.3372,-2.279,-2.2017,-2.1627,-2.1162,-2.0973,-2.1425,-2.1975,-2.2193,-2.2512,-2.2757,-2.2873,-2.2888,-2.2888,-2.2888,-2.2888,-2.2888,-2.2902,-2.2843,-2.2843,-2.2783,-2.2783,-2.2737,-2.2737,-2.2356,-2.1888,-2.1091,-2.0194,-1.9656,-1.9368,-1.921,-1.9198,-1.9146,-1.904,-1.8987,-1.8987,-1.8987,-1.8987,-1.8987,-1.8987,-1.8987,-1.8987,-1.8987,-1.8987,-1.8987,-1.8987,-1.8987,-1.8987,-1.8934,-1.8827,-1.8786,-1.8774,-1.8721,-1.8721,-1.8774,-1.8548,-1.8061,-1.7867,-1.7411,-1.6555,-1.5836,-1.5594,-1.5526,-3.0511,-3.0397,-2.9576,-2.9105,-2.9116,-2.9135,-2.9129,-2.9086,-2.9651,-2.9659,-2.9292,-2.9787,-2.9769,-2.9502,-2.9716,-2.9689,-2.9408,-2.9377,-2.8952,-2.8215,-2.7862,-2.774,-2.7757,-2.7806,-2.8247,-2.8653,-2.9042,-2.9347,-2.9056,-2.8848,-2.8652,-2.8544,-2.7731,-2.7254,-2.7188,-2.6823,-2.6955,-2.7288,-2.73,-2.7101,-2.6684,-2.6369,-2.6134,-2.5999,-2.595,-2.5862,-2.5436,-2.5045,-2.4571,-2.4112,-2.3583,-2.3039,-2.2483,-2.1741,-2.0857,-2.048,-2.0277,-2.0407,-2.0814,-2.1394,-2.183,-2.2193,-2.2511,-2.2786,-2.2888,-2.2888,-2.2888,-2.2843,-2.2857,-2.2843,-2.2797,-2.2737,-2.2737,-2.2692,-2.2692,-2.2509,-2.2184,-2.1541,-2.066,-1.9901,-1.9656,-1.9368,-1.9146,-1.9146,-1.9251,-1.9093,-1.8987,-1.8987,-1.8999,-1.8999,-1.8987,-1.8987,-1.8987,-1.8987,-1.8987,-1.8987,-1.8987,-1.8987,-1.8987,-1.8881,-1.8774,-1.8679,-1.8572,-1.8518,-1.841,-1.8452,-1.8452,-1.8224,-1.7975,-1.7668,-1.7119,-1.6374,-1.5836,-1.5478,-1.5362,-2.8836,-2.8723,-2.7865,-2.7473,-2.7583,-2.8075,-2.7943,-2.7405,-2.8051,-2.8654,-2.9026,-2.9187,-2.9232,-2.9122,-2.9095,-2.9007,-2.8685,-2.857,-2.7971,-2.7471,-2.7079,-2.6877,-2.7063,-2.73,-2.752,-2.7706,-2.8146,-2.8687,-2.8465,-2.8154,-2.7794,-2.769,-2.6878,-2.6407,-2.6426,-2.6042,-2.6208,-2.6358,-2.6338,-2.6501,-2.6568,-2.6201,-2.5914,-2.5415,-2.5097,-2.4697,-2.418,-2.3507,-2.3086,-2.2655,-2.2073,-2.1703,-2.1451,-2.0727,-2.0567,-2.0553,-1.9914,-1.9943,-2.0422,-2.0988,-2.1409,-2.2004,-2.2439,-2.2714,-2.2888,-2.2888,-2.2888,-2.2843,-2.2797,-2.2797,-2.2737,-2.2692,-2.2646,-2.2601,-2.2601,-2.2278,-2.1949,-2.1104,-2.022,-1.9914,-1.9668,-1.946,-1.9239,-1.9198,-1.9239,-1.9198,-1.904,-1.8999,-1.8946,-1.8946,-1.8881,-1.8934,-1.8987,-1.8987,-1.8987,-1.8987,-1.8987,-1.8881,-1.8827,-1.8721,-1.856,-1.8356,-1.8139,-1.815,-1.8096,-1.8139,-1.8139,-1.7975,-1.7678,-1.7344,-1.7016,-1.6347,-1.572,-1.5303,-1.5294,-2.7755,-2.7662,-2.7177,-2.6935,-2.7065,-2.7729,-2.7559,-2.6982,-2.7567,-2.7929,-2.8113,-2.8323,-2.865,-2.8902,-2.8881,-2.847,-2.8088,-2.7893,-2.7174,-2.6588,-2.6375,-2.5978,-2.6201,-2.6607,-2.6488,-2.659,-2.6928,-2.7265,-2.74,-2.6572,-2.5983,-2.6082,-2.5528,-2.5327,-2.5362,-2.5294,-2.5327,-2.5245,-2.5327,-2.5541,-2.6023,-2.5622,-2.5223,-2.4658,-2.4261,-2.3896,-2.3519,-2.2905,-2.2518,-2.2118,-2.1605,-2.1254,-2.1015,-2.0494,-2.0335,-2.0204,-1.9827,-1.9406,-2.0103,-2.0654,-2.1003,-2.1496,-2.2454,-2.2786,-2.2497,-2.2526,-2.2859,-2.2843,-2.2706,-2.2661,-2.2509,-2.2417,-2.2278,-2.2231,-2.2263,-2.2123,-2.1698,-2.1006,-2.0409,-2.0067,-1.9914,-1.9965,-1.9747,-1.9656,-1.9604,-1.9093,-1.8987,-1.8827,-1.8839,-1.8786,-1.8774,-1.8774,-1.8827,-1.8934,-1.8987,-1.8987,-1.8934,-1.8827,-1.8667,-1.8398,-1.8193,-1.7931,-1.7711,-1.7822,-1.7822,-1.7877,-1.7822,-1.7645,-1.7256,-1.6793,-1.6654,-1.6378,-1.575,-1.5186,-1.5128,-2.6874,-2.6782,-2.671,-2.6674,-2.6805,-2.7436,-2.723,-2.6652,-2.7296,-2.7218,-2.6714,-2.7224,-2.797,-2.859,-2.8581,-2.8205,-2.7792,-2.7371,-2.6551,-2.6306,-2.5853,-2.5683,-2.5539,-2.5558,-2.5812,-2.5728,-2.5729,-2.5663,-2.5629,-2.4977,-2.4595,-2.418,-2.4081,-2.4066,-2.4033,-2.4033,-2.4232,-2.4315,-2.4332,-2.4099,-2.4265,-2.4514,-2.4348,-2.4133,-2.3868,-2.372,-2.3305,-2.2865,-2.2316,-2.1811,-2.1156,-2.0828,-2.0542,-2.0162,-1.9997,-1.9808,-1.9508,-1.9217,-1.9478,-2.0248,-2.0422,-2.0872,-2.2048,-2.2526,-2.2221,-2.2366,-2.2712,-2.2706,-2.2615,-2.2477,-2.2324,-2.2137,-2.1996,-2.1902,-2.1935,-2.1935,-2.1444,-2.1006,-2.066,-2.0271,-2.0271,-2.0258,-2.0118,-2.0016,-1.9604,-1.9093,-1.8774,-1.8614,-1.8506,-1.8464,-1.8398,-1.8506,-1.856,-1.8721,-1.8881,-1.8827,-1.8721,-1.856,-1.8344,-1.8084,-1.7877,-1.7656,-1.7557,-1.7601,-1.7601,-1.7601,-1.7479,-1.7301,-1.6807,-1.642,-1.6087,-1.5876,-1.5566,-1.5069,-1.4951,-2.5801,-2.515,-2.5101,-2.5067,-2.5147,-2.5856,-2.5671,-2.5079,-2.5705,-2.585,-2.5794,-2.5864,-2.6594,-2.797,-2.7145,-2.7045,-2.7711,-2.7018,-2.7201,-2.7324,-2.5868,-2.5572,-2.5433,-2.527,-2.5845,-2.5542,-2.497,-2.4652,-2.4519,-2.4193,-2.403,-2.3947,-2.3917,-2.3966,-2.3998,-2.3933,-2.38,-2.3783,-2.3717,-2.3617,-2.3354,-2.3553,-2.3653,-2.3421,-2.3106,-2.2537,-2.1956,-2.1553,-2.1159,-2.0767,-2.0497,-2.0206,-2.0086,-1.9914,-1.9683,-1.9628,-1.9313,-1.9159,-1.9435,-1.9957,-2.0175,-2.0498,-2.1541,-2.2162,-2.2089,-2.2302,-2.2455,-2.237,-2.2278,-2.2278,-2.2137,-2.1935,-2.1793,-2.1712,-2.1759,-2.165,-2.1361,-2.1055,-2.0809,-2.0573,-2.0422,-2.022,-1.9862,-1.9656,-1.9291,-1.8827,-1.8398,-1.829,-1.8193,-1.8139,-1.8084,-1.8193,-1.8302,-1.8452,-1.8614,-1.8452,-1.8302,-1.8193,-1.803,-1.7822,-1.7612,-1.7445,-1.739,-1.7445,-1.739,-1.7278,-1.7145,-1.7078,-1.657,-1.6171,-1.5652,-1.5303,-1.5128,-1.5069,-1.5069]},{"header":{"parameterUnit":"m.s-1","parameterCategory":1,"la1":31.0,"la2":29.5877,"lo1":-88.7671,"lo2":-86.6584,"dy":0.0162,"dx":0.0185,"nx":115,"ny":88,"refTime":"2023-07-17T06:00:00:Z","depth":0,"parameterNumber":3,"parameterNumberName":"V-component_of_WINDS"},"data":[0.0,0.0,0.0,0.0,0.0,0.0,0.0,0.0,0.0,0.0,0.0,0.0,0.0,0.0,0.0,0.0,0.0,0.0,0.0,0.0,0.0,0.0,0.0,0.0,0.0,0.0,0.0,0.0,0.0,0.0,0.0,0.0,0.0,0.0,0.0,0.0,0.0,0.0,0.0,0.0,0.0,0.0,0.0,0.0,0.0,0.0,0.0,0.0,0.0,0.0,0.0,0.0,0.0,0.0,0.0,0.0,0.0,0.0,0.0,0.0,0.0,0.0,0.0,0.0,0.0,0.0,0.0,0.0,0.0,0.0,0.0,0.0,0.0,0.0,0.0,0.0,0.0,0.0,0.0,0.0,0.0,0.0,0.0,0.0,0.0,0.0,0.0,0.0,0.0,0.0,0.0,0.0,0.0,0.0,0.0,0.0,0.0,0.0,0.0,0.0,0.0,0.0,0.0,0.0,0.0,0.0,0.0,0.0,0.0,0.0,0.0,0.0,0.0,0.0,0.0,0.0,0.0,0.0,0.0,0.0,0.0,0.0,0.0,0.0,0.0,0.0,0.0,0.0,0.0,0.0,0.0,0.0,0.0,0.0,0.0,0.0,0.0,0.0,0.0,0.0,0.0,0.0,0.0,0.0,0.0,0.0,0.0,0.0,0.0,0.0,0.0,0.0,0.0,0.0,0.0,0.0,0.0,0.0,0.0,0.0,0.0,0.0,0.0,0.0,0.0,0.0,0.0,0.0,0.0,0.0,0.0,0.0,0.0,0.0,0.0,0.0,0.0,0.0,0.0,0.0,0.0,0.0,0.0,0.0,0.0,0.0,0.0,0.0,0.0,0.0,0.0,0.0,0.0,0.0,0.0,0.0,0.0,0.0,0.0,0.0,0.0,0.0,0.0,0.0,0.0,0.0,0.0,0.0,0.0,0.0,0.0,0.0,0.0,0.0,0.0,0.0,0.0,0.0,0.0,0.0,0.0,0.0,0.0,0.0,0.0,0.0,0.0,0.0,0.0,0.0,0.0,0.0,0.0,0.0,0.0,0.0,0.0,0.0,0.0,0.0,0.0,0.0,0.0,0.0,0.0,0.0,0.0,0.0,0.0,0.0,0.0,0.0,0.0,0.0,0.0,0.0,0.0,0.0,0.0,0.0,0.0,0.0,0.0,0.0,0.0,0.0,0.0,0.0,0.0,0.0,0.0,0.0,0.0,0.0,0.0,0.0,0.0,0.0,0.0,0.0,0.0,0.0,0.0,0.0,0.0,0.0,0.0,0.0,0.0,0.0,0.0,0.0,0.0,0.0,0.0,0.0,0.0,0.0,0.0,0.0,0.0,0.0,0.0,0.0,0.0,0.0,0.0,0.0,0.0,0.0,0.0,0.0,0.0,0.0,0.0,0.0,0.0,0.0,0.0,0.0,0.0,0.0,0.0,0.0,0.0,0.0,0.0,0.0,0.0,0.0,0.0,0.0,0.0,0.0,0.0,0.0,0.0,0.0,0.0,0.0,0.0,0.0,0.0,0.0,0.0,0.0,0.0,0.0,0.0,0.0,0.0,0.0,0.0,0.0,0.0,0.0,0.0,0.0,0.0,0.0,0.0,0.0,0.0,0.0,0.0,0.0,0.0,0.0,0.0,0.0,0.0,0.0,0.0,0.0,0.0,0.0,0.0,0.0,0.0,0.0,0.0,0.0,0.0,0.0,0.0,0.0,0.0,0.0,0.0,0.0,0.0,0.0,0.0,0.0,0.0,0.0,0.0,0.0,0.0,0.0,0.0,0.0,0.0,0.0,0.0,0.0,0.0,0.0,0.0,0.0,0.0,0.0,0.0,0.0,0.0,0.0,0.0,0.0,0.0,0.0,0.0,0.0,0.0,0.0,0.0,0.0,0.0,0.0,0.0,0.0,0.0,0.0,0.0,0.0,0.0,0.0,0.0,0.0,0.0,0.0,0.0,0.0,0.0,0.0,0.0,0.0,0.0,0.0,0.0,0.0,0.0,0.0,0.0,0.0,0.0,0.0,0.0,0.0,0.0,0.0,0.0,0.0,0.0,0.0,0.0,0.0,0.0,0.0,0.0,0.0,0.0,0.0,0.0,0.0,0.0,0.0,0.0,0.0,0.0,0.0,0.0,0.0,0.0,0.0,0.0,0.0,0.0,0.0,0.0,0.0,0.0,0.0,0.0,0.0,0.0,0.0,0.0,0.0,0.0,0.0,0.0,0.0,0.0,0.0,0.0,0.0,0.0,0.0,0.0,0.0,0.0,0.0,0.0,0.0,0.0,0.0,0.0,0.0,0.0,0.0,0.0,0.0,0.0,0.0,0.0,0.0,0.0,0.0,0.0,0.0,0.0,0.0,0.0,0.0,0.0,0.0,0.0,0.0,0.0,0.0,0.0,0.0,0.0,0.0,0.0,0.0,0.0,0.0,0.0,0.0,0.0,0.0,0.0,0.0,0.0,0.0,0.0,0.0,0.0,0.0,0.0,0.0,0.0,0.0,0.0,0.0,0.0,0.0,0.0,0.0,0.0,0.0,0.0,0.0,0.0,0.0,0.0,0.0,0.0,0.0,0.0,0.0,0.0,0.0,0.0,0.0,0.0,0.0,0.0,0.0,0.0,0.0,0.0,0.0,0.0,0.0,0.0,0.0,0.0,0.0,0.0,0.0,0.0,0.0,0.0,0.0,0.0,0.0,0.0,0.0,0.0,0.0,0.0,0.0,0.0,0.0,0.0,0.0,0.0,0.0,0.0,0.0,0.0,0.0,0.0,0.0,0.0,0.0,0.0,0.0,0.0,0.0,0.0,0.0,0.0,0.0,0.0,0.0,0.0,0.0,0.0,0.0,0.0,0.0,0.0,0.0,0.0,0.0,0.0,0.0,0.0,0.0,0.0,0.0,0.0,0.0,0.0,0.0,0.0,0.0,0.0,0.0,0.0,0.0,0.0,0.0,0.0,0.0,0.0,0.0,0.0,0.0,0.0,0.0,0.0,0.0,0.0,0.0,0.0,0.0,0.0,0.0,0.0,0.0,0.0,0.0,0.0,0.0,0.0,0.0,0.0,0.0,0.0,0.0,0.0,0.0,0.0,0.0,0.0,0.0,0.0,0.0,0.0,0.0,0.0,0.0,0.0,0.0,0.0,0.0,0.0,0.0,0.0,0.0,0.0,0.0,0.0,0.0,0.0,0.0,0.0,0.0,0.0,0.0,0.0,0.0,0.0,0.0,0.0,0.0,0.0,0.0,0.0,0.0,0.0,0.0,0.0,0.0,0.0,0.0,0.0,0.0,0.0,0.0,0.0,0.0,0.0,0.0,0.0,0.0,0.0,0.0,0.0,0.0,0.0,0.0,0.0,0.0,0.0,0.0,0.0,0.0,0.0,0.0,0.0,0.0,0.0,0.0,0.0,0.0,0.0,0.0,0.0,0.0,0.0,0.0,0.0,0.0,0.0,0.0,0.0,0.0,0.0,0.0,0.0,0.0,0.0,0.0,0.0,0.0,0.0,0.0,0.0,0.0,0.0,0.0,0.0,0.0,0.0,0.0,0.0,0.0,0.0,0.0,0.0,0.0,0.0,0.0,0.0,0.0,0.0,0.0,0.0,0.0,0.0,0.0,0.0,0.0,0.0,0.0,0.0,0.0,0.0,0.0,0.0,0.0,0.0,0.0,0.0,0.0,0.0,0.0,0.0,0.0,0.0,0.0,0.0,0.0,0.0,0.0,0.0,0.0,0.0,0.0,0.0,0.0,0.0,0.0,0.0,0.0,0.0,0.0,0.0,0.0,0.0,0.0,0.0,0.0,0.0,0.0,0.0,0.0,0.0,0.0,0.0,0.0,0.0,0.0,0.0,0.0,0.0,0.0,0.0,0.0,0.0,0.0,0.0,0.0,0.0,0.0,0.0,0.0,0.0,0.0,0.0,0.0,0.0,0.0,0.0,0.0,0.0,0.0,0.0,0.0,0.0,0.0,0.0,0.0,0.0,0.0,0.0,0.0,0.0,0.0,0.0,0.0,0.0,0.0,0.0,0.0,0.0,0.0,0.0,0.0,0.0,0.0,0.0,0.0,0.0,0.0,0.0,0.0,0.0,0.0,0.0,0.0,0.0,0.0,0.0,0.0,0.0,0.0,0.0,0.0,0.0,0.0,0.0,0.0,0.0,0.0,0.0,0.0,0.0,0.0,0.0,0.0,0.0,0.0,0.0,0.0,0.0,0.0,0.0,0.0,0.0,0.0,0.0,0.0,0.0,0.0,0.0,0.0,0.0,0.0,0.0,0.0,-0.8603,0.0,0.0,0.0,0.0,0.0,0.0,0.0,0.0,0.0,0.0,0.0,0.0,0.0,0.0,0.0,0.0,0.0,0.0,0.0,0.0,0.0,0.0,0.0,0.0,0.0,0.0,0.0,0.0,0.0,0.0,0.0,0.0,0.0,0.0,0.0,0.0,0.0,0.0,0.0,0.0,0.0,0.0,0.0,0.0,0.0,0.0,0.0,0.0,0.0,0.0,0.0,0.0,0.0,0.0,0.0,0.0,0.0,0.0,0.0,0.0,0.0,0.0,0.0,0.0,0.0,0.0,0.0,0.0,0.0,0.0,0.0,0.0,0.0,0.0,0.0,0.0,0.0,0.0,0.0,0.0,0.0,0.0,0.0,0.0,0.0,0.0,0.0,0.0,0.0,0.0,0.0,0.0,0.0,0.0,0.0,0.0,0.0,0.0,0.0,0.0,0.0,0.0,0.0,0.0,0.0,0.0,0.0,0.0,0.0,0.0,-0.6409,-0.6907,-0.7032,-0.7534,-0.8456,0.0,0.0,0.0,0.0,0.0,0.0,0.0,0.0,0.0,0.0,0.0,0.0,0.0,0.0,0.0,0.0,0.0,0.0,0.0,0.0,0.0,0.0,0.0,0.0,0.0,0.0,0.0,0.0,0.0,0.0,0.0,0.0,0.0,0.0,0.0,0.0,0.0,0.0,0.0,0.0,0.0,0.0,0.0,0.0,0.0,0.0,0.0,0.0,0.0,0.0,0.0,0.0,0.0,0.0,0.0,0.0,0.0,0.0,0.0,0.0,0.0,0.0,0.0,0.0,0.0,0.0,0.0,0.0,0.0,0.0,0.0,0.0,0.0,0.0,0.0,0.0,0.0,0.0,0.0,0.0,0.0,0.0,0.0,0.0,0.0,0.0,0.0,0.0,0.0,0.0,0.0,0.0,0.0,0.0,0.0,0.0,0.0,0.0,0.0,0.0,0.0,0.0,0.0,0.0,0.0,0.0,0.0,0.0,0.0,0.0,0.0,0.0,-0.7397,-0.7843,-0.8433,0.0,0.0,0.0,0.0,0.0,0.0,0.0,0.0,0.0,0.0,0.0,0.0,0.0,0.0,0.0,0.0,0.0,0.0,0.0,0.0,0.0,0.0,0.0,0.0,0.0,0.0,0.0,0.0,0.0,0.0,0.0,0.0,0.0,0.0,0.0,0.0,0.0,0.0,0.0,0.0,0.0,0.0,0.0,0.0,0.0,0.0,0.0,0.0,0.0,0.0,0.0,0.0,0.0,0.0,0.0,0.0,0.0,0.0,0.0,0.0,0.0,0.0,0.0,0.0,0.0,0.0,0.0,0.0,0.0,0.0,0.0,0.0,0.0,0.0,0.0,0.0,0.0,0.0,0.0,0.0,0.0,0.0,0.0,0.0,0.0,0.0,0.0,0.0,0.0,0.0,0.0,0.0,0.0,0.0,0.0,0.0,0.0,0.0,0.0,0.0,0.0,0.0,0.0,0.0,0.0,0.0,0.0,0.0,0.0,0.0,-0.7021,-0.7712,-0.8008,0.0,-0.8732,0.0,0.0,0.0,0.0,0.0,0.0,0.0,0.0,0.0,0.0,0.0,0.0,0.0,0.0,0.0,0.0,0.0,0.0,0.0,0.0,0.0,0.0,0.0,0.0,0.0,0.0,0.0,0.0,0.0,0.0,0.0,0.0,0.0,0.0,0.0,0.0,0.0,0.0,0.0,0.0,0.0,0.0,0.0,0.0,0.0,0.0,0.0,0.0,0.0,0.0,0.0,0.0,0.0,0.0,0.0,0.0,0.0,0.0,0.0,0.0,0.0,0.0,0.0,0.0,0.0,0.0,0.0,0.0,0.0,0.0,0.0,0.0,0.0,0.0,0.0,0.0,0.0,0.0,0.0,0.0,0.0,0.0,0.0,0.0,0.0,0.0,0.0,0.0,0.0,0.0,0.0,0.0,0.0,0.0,0.0,0.0,0.0,0.0,0.0,0.0,0.0,0.0,0.0,0.0,0.0,0.0,0.0,0.0,0.0,0.0,-0.7499,-0.7593,-0.8098,-0.8551,0.0,0.0,0.0,0.0,0.0,0.0,0.0,0.0,0.0,0.0,0.0,0.0,0.0,0.0,0.0,0.0,0.0,0.0,0.0,0.0,0.0,0.0,0.0,0.0,0.0,0.0,0.0,0.0,0.0,0.0,0.0,0.0,0.0,0.0,0.0,0.0,0.0,0.0,0.0,0.0,0.0,0.0,0.0,0.0,0.0,0.0,0.0,0.0,0.0,0.0,0.0,0.0,0.0,0.0,0.0,0.0,0.0,0.0,0.0,0.0,0.0,0.0,0.0,0.0,0.0,0.0,0.0,0.0,0.0,0.0,0.0,0.0,0.0,0.0,0.0,0.0,0.0,0.0,0.0,0.0,0.0,0.0,0.0,0.0,0.0,0.0,0.0,0.0,0.0,0.0,0.0,0.0,0.0,0.0,0.0,0.0,0.0,0.0,0.0,0.0,0.0,0.0,0.0,0.0,0.0,0.0,0.0,0.0,0.0,0.0,-0.8666,-0.8104,-0.7826,-0.8195,-0.8635,-0.8926,0.0,0.0,0.0,0.0,0.0,0.0,0.0,0.0,0.0,0.0,0.0,0.0,0.0,0.0,0.0,0.0,0.0,0.0,0.0,0.0,0.0,0.0,0.0,0.0,0.0,0.0,0.0,0.0,0.0,0.0,0.0,0.0,0.0,0.0,0.0,0.0,0.0,0.0,0.0,0.0,0.0,0.0,0.0,0.0,0.0,0.0,0.0,0.0,0.0,0.0,0.0,0.0,0.0,0.0,0.0,0.0,0.0,0.0,0.0,0.0,0.0,0.0,0.0,0.0,0.0,0.0,0.0,0.0,0.0,0.0,0.0,0.0,0.0,0.0,0.0,0.0,0.0,0.0,0.0,0.0,0.0,0.0,0.0,0.0,0.0,0.0,0.0,0.0,0.0,0.0,0.0,0.0,0.0,0.0,0.0,0.0,0.0,0.0,0.0,0.0,0.0,0.0,0.0,0.0,0.0,0.0,0.0,0.0,-1.1728,-0.9639,-0.8492,-0.857,-0.8371,-0.8431,0.0,0.0,0.0,0.0,0.0,0.0,0.0,0.0,0.0,0.0,0.0,0.0,0.0,0.0,0.0,0.0,0.0,0.0,0.0,0.0,0.0,0.0,0.0,0.0,0.0,0.0,0.0,0.0,0.0,0.0,0.0,0.0,0.0,0.0,0.0,0.0,0.0,0.0,0.0,0.0,0.0,0.0,0.0,0.0,0.0,0.0,0.0,0.0,0.0,0.0,0.0,0.0,0.0,0.0,0.0,0.0,0.0,0.0,0.0,0.0,0.0,0.0,0.0,0.0,0.0,0.0,0.0,0.0,0.0,0.0,0.0,0.0,0.0,0.0,0.0,0.0,0.0,0.0,0.0,0.0,0.0,0.0,0.0,0.0,0.0,0.0,0.0,0.0,0.0,0.0,0.0,0.0,0.0,0.0,0.0,0.0,0.0,0.0,0.0,0.0,0.0,0.0,0.0,0.0,0.0,0.0,0.0,0.0,0.0,-1.0188,-0.8387,-0.7835,-0.8619,-0.8204,-0.8509,0.0,0.0,0.0,0.0,0.0,0.0,0.0,0.0,0.0,0.0,0.0,0.0,0.0,0.0,0.0,0.0,0.0,0.0,0.0,0.0,0.0,0.0,0.0,0.0,0.0,0.0,0.0,0.0,0.0,0.0,0.0,0.0,0.0,0.0,0.0,0.0,0.0,0.0,0.0,0.0,0.0,0.0,0.0,0.0,0.0,0.0,0.0,0.0,0.0,0.0,0.0,0.0,0.0,0.0,0.0,0.0,0.0,0.0,0.0,0.0,0.0,0.0,0.0,0.0,0.0,0.0,0.0,0.0,0.0,0.0,0.0,0.0,0.0,0.0,0.0,0.0,0.0,0.0,0.0,0.0,0.0,0.0,0.0,0.0,0.0,0.0,0.0,0.0,0.0,0.0,0.0,0.0,0.0,0.0,0.0,0.0,0.0,0.0,0.0,0.0,0.0,0.0,0.0,0.0,0.0,0.0,0.0,0.0,0.0,-0.9331,0.0,-0.8405,-0.8389,-0.8225,-0.8631,0.0,0.0,0.0,0.0,0.0,0.0,0.0,0.0,0.0,0.0,0.0,0.0,0.0,0.0,0.0,0.0,0.0,0.0,0.0,0.0,0.0,0.0,0.0,0.0,0.0,0.0,0.0,0.0,0.0,0.0,0.0,0.0,0.0,0.0,0.0,0.0,0.0,0.0,0.0,0.0,0.0,0.0,0.0,0.0,0.0,0.0,0.0,0.0,0.0,0.0,0.0,0.0,0.0,0.0,0.0,0.0,0.0,0.0,0.0,0.0,0.0,0.0,0.0,0.0,0.0,0.0,0.0,0.0,0.0,0.0,0.0,0.0,0.0,0.0,0.0,0.0,0.0,0.0,0.0,0.0,0.0,0.0,0.0,0.0,0.0,0.0,0.0,0.0,0.0,0.0,0.0,0.0,0.0,0.0,0.0,0.0,0.0,0.0,0.0,0.0,0.0,0.0,0.0,0.0,0.0,0.0,0.0,0.0,-1.0979,-0.9518,-1.0672,-1.013,-0.8051,-0.8566,-0.888,0.0,0.0,0.0,0.0,0.0,0.0,0.0,0.0,0.0,0.0,0.0,0.0,0.0,0.0,0.0,0.0,0.0,0.0,0.0,0.0,0.0,0.0,0.0,0.0,0.0,0.0,0.0,0.0,0.0,0.0,0.0,0.0,0.0,0.0,0.0,0.0,0.0,0.0,0.0,0.0,0.0,0.0,0.0,0.0,0.0,0.0,0.0,0.0,0.0,0.0,0.0,0.0,0.0,0.0,0.0,0.0,0.0,0.0,0.0,0.0,0.0,0.0,0.0,0.0,0.0,0.0,0.0,0.0,0.0,0.0,0.0,0.0,0.0,0.0,0.0,0.0,0.0,0.0,0.0,0.0,0.0,0.0,0.0,0.0,0.0,0.0,0.0,0.0,0.0,0.0,0.0,0.0,0.0,0.0,0.0,0.0,0.0,0.0,0.0,0.0,0.0,0.0,0.0,0.0,0.0,0.0,0.0,0.0,0.0,-0.9886,-0.9723,-0.9769,-0.9983,-0.9106,-0.9229,0.0,0.0,0.0,0.0,0.0,0.0,0.0,0.0,0.0,0.0,0.0,0.0,0.0,0.0,0.0,0.0,0.0,0.0,0.0,0.0,0.0,0.0,0.0,0.0,0.0,0.0,0.0,0.0,0.0,0.0,0.0,0.0,0.0,0.0,0.0,0.0,0.0,0.0,0.0,0.0,0.0,0.0,0.0,0.0,0.0,0.0,0.0,0.0,0.0,0.0,0.0,0.0,0.0,0.0,0.0,0.0,0.0,0.0,0.0,0.0,0.0,0.0,0.0,0.0,0.0,0.0,0.0,0.0,0.0,0.0,0.0,0.0,0.0,0.0,0.0,0.0,0.0,0.0,0.0,0.0,0.0,0.0,0.0,0.0,0.0,0.0,0.0,0.0,0.0,0.0,0.0,0.0,0.0,0.0,0.0,0.0,0.0,0.0,0.0,0.0,0.0,0.0,0.0,0.0,0.0,0.0,0.0,0.0,0.0,-1.1645,-1.0998,-1.0918,-1.1461,-1.0486,-1.0314,-1.1222,0.0,0.0,0.0,0.0,0.0,0.0,0.0,0.0,0.0,0.0,0.0,0.0,0.0,0.0,0.0,0.0,0.0,0.0,0.0,0.0,0.0,0.0,0.0,0.0,0.0,0.0,0.0,0.0,0.0,0.0,0.0,0.0,0.0,0.0,0.0,0.0,0.0,0.0,0.0,0.0,0.0,0.0,0.0,0.0,0.0,0.0,0.0,0.0,0.0,0.0,0.0,0.0,0.0,0.0,0.0,0.0,0.0,0.0,0.0,0.0,0.0,0.0,0.0,0.0,0.0,0.0,0.0,0.0,0.0,0.0,0.0,0.0,0.0,0.0,0.0,0.0,0.0,0.0,0.0,0.0,0.0,0.0,0.0,0.0,0.0,0.0,0.0,0.0,0.0,0.0,0.0,0.0,0.0,0.0,0.0,0.0,0.0,0.0,0.0,0.0,0.0,0.0,0.0,0.0,0.0,0.0,0.0,0.0,-1.431,-1.4014,-1.3451,-1.2428,-1.2328,-1.2089,0.0,0.0,0.0,0.0,0.0,0.0,0.0,0.0,0.0,0.0,0.0,0.0,0.0,0.0,0.0,0.0,0.0,0.0,0.0,0.0,0.0,0.0,0.0,0.0,0.0,0.0,0.0,0.0,0.0,0.0,0.0,0.0,0.0,0.0,0.0,0.0,0.0,0.0,0.0,0.0,0.0,0.0,0.0,0.0,0.0,0.0,0.0,0.0,0.0,0.0,0.0,0.0,0.0,0.0,0.0,0.0,0.0,0.0,0.0,0.0,0.0,0.0,0.0,0.0,0.0,0.0,0.0,0.0,0.0,0.0,0.0,0.0,0.0,0.0,0.0,0.0,0.0,0.0,0.0,0.0,0.0,0.0,0.0,0.0,0.0,0.0,0.0,0.0,0.0,0.0,0.0,0.0,0.0,0.0,0.0,0.0,0.0,0.0,0.0,0.0,0.0,0.0,0.0,0.0,0.0,0.0,0.0,0.0,0.0,-1.46,-1.5719,-1.5876,-1.4983,-1.348,-1.266,0.0,0.0,0.0,0.0,0.0,0.0,0.0,0.0,0.0,0.0,0.0,0.0,0.0,0.0,0.0,0.0,0.0,0.0,0.0,0.0,0.0,0.0,0.0,0.0,0.0,0.0,0.0,0.0,0.0,0.0,0.0,0.0,0.0,0.0,0.0,0.0,0.0,0.0,0.0,0.0,0.0,0.0,0.0,0.0,0.0,0.0,0.0,0.0,0.0,0.0,0.0,0.0,0.0,0.0,0.0,0.0,0.0,0.0,0.0,0.0,0.0,0.0,0.0,0.0,0.0,0.0,0.0,0.0,0.0,0.0,0.0,0.0,0.0,0.0,0.0,0.0,0.0,0.0,0.0,0.0,0.0,0.0,0.0,0.0,0.0,0.0,0.0,0.0,0.0,0.0,0.0,0.0,0.0,0.0,0.0,0.0,0.0,0.0,0.0,0.0,0.0,0.0,0.0,0.0,0.0,0.0,0.0,0.0,-1.4484,-1.5407,-1.6727,-1.7319,-1.7128,-1.5611,-1.4479,0.0,0.0,0.0,0.0,0.0,0.0,0.0,0.0,0.0,0.0,0.0,0.0,0.0,0.0,0.0,0.0,0.0,0.0,0.0,0.0,0.0,0.0,0.0,0.0,0.0,0.0,0.0,0.0,0.0,0.0,0.0,0.0,0.0,0.0,0.0,0.0,0.0,0.0,0.0,0.0,0.0,0.0,0.0,0.0,0.0,0.0,0.0,0.0,0.0,0.0,0.0,0.0,0.0,0.0,0.0,0.0,0.0,0.0,0.0,0.0,0.0,0.0,0.0,0.0,0.0,0.0,0.0,0.0,0.0,0.0,0.0,0.0,0.0,0.0,0.0,0.0,0.0,0.0,0.0,0.0,0.0,0.0,0.0,0.0,0.0,0.0,0.0,0.0,0.0,0.0,0.0,0.0,0.0,0.0,0.0,0.0,0.0,0.0,0.0,0.0,0.0,0.0,0.0,0.0,0.0,0.0,0.0,0.0,-1.482,-1.6324,-1.7179,-1.7976,-1.8693,-1.7955,-1.6544,0.0,0.0,0.0,0.0,0.0,0.0,0.0,0.0,0.0,0.0,0.0,0.0,0.0,0.0,0.0,0.0,0.0,0.0,0.0,0.0,0.0,0.0,0.0,0.0,0.0,0.0,0.0,0.0,0.0,0.0,0.0,0.0,0.0,0.0,0.0,0.0,0.0,0.0,0.0,0.0,0.0,0.0,0.0,0.0,0.0,0.0,0.0,0.0,0.0,0.0,0.0,0.0,0.0,0.0,0.0,0.0,0.0,0.0,0.0,0.0,0.0,0.0,0.0,0.0,0.0,0.0,0.0,0.0,0.0,0.0,0.0,0.0,0.0,0.0,0.0,0.0,0.0,0.0,0.0,0.0,0.0,0.0,0.0,0.0,0.0,0.0,0.0,0.0,0.0,0.0,0.0,0.0,0.0,0.0,0.0,0.0,0.0,0.0,0.0,0.0,0.0,0.0,0.0,0.0,0.0,0.0,0.0,0.0,-1.5293,-1.5654,-1.7118,-1.8136,-1.8415,-1.7164,-1.6215,0.0,0.0,0.0,0.0,0.0,0.0,0.0,0.0,0.0,0.0,0.0,0.0,0.0,0.0,0.0,0.0,0.0,0.0,0.0,0.0,0.0,0.0,0.0,0.0,0.0,0.0,0.0,0.0,0.0,0.0,0.0,0.0,0.0,0.0,0.0,0.0,0.0,0.0,0.0,0.0,0.0,0.0,0.0,0.0,0.0,0.0,0.0,0.0,-1.5774,0.0,0.0,0.0,0.0,0.0,0.0,0.0,0.0,0.0,0.0,0.0,0.0,0.0,0.0,0.0,0.0,0.0,0.0,0.0,0.0,0.0,0.0,0.0,0.0,0.0,0.0,0.0,0.0,0.0,0.0,0.0,0.0,0.0,0.0,0.0,0.0,0.0,0.0,0.0,0.0,0.0,0.0,0.0,0.0,0.0,0.0,0.0,0.0,0.0,0.0,0.0,0.0,0.0,0.0,0.0,0.0,0.0,0.0,0.0,-1.6704,-1.7372,-1.8717,-1.9569,-1.9943,-1.9017,-1.7829,0.0,0.0,0.0,0.0,0.0,0.0,0.0,0.0,0.0,0.0,0.0,0.0,0.0,0.0,0.0,0.0,0.0,0.0,0.0,0.0,0.0,0.0,0.0,0.0,0.0,0.0,0.0,0.0,0.0,0.0,0.0,0.0,0.0,0.0,0.0,0.0,0.0,0.0,0.0,0.0,0.0,0.0,0.0,0.0,0.0,0.0,0.0,0.0,0.0,0.0,0.0,0.0,0.0,0.0,0.0,0.0,0.0,0.0,0.0,0.0,0.0,0.0,0.0,0.0,0.0,0.0,0.0,0.0,0.0,0.0,0.0,0.0,0.0,0.0,0.0,0.0,0.0,0.0,0.0,0.0,0.0,0.0,0.0,0.0,0.0,0.0,0.0,0.0,0.0,0.0,0.0,0.0,0.0,0.0,0.0,0.0,0.0,0.0,0.0,0.0,0.0,0.0,0.0,0.0,0.0,0.0,0.0,-1.6861,-1.8041,-1.9353,-2.0302,-2.0992,-2.1557,-2.1163,-1.9763,-1.7402,0.0,0.0,0.0,0.0,0.0,0.0,0.0,0.0,0.0,0.0,0.0,0.0,0.0,0.0,0.0,0.0,0.0,0.0,0.0,0.0,0.0,0.0,0.0,0.0,0.0,0.0,0.0,0.0,0.0,0.0,0.0,0.0,0.0,0.0,0.0,0.0,0.0,0.0,-1.5903,-1.4832,0.0,0.0,0.0,0.0,0.0,0.0,0.0,0.0,-1.9145,0.0,0.0,0.0,0.0,0.0,0.0,0.0,0.0,0.0,0.0,0.0,0.0,0.0,0.0,0.0,0.0,0.0,0.0,0.0,0.0,0.0,0.0,0.0,0.0,0.0,0.0,0.0,0.0,0.0,0.0,0.0,0.0,0.0,0.0,0.0,0.0,0.0,0.0,0.0,0.0,0.0,0.0,0.0,0.0,0.0,0.0,0.0,0.0,0.0,0.0,0.0,0.0,0.0,0.0,0.0,0.0,-1.752,-1.7653,-1.8065,-1.8938,-1.9576,-2.0051,-2.0373,-2.0909,-2.0389,-1.8584,0.0,0.0,0.0,0.0,0.0,0.0,0.0,0.0,0.0,0.0,0.0,0.0,0.0,0.0,0.0,0.0,0.0,0.0,0.0,0.0,0.0,0.0,0.0,0.0,0.0,0.0,0.0,0.0,0.0,0.0,0.0,0.0,0.0,0.0,0.0,0.0,0.0,0.0,0.0,-1.707,-1.6499,0.0,0.0,0.0,0.0,0.0,0.0,0.0,0.0,-2.0665,0.0,0.0,0.0,0.0,0.0,0.0,0.0,0.0,0.0,0.0,0.0,0.0,0.0,0.0,0.0,0.0,0.0,0.0,0.0,0.0,0.0,0.0,0.0,0.0,0.0,0.0,0.0,0.0,0.0,0.0,0.0,0.0,0.0,0.0,0.0,0.0,0.0,0.0,0.0,0.0,0.0,0.0,0.0,0.0,0.0,0.0,0.0,0.0,0.0,0.0,0.0,0.0,0.0,0.0,0.0,-1.8006,-1.8853,-1.9701,-2.0399,-2.0992,-2.1473,-2.1539,-2.129,-2.0519,0.0,0.0,0.0,0.0,0.0,0.0,0.0,0.0,0.0,0.0,0.0,0.0,0.0,0.0,0.0,0.0,0.0,0.0,0.0,0.0,0.0,0.0,0.0,0.0,0.0,0.0,0.0,0.0,0.0,0.0,0.0,0.0,0.0,0.0,0.0,0.0,0.0,0.0,0.0,0.0,-1.7904,-1.7307,-1.8321,0.0,0.0,0.0,0.0,0.0,0.0,-2.1165,-2.122,0.0,0.0,0.0,0.0,0.0,0.0,0.0,0.0,0.0,0.0,0.0,0.0,0.0,0.0,0.0,0.0,0.0,0.0,0.0,0.0,0.0,0.0,0.0,0.0,0.0,0.0,0.0,0.0,0.0,0.0,0.0,0.0,0.0,0.0,0.0,0.0,0.0,0.0,0.0,0.0,0.0,0.0,0.0,0.0,0.0,0.0,0.0,0.0,0.0,0.0,0.0,0.0,0.0,0.0,0.0,-1.8282,-1.9758,-2.1047,-2.1907,-2.2455,-2.261,-2.2685,-2.1667,-2.0539,0.0,0.0,0.0,0.0,0.0,0.0,0.0,0.0,0.0,0.0,0.0,0.0,0.0,0.0,0.0,0.0,0.0,0.0,0.0,0.0,0.0,0.0,0.0,0.0,0.0,0.0,0.0,0.0,0.0,0.0,0.0,0.0,0.0,0.0,0.0,0.0,0.0,0.0,0.0,0.0,0.0,-1.8529,-1.9243,-1.891,0.0,0.0,0.0,0.0,-2.2339,-2.2564,0.0,0.0,0.0,0.0,0.0,0.0,0.0,0.0,0.0,0.0,0.0,0.0,0.0,0.0,0.0,0.0,0.0,0.0,0.0,0.0,0.0,0.0,0.0,0.0,0.0,0.0,0.0,0.0,0.0,0.0,0.0,0.0,0.0,0.0,0.0,0.0,0.0,0.0,0.0,0.0,0.0,0.0,0.0,0.0,0.0,0.0,0.0,0.0,0.0,0.0,0.0,0.0,0.0,0.0,0.0,0.0,-1.8858,-1.9453,-2.0368,-2.1651,-2.1761,-2.1878,-2.1779,-2.1374,-2.0539,0.0,0.0,0.0,0.0,0.0,0.0,0.0,0.0,0.0,0.0,0.0,0.0,0.0,0.0,0.0,0.0,0.0,0.0,0.0,0.0,0.0,0.0,0.0,0.0,0.0,0.0,0.0,0.0,0.0,0.0,0.0,0.0,0.0,0.0,0.0,0.0,0.0,0.0,0.0,0.0,0.0,-2.0976,-1.996,-2.0817,-2.1616,0.0,0.0,-2.4325,-2.6234,-2.6616,0.0,0.0,0.0,0.0,0.0,0.0,0.0,0.0,0.0,0.0,0.0,0.0,0.0,0.0,0.0,0.0,0.0,0.0,0.0,0.0,0.0,0.0,0.0,0.0,0.0,0.0,0.0,0.0,0.0,0.0,0.0,0.0,0.0,0.0,0.0,0.0,0.0,0.0,0.0,0.0,0.0,0.0,0.0,0.0,0.0,0.0,0.0,0.0,0.0,0.0,0.0,0.0,0.0,0.0,0.0,-1.7151,-1.9088,-1.9934,-2.0826,-2.1872,-2.1919,-2.1919,-2.1909,-2.0846,-2.0014,0.0,0.0,0.0,0.0,0.0,0.0,0.0,0.0,0.0,0.0,0.0,0.0,0.0,0.0,0.0,0.0,0.0,0.0,0.0,0.0,0.0,0.0,0.0,0.0,0.0,0.0,0.0,0.0,0.0,0.0,0.0,0.0,0.0,0.0,0.0,0.0,0.0,0.0,0.0,0.0,0.0,0.0,-2.2152,-2.3067,0.0,0.0,0.0,-2.589,-2.7214,0.0,0.0,0.0,0.0,0.0,0.0,0.0,0.0,0.0,0.0,0.0,0.0,0.0,0.0,0.0,0.0,0.0,0.0,0.0,0.0,0.0,0.0,0.0,0.0,0.0,0.0,0.0,0.0,0.0,0.0,0.0,0.0,0.0,0.0,0.0,0.0,0.0,0.0,0.0,0.0,0.0,0.0,0.0,0.0,0.0,0.0,0.0,0.0,0.0,0.0,0.0,0.0,0.0,0.0,0.0,0.0,0.0,-1.9432,-2.0438,-2.1352,-2.2148,-2.2185,-2.2138,-2.2017,-2.0726,0.0,0.0,0.0,0.0,0.0,0.0,0.0,0.0,0.0,0.0,0.0,0.0,0.0,0.0,0.0,0.0,0.0,0.0,0.0,0.0,0.0,0.0,0.0,0.0,0.0,0.0,0.0,-1.4104,0.0,0.0,0.0,0.0,0.0,0.0,0.0,0.0,0.0,0.0,0.0,0.0,0.0,0.0,-2.3724,-2.3878,-2.506,-2.6302,0.0,0.0,-2.777,-2.8373,-2.8533,-2.7951,0.0,0.0,0.0,0.0,0.0,0.0,0.0,0.0,0.0,0.0,0.0,0.0,0.0,0.0,0.0,0.0,0.0,0.0,0.0,0.0,0.0,0.0,0.0,0.0,0.0,0.0,0.0,0.0,0.0,0.0,0.0,0.0,0.0,0.0,0.0,0.0,0.0,0.0,0.0,0.0,0.0,0.0,0.0,0.0,0.0,0.0,0.0,0.0,0.0,0.0,0.0,0.0,0.0,0.0,0.0,-1.9825,-2.052,-2.1334,-2.2315,-2.2353,-2.2164,-2.1796,-2.1371,-2.0557,0.0,0.0,0.0,0.0,0.0,0.0,0.0,0.0,0.0,0.0,0.0,0.0,0.0,0.0,0.0,0.0,0.0,0.0,0.0,0.0,0.0,0.0,0.0,0.0,0.0,0.0,0.0,0.0,0.0,0.0,0.0,0.0,0.0,0.0,0.0,0.0,0.0,0.0,0.0,0.0,0.0,-2.5114,-2.4086,-2.6401,-2.8722,0.0,0.0,-3.0835,-3.1079,-3.2107,-3.1668,-2.7957,0.0,0.0,0.0,0.0,0.0,0.0,0.0,0.0,0.0,0.0,0.0,0.0,0.0,0.0,0.0,0.0,0.0,0.0,0.0,0.0,0.0,0.0,0.0,0.0,0.0,0.0,0.0,0.0,0.0,0.0,0.0,0.0,0.0,0.0,0.0,0.0,0.0,0.0,0.0,0.0,0.0,0.0,0.0,0.0,0.0,0.0,0.0,0.0,0.0,0.0,0.0,0.0,0.0,-1.7684,-1.9825,-2.0334,-2.1244,-2.2541,-2.237,-2.2256,-2.2017,-2.1587,-2.0652,0.0,0.0,0.0,0.0,0.0,0.0,0.0,0.0,0.0,0.0,0.0,0.0,0.0,0.0,0.0,0.0,0.0,0.0,0.0,0.0,0.0,0.0,0.0,0.0,0.0,0.0,0.0,0.0,-1.5262,-1.5924,-1.694,0.0,0.0,0.0,0.0,0.0,0.0,0.0,0.0,0.0,0.0,-2.6481,-2.7672,-2.9415,0.0,0.0,-3.2115,-3.205,-3.2076,-3.1669,-3.0734,-2.8578,-2.8011,0.0,0.0,0.0,0.0,0.0,0.0,0.0,0.0,0.0,0.0,0.0,0.0,0.0,0.0,0.0,0.0,0.0,0.0,0.0,0.0,0.0,0.0,0.0,0.0,0.0,0.0,0.0,0.0,0.0,0.0,0.0,0.0,0.0,0.0,0.0,0.0,0.0,0.0,0.0,0.0,0.0,0.0,0.0,0.0,0.0,0.0,0.0,0.0,0.0,0.0,0.0,0.0,-1.7898,-1.9879,-2.0312,-2.1231,-2.2669,-2.2409,-2.2196,-2.208,-2.1791,-2.0883,0.0,0.0,0.0,0.0,0.0,0.0,0.0,0.0,0.0,0.0,0.0,0.0,0.0,0.0,0.0,0.0,0.0,0.0,0.0,0.0,0.0,0.0,0.0,0.0,0.0,0.0,0.0,0.0,-1.6525,-1.7124,-1.8232,0.0,0.0,0.0,0.0,0.0,0.0,0.0,0.0,0.0,0.0,-2.8194,-2.9867,-3.1398,-3.2536,-3.3159,-3.3159,-3.2894,-3.25,-3.1837,-3.0656,-2.8826,0.0,0.0,0.0,0.0,0.0,0.0,0.0,0.0,0.0,0.0,0.0,0.0,0.0,0.0,0.0,0.0,0.0,0.0,0.0,0.0,0.0,0.0,0.0,0.0,0.0,0.0,0.0,0.0,0.0,0.0,0.0,0.0,0.0,0.0,0.0,0.0,0.0,0.0,0.0,0.0,0.0,0.0,0.0,0.0,0.0,0.0,0.0,0.0,0.0,0.0,0.0,0.0,0.0,-1.9014,-1.9922,-2.0585,-2.1448,-2.251,-2.251,-2.2314,-2.1943,-2.1894,-2.126,-1.9902,0.0,0.0,0.0,0.0,0.0,0.0,0.0,0.0,0.0,0.0,0.0,0.0,0.0,0.0,0.0,0.0,0.0,0.0,0.0,0.0,0.0,0.0,0.0,0.0,0.0,0.0,-1.7281,-1.7655,-1.8159,0.0,0.0,0.0,0.0,0.0,0.0,0.0,0.0,0.0,0.0,-2.7984,-3.0323,-2.9857,-3.1824,-3.3159,-3.2974,-3.3574,-3.3684,-3.2536,-3.3087,-3.2486,0.0,0.0,0.0,0.0,0.0,0.0,0.0,0.0,0.0,0.0,0.0,0.0,0.0,0.0,0.0,0.0,0.0,0.0,0.0,0.0,0.0,0.0,0.0,0.0,0.0,0.0,0.0,-1.8953,-1.8705,0.0,0.0,0.0,0.0,0.0,0.0,0.0,0.0,0.0,0.0,0.0,-1.8585,-1.8625,0.0,0.0,0.0,0.0,0.0,0.0,0.0,0.0,0.0,0.0,0.0,0.0,-1.9514,-2.1124,-2.1075,-2.1957,-2.3774,-2.271,-2.2168,-2.2295,-2.2509,-2.1998,-2.0446,0.0,0.0,0.0,0.0,0.0,0.0,0.0,0.0,0.0,0.0,0.0,0.0,0.0,0.0,0.0,0.0,0.0,0.0,0.0,0.0,0.0,0.0,0.0,0.0,0.0,-1.8141,0.0,0.0,0.0,0.0,0.0,0.0,0.0,0.0,0.0,0.0,0.0,-2.4784,-2.6649,-2.8485,-2.9882,-3.057,-3.171,-3.2489,0.0,0.0,0.0,0.0,0.0,0.0,0.0,0.0,0.0,0.0,0.0,0.0,0.0,0.0,-3.2373,-3.0345,-2.94,-2.9161,-2.9971,0.0,0.0,0.0,0.0,0.0,0.0,0.0,0.0,0.0,0.0,0.0,0.0,0.0,0.0,0.0,0.0,-1.8981,0.0,0.0,0.0,0.0,0.0,0.0,0.0,0.0,-1.909,-1.9601,-1.9668,-1.9726,-1.9726,0.0,-1.9471,-1.8904,0.0,0.0,0.0,0.0,0.0,0.0,0.0,0.0,-2.0048,-2.1406,-2.1365,-2.2272,-2.4,-2.2829,-2.2187,-2.2446,-2.2594,-2.2262,-2.1384,-2.009,-1.9407,0.0,0.0,0.0,0.0,0.0,0.0,0.0,0.0,0.0,0.0,0.0,0.0,0.0,0.0,0.0,0.0,0.0,0.0,0.0,0.0,0.0,0.0,0.0,-1.888,0.0,0.0,0.0,0.0,0.0,0.0,0.0,0.0,0.0,-2.4438,-2.5213,-2.6529,-2.8756,-2.9642,-3.0309,-3.0911,0.0,0.0,0.0,0.0,0.0,0.0,0.0,-3.1647,-3.0271,-3.0739,-3.1032,-3.0393,-3.1148,-3.1917,-3.2135,0.0,0.0,-3.1648,-3.0668,-3.0441,-3.1696,-3.0904,-3.0266,-3.118,-3.163,-3.1915,0.0,0.0,0.0,0.0,0.0,0.0,0.0,0.0,-1.8788,-1.9201,0.0,-1.9467,0.0,0.0,0.0,0.0,0.0,0.0,0.0,0.0,-2.0312,-2.1009,-2.1218,-2.166,-2.1435,-2.0732,-2.1846,-2.1543,-1.9922,-1.8311,0.0,0.0,0.0,0.0,0.0,0.0,-2.0749,-2.0834,-2.1544,-2.2453,-2.3579,-2.2793,-2.2391,-2.2439,-2.2112,-2.2092,-2.248,-2.1575,-2.0923,-2.0622,-2.0526,0.0,0.0,0.0,0.0,0.0,0.0,0.0,0.0,0.0,0.0,0.0,0.0,0.0,0.0,0.0,0.0,0.0,0.0,0.0,0.0,-1.9392,0.0,0.0,0.0,0.0,0.0,0.0,0.0,0.0,0.0,0.0,-2.6174,-2.7898,-2.9628,-3.0673,0.0,0.0,0.0,0.0,-3.127,-3.0857,-3.1974,-3.2649,-3.2191,-3.2804,-3.2483,-3.0074,0.0,0.0,-3.1656,-3.1061,-3.0916,-3.1453,-3.1662,-3.2347,-3.4692,-3.3069,-3.2124,-3.3818,-3.23,-3.1139,-3.2138,-3.2594,-3.2681,-2.0934,0.0,0.0,0.0,0.0,-1.9091,-1.9522,-2.0383,-1.9824,-1.9714,-1.9907,-1.9485,0.0,0.0,0.0,0.0,0.0,0.0,-1.9869,-2.0033,-2.0889,-2.1661,-2.2139,-2.1963,-2.1904,-2.1963,-2.2031,-2.165,-2.084,-2.0049,-1.9337,-1.8687,0.0,0.0,0.0,0.0,-2.1924,-2.2424,-2.2592,-2.3134,-2.4102,-2.3019,-2.2759,-2.3549,-2.3221,-2.2844,-2.2332,-2.1835,-2.1295,-2.0613,-2.0213,0.0,0.0,0.0,0.0,0.0,0.0,0.0,0.0,0.0,0.0,0.0,0.0,0.0,0.0,0.0,0.0,0.0,0.0,0.0,-1.9424,-2.0086,-2.0648,0.0,0.0,0.0,0.0,0.0,0.0,0.0,0.0,0.0,-2.9473,-2.9401,-2.9834,0.0,0.0,-3.1126,-3.0941,-3.0685,-3.0458,-3.043,0.0,0.0,0.0,-3.1279,-3.1148,-3.0408,-3.1148,-3.1888,-3.2179,-3.2077,-3.2019,-3.2193,-3.2203,-3.246,-3.3084,-3.2687,-3.2547,-3.3471,-3.3206,-3.3031,-3.395,-3.4206,-3.419,-2.2137,-2.13,-2.0567,-2.0411,-2.0604,-2.02,-2.0429,-2.1062,-2.0438,-2.0163,-2.0163,-2.0145,-1.9687,-1.8788,-1.9174,0.0,0.0,0.0,-2.087,-2.1205,-2.17,-2.2165,-2.2725,-2.25,-2.2422,-2.251,-2.2432,-2.207,-2.1475,-2.1045,-2.0572,-1.9968,0.0,0.0,-2.0325,-2.1239,-2.2121,-2.2871,-2.2613,-2.3091,-2.4258,-2.346,-2.3453,-2.4165,-2.4033,-2.3553,-2.2855,-2.271,-2.2143,-2.0948,-2.061,-1.9956,0.0,0.0,0.0,0.0,0.0,0.0,0.0,0.0,0.0,0.0,0.0,-1.8958,-1.8732,0.0,0.0,0.0,-1.8342,-1.9083,-2.0342,-2.0752,0.0,0.0,0.0,0.0,0.0,0.0,0.0,-2.7623,-2.754,-2.8235,-3.03,-2.9651,-2.9799,-3.1818,-3.1289,-3.0745,-3.0683,0.0,-2.9886,-3.0297,-3.0557,-3.0762,-3.0945,-3.0945,-3.0785,-3.0263,-3.0495,-3.0988,-3.1613,-3.1555,-3.1467,-3.1627,-3.1506,-3.1262,-3.1262,-3.1573,-3.2273,-3.3382,-3.3432,-3.3515,-3.4292,-3.4237,-3.4021,-2.2971,-2.3538,-2.2364,-2.1841,-2.175,-2.1365,-2.1181,-2.1117,-2.0741,-2.0567,-2.0594,-2.1172,-2.1081,-2.0389,-2.0785,0.0,0.0,-2.1646,-2.2139,-2.251,-2.2549,-2.2764,-2.3125,-2.3096,-2.2891,-2.251,-2.2871,-2.2646,-2.1885,-2.1475,-2.1064,-2.0605,-1.9834,-1.99,-2.0719,-2.1079,-2.165,-2.2583,-2.2123,-2.2649,-2.4108,-2.4074,-2.4166,-2.4342,-2.4284,-2.3956,-2.3568,-2.3675,-2.305,-2.138,-2.1272,-2.0334,-1.8374,0.0,0.0,0.0,0.0,0.0,0.0,0.0,0.0,0.0,0.0,0.0,0.0,0.0,0.0,0.0,-1.8827,0.0,-2.1606,-2.1386,0.0,0.0,0.0,-2.5026,-2.5483,-2.6701,-2.7775,-2.8367,0.0,0.0,0.0,0.0,-2.9493,-3.1637,-3.0945,-3.024,-3.0101,-2.9557,-2.943,-3.0127,-3.0672,-3.1094,-3.0971,-3.1076,-3.0713,-2.974,-2.9537,-2.9784,-3.0277,-3.0001,-2.9856,-3.0321,-2.9864,-2.9426,-2.9451,-3.0552,-3.1779,-3.3199,-3.3089,-3.2918,-3.3518,-3.3243,-3.2829,-2.3525,-2.4409,-2.3492,-2.2758,-2.2181,-2.208,-2.1869,-2.1557,-2.1154,-2.0961,-2.0961,-2.1014,-2.1136,-2.1186,-2.1545,-2.1646,-2.1666,-2.2168,-2.2412,-2.2529,-2.2842,-2.3047,-2.3038,-2.2812,-2.2607,-2.251,-2.2285,-2.209,-2.1885,-2.1787,-2.1514,-2.1084,-2.0869,-2.0821,-2.1,-2.1624,-2.2099,-2.2477,-2.2703,-2.3368,-2.4253,-2.3895,-2.3571,-2.3376,-2.2764,-2.2168,-2.138,-2.1813,-2.1464,-2.0237,-2.0177,-1.9619,-1.8454,-1.8503,0.0,0.0,0.0,0.0,0.0,0.0,0.0,0.0,0.0,-1.9777,-1.8869,0.0,-2.0298,0.0,-2.0029,-2.0952,-2.2339,-2.292,0.0,0.0,-2.6165,-2.6802,-2.6515,-2.7136,-2.7726,-2.7871,-2.79,-2.8187,-2.8826,-2.8768,-2.8898,-2.945,-2.9276,-2.9262,-2.9638,-2.9189,-2.8914,-2.9088,-2.9262,-2.9305,-2.9392,-2.9348,-2.9276,-2.8956,-2.8913,-2.8956,-2.9102,-2.9015,-2.8971,-2.9159,-2.9319,-2.9436,-2.9552,-3.0561,-3.1484,-3.2028,-3.232,-3.2594,-3.29,-3.2796,-3.2646,-2.2935,-2.4189,-2.373,-2.307,-2.2327,-2.2327,-2.2199,-2.197,-2.1566,-2.1282,-2.1099,-2.123,-2.157,-2.2082,-2.2357,-2.2441,-2.2461,-2.2695,-2.2793,-2.2803,-2.3027,-2.3144,-2.3135,-2.29,-2.2705,-2.251,-2.2275,-2.1963,-2.1611,-2.1592,-2.1377,-2.0947,-2.0928,-2.0918,-2.0888,-2.1308,-2.167,-2.2103,-2.2794,-2.3363,-2.393,-2.3956,-2.3783,-2.3364,-2.2805,-2.2111,-2.1356,-2.1427,-2.1112,-2.0201,-2.0153,-1.9727,-1.8742,-1.867,-1.837,0.0,0.0,0.0,0.0,0.0,0.0,0.0,0.0,0.0,0.0,0.0,-2.0814,0.0,-2.1246,0.0,-2.3811,-2.4155,-2.4699,-2.5586,-2.663,-2.7171,-2.6823,-2.7345,-2.7853,-2.8115,-2.7911,-2.7955,-2.8579,-2.8173,-2.794,-2.8202,-2.7737,-2.7839,-2.8927,-2.8898,-2.8666,-2.8666,-2.8666,-2.8565,-2.8318,-2.826,-2.8158,-2.7926,-2.8071,-2.826,-2.8274,-2.8245,-2.8315,-2.8561,-2.8764,-2.9057,-2.9427,-3.0212,-3.093,-3.1034,-3.1073,-3.1401,-3.2083,-3.1951,-3.1719,-2.1745,-2.3238,-2.3331,-2.2978,-2.2327,-2.2272,-2.2254,-2.2226,-2.1887,-2.153,-2.1277,-2.1643,-2.2197,-2.2794,-2.2969,-2.3057,-2.3144,-2.3144,-2.3144,-2.3144,-2.3144,-2.3144,-2.3144,-2.3027,-2.2783,-2.2432,-2.2324,-2.1885,-2.1152,-2.1143,-2.0957,-2.0586,-2.0576,-2.0576,-2.0576,-2.0576,-2.1088,-2.1983,-2.2798,-2.3358,-2.3745,-2.4164,-2.4186,-2.3676,-2.3079,-2.244,-2.1801,-2.1571,-2.1168,-2.0442,-2.0466,-2.0045,-1.9059,-1.8987,-1.8682,0.0,-1.791,0.0,0.0,0.0,0.0,0.0,0.0,0.0,0.0,-2.0527,-2.138,-2.2857,-2.2612,-2.3262,-2.5422,-2.5194,-2.5176,-2.5872,-2.6431,-2.6794,-2.6808,-2.7273,-2.7781,-2.826,-2.7824,-2.7694,-2.81,-2.7316,-2.6895,-2.7389,-2.6649,-2.6533,-2.7882,-2.8115,-2.7984,-2.8187,-2.8187,-2.7752,-2.749,-2.7447,-2.7273,-2.6852,-2.7084,-2.7447,-2.7316,-2.7355,-2.7515,-2.7965,-2.8069,-2.8342,-2.8928,-2.9523,-2.9969,-3.0079,-2.9716,-2.9814,-3.0815,-3.0725,-3.0311,-2.1106,-2.2177,-2.2438,-2.2456,-2.23,-2.1988,-2.1851,-2.1841,-2.1768,-2.1784,-2.1896,-2.1985,-2.2296,-2.2794,-2.2891,-2.2969,-2.3135,-2.3144,-2.3144,-2.3144,-2.3144,-2.3144,-2.3096,-2.2441,-2.208,-2.1953,-2.1269,-2.085,-2.0703,-2.0684,-2.0644,-2.0576,-2.0576,-2.0576,-2.0576,0.0,0.0,0.0,-2.3756,-2.4716,-2.5757,-2.4449,-2.352,-2.3135,-2.1386,0.0,-1.9672,-2.0091,-2.0019,-1.9348,-1.9708,0.0,0.0,0.0,0.0,0.0,0.0,0.0,0.0,0.0,0.0,0.0,-1.9522,-1.996,-2.0926,-2.2683,-2.3914,-2.4279,-2.4657,-2.5103,-2.5704,-2.5697,-2.5893,-2.6533,-2.6707,-2.6794,-2.6794,-2.6881,-2.6823,-2.6373,-2.6228,-2.6199,-2.6329,-2.6097,-2.6242,-2.6765,-2.6286,-2.5952,-2.6271,-2.601,-2.5647,-2.5575,-2.5778,-2.5821,-2.6112,-2.617,-2.6184,-2.601,-2.6039,-2.5995,-2.5668,-2.5806,-2.5961,-2.6198,-2.6749,-2.7431,-2.7705,-2.8192,-2.8728,-2.8764,-2.8671,-2.882,-2.9632,-2.9284,-2.8936,-2.05,0.0,-2.1733,-2.1931,0.0,-2.1823,-2.1731,-2.1731,-2.1731,-2.1731,-2.1919,-2.2008,-2.2264,-2.2618,-2.2715,-2.2775,-2.2842,-2.3047,-2.3027,-2.2842,-2.3047,-2.3144,-2.3125,-2.249,-2.209,-2.1865,-2.1221,-2.0771,-2.0576,-2.0576,-2.0576,-2.0576,-2.0576,-2.0459,-2.0244,-2.0039,-2.0797,-2.2489,-2.2936,-2.3683,-2.4779,-2.3758,-2.3264,-2.3352,0.0,0.0,0.0,0.0,0.0,0.0,0.0,0.0,0.0,0.0,0.0,-1.93,-1.9368,-1.9473,-1.9565,-1.9617,-1.9617,-1.9617,-2.0231,-2.0914,-2.1691,-2.33,-2.4535,-2.5157,-2.5537,-2.5705,-2.5778,-2.5778,-2.5792,-2.5836,-2.5836,-2.5821,-2.5821,-2.5821,-2.5691,-2.54,-2.5313,-2.5313,-2.5342,-2.5633,-2.5749,-2.5792,-2.556,-2.5226,-2.4936,-2.4878,-2.4892,-2.4863,-2.4878,-2.4994,-2.527,-2.5313,-2.5313,-2.5328,-2.5328,-2.5197,-2.4907,-2.5206,-2.5586,-2.591,-2.6598,-2.7216,-2.7648,-2.7987,-2.8256,-2.834,-2.8113,-2.798,-2.8307,-2.8357,-2.8511,-1.9737,-2.0895,-2.105,-2.1308,-2.1554,-2.1679,-2.1731,-2.1731,0.0,0.0,0.0,-2.1919,-2.2138,-2.2328,-2.2513,-2.2553,-2.2432,-2.2754,-2.2734,-2.2422,-2.2754,-2.292,-2.29,-2.249,-2.21,-2.1758,-2.1318,-2.0928,-2.0576,-2.0576,-2.0576,-2.0576,-2.0576,-2.0381,-2.0019,-1.9609,-2.0212,-2.1725,-2.1983,-2.2572,-2.3578,-2.3364,-2.3435,-2.3773,-2.243,-2.1559,-2.1247,-2.0559,-2.0077,-1.9937,-2.0021,-2.0021,-1.9925,-1.9884,-1.9752,-1.9552,-1.947,-1.9512,-1.9798,-1.9798,-1.9798,-1.9798,-2.0797,-2.1693,-2.2251,-2.3317,-2.4346,-2.5423,-2.5568,-2.5618,-2.5618,-2.5618,-2.5415,-2.4829,-2.48,-2.4814,-2.48,-2.48,-2.48,-2.4655,-2.4626,-2.4689,-2.4718,-2.5096,-2.5386,-2.5081,-2.4892,-2.4486,-2.3963,-2.4152,-2.4428,-2.4413,-2.437,-2.4515,-2.4689,-2.4689,-2.4689,-2.4689,-2.4689,-2.4631,-2.4659,-2.4993,-2.5516,-2.5954,-2.6567,-2.7049,-2.7633,-2.7723,-2.7877,-2.8009,-2.7566,-2.7098,-2.7168,-2.7561,-2.7976,-1.8774,-1.9044,-2.0293,-2.0823,-2.0896,-2.1419,-2.1731,-2.1731,-2.1731,-2.1731,-2.1731,-2.1731,-2.1813,-2.1921,-2.1921,-2.1949,-2.1992,-2.2031,-2.2031,0.0,-2.2031,-2.206,-2.2041,-2.1611,-2.1387,-2.1289,-2.0869,-2.0625,-2.0576,-2.0576,-2.0576,-2.0576,-2.0576,-2.0527,-2.0439,-2.0039,-2.0436,-2.1745,-2.2574,-2.3483,-2.4636,-2.4838,-2.4582,-2.3773,-2.2793,-2.1741,-2.0767,-2.1112,-2.1064,-2.055,-2.0935,-2.0971,-2.0514,-2.0181,-1.9989,-2.0042,-1.9784,-1.9656,-1.9798,-1.9798,-1.9798,-1.9836,-2.0444,-2.1224,-2.2227,-2.3381,-2.414,-2.4354,-2.4747,-2.4979,-2.5009,-2.4979,-2.4858,-2.4771,-2.4771,-2.4785,-2.4728,-2.4713,-2.4559,-2.4094,-2.4022,-2.4022,-2.4051,-2.4152,-2.4617,-2.5197,-2.4689,-2.3833,-2.3325,-2.3091,-2.3163,-2.3163,-2.3163,-2.3441,-2.3818,-2.4007,-2.3905,-2.4022,-2.4025,-2.3961,-2.3822,-2.4288,-2.4854,-2.5226,-2.585,-2.6253,-2.6422,-2.6376,-2.6531,-2.6601,-2.6435,-2.6352,-2.6369,-2.6518,-2.6766,-1.8306,-1.8636,-1.9315,-1.9646,-1.9931,-2.0603,-2.1275,-2.1642,-2.1731,-2.1731,-2.1731,-2.1731,-2.1688,-2.1759,-2.1826,-2.1738,-2.1543,-2.1777,-2.1758,-2.1553,-2.1768,-2.1894,-2.1846,-2.1445,-2.124,-2.1201,-2.0781,-2.0576,-2.0576,-2.0576,-2.0576,-2.0557,-2.0332,-2.0215,-2.0176,-1.9785,-1.9999,-2.0783,-2.1292,-2.24,-2.4039,-2.4003,-2.3736,-2.3364,-2.3026,-2.2286,-2.1079,-2.1319,-2.1222,-2.0634,-2.0839,-2.0863,-2.0622,-2.0439,-2.0217,-2.0092,-1.9998,-1.9874,-1.9668,-1.9496,-1.9384,-1.9384,-1.9623,-1.9927,-2.0377,-2.2378,-2.3756,-2.4061,-2.4525,-2.4689,-2.4384,-2.4326,-2.4134,-2.38,-2.3757,-2.3757,-2.3757,-2.3757,-2.3641,-2.3426,-2.3368,-2.3368,-2.3383,-2.3673,-2.4036,-2.4617,-2.4167,-2.363,-2.2975,-2.2628,-2.2511,-2.2772,-2.2613,-2.26,-2.2818,-2.2571,-2.2411,-2.2382,-2.2878,-2.314,-2.3242,-2.3973,-2.4816,-2.5192,-2.5663,-2.599,-2.6046,-2.582,-2.5638,-2.5624,-2.5607,-2.5607,-2.564,-2.5905,-2.6319,-1.7866,-1.8359,-1.8586,-1.8973,-1.9571,-2.0037,-2.0808,-2.1642,-2.1731,-2.1731,-2.1731,-2.1731,-2.1729,-2.1627,-2.1693,-2.148,-2.1131,-2.1435,-2.1406,-2.1143,-2.1435,-2.1592,-2.1553,-2.123,-2.1074,-2.1045,-2.0723,-2.0576,-2.0576,-2.0576,-2.0576,-2.0537,-2.0225,-2.0059,-2.0049,-1.9639,-1.9713,-2.0282,-2.0317,-2.1179,-2.3069,-2.2983,-2.2916,-2.3027,-2.3095,-2.2648,-2.1656,-2.1584,-2.1392,-2.1007,-2.0971,-2.0971,-2.0947,-2.073,-2.0487,-2.0244,-2.0074,-1.9904,-1.9629,-1.9221,-1.9033,-1.9196,-1.9095,-1.8978,-1.9046,-2.1269,-2.2899,-2.3252,-2.3722,-2.3876,-2.331,-2.3194,-2.3035,-2.2526,-2.2468,-2.2453,-2.2453,-2.2453,-2.2453,-2.2453,-2.2453,-2.2453,-2.2569,-2.3064,-2.3426,-2.3426,-2.3572,-2.3383,-2.2598,-2.2048,-2.2033,-2.2236,-2.2077,-2.1858,-2.1841,-2.1493,-2.1231,-2.1292,-2.1962,-2.2501,-2.2913,-2.3943,-2.4649,-2.4915,-2.5255,-2.5452,-2.5572,-2.5259,-2.4911,-2.4862,-2.4845,-2.4845,-2.4878,-2.5425,-2.6005,-1.7667,-1.7816,-1.8373,-1.9359,-2.0416,-2.0312,-2.0808,-2.1651,-2.1642,-2.1731,-2.1731,-2.1731,-2.1581,-2.1259,-2.1296,-2.1077,-2.0674,-2.0674,-2.0684,-2.0654,-2.0674,-2.0693,-2.0742,-2.0664,-2.0635,-2.0644,-2.0605,-2.0596,-2.0576,-2.0576,-2.0576,-2.0566,-2.0518,-2.0488,-2.0449,-2.0068,-2.0436,-2.1587,-2.0762,-2.0965,-2.2276,-2.2987,-2.3222,-2.3015,-2.3055,-2.2714,-2.2149,-2.2125,-2.2101,-2.2053,-2.2005,-2.2017,-2.1933,-2.1139,-2.0689,-2.0795,-1.9993,-1.9562,-1.9734,-1.9271,-1.9221,-1.9635,-1.9246,-1.897,-1.9018,-2.0554,-2.1274,-2.1128,-2.1728,-2.212,-2.1365,-2.1409,-2.1496,-2.1481,-2.138,-2.1162,-2.1264,-2.1177,-2.1177,-2.1177,-2.1322,-2.1206,-2.1452,-2.2004,-2.2294,-2.2483,-2.2802,-2.2686,-2.1728,-2.1249,-2.1104,-2.1191,-2.109,-2.1146,-2.1213,-2.1158,-2.1032,-2.1476,-2.1738,-2.211,-2.2686,-2.3151,-2.35,-2.4239,-2.4231,-2.4381,-2.4331,-2.4116,-2.4116,-2.41,-2.41,-2.4116,-2.4183,-2.4762,-2.5408,-1.7589,-1.7555,-1.7681,-1.8188,-1.8933,-1.866,-1.943,-2.0817,-2.0898,-2.1177,-2.1651,-2.183,-2.1649,-2.1239,-2.1303,-2.1082,-2.0596,-2.0576,-2.0576,-2.0576,-2.0576,-2.0576,-2.0596,-2.085,-2.084,-2.0605,-2.083,-2.083,-2.0605,-2.0576,-2.0576,-2.0576,-2.0576,-2.0576,-2.0547,-2.0391,-2.0544,-2.1078,-2.0661,-2.0815,-2.1523,-2.2749,-2.3202,-2.2846,-2.3239,-2.3207,-2.269,-2.2378,-2.2197,-2.2173,-2.1897,-2.1789,-2.1825,-2.1124,-2.0682,-2.0496,-1.9892,-1.9617,-1.9798,-1.9321,-1.9071,-1.9334,-1.8844,-1.8639,-1.8926,-2.0167,-2.0745,-2.051,-2.1312,-2.2004,-2.2004,-2.1801,-2.1583,-2.1583,-2.1583,-2.1423,-2.1032,-2.0973,-2.0988,-2.0988,-2.0988,-2.1148,-2.1569,-2.2149,-2.2512,-2.2512,-2.2512,-2.2048,-2.1583,-2.0973,-2.0509,-2.0422,-2.024,-2.0206,-2.0494,-2.0235,-2.023,-2.0459,-2.1113,-2.1859,-2.2161,-2.3068,-2.3669,-2.3852,-2.3852,-2.3901,-2.4067,-2.3586,-2.3354,-2.3354,-2.3371,-2.3454,-2.3884,-2.458,-2.5044,-1.7468,-1.7408,-1.7068,-1.7258,-1.7794,-1.7465,-1.8241,-1.9795,-1.9886,-2.0439,-2.1275,-2.1535,-2.1609,-2.1438,-2.1434,-2.1211,-2.0791,-2.0625,-2.0576,-2.0586,-2.0684,-2.0752,-2.0781,-2.1074,-2.1064,-2.083,-2.0937,-2.0869,-2.0596,-2.0576,-2.0576,-2.0576,-2.0576,-2.0576,-2.0576,-2.0576,-2.0576,-2.0557,-2.0469,-2.0529,-2.0839,-2.202,-2.2725,-2.2617,-2.3207,-2.3364,-2.2991,-2.2474,-2.2197,-2.2185,-2.1741,-2.1511,-2.1593,-2.0973,-2.0465,-2.0101,-1.9788,-1.9708,-1.9798,-1.9321,-1.9046,-1.9121,-1.8744,-1.8513,-1.9016,-2.0047,-2.0612,-2.0473,-2.1369,-2.2164,-2.2251,-2.1989,-2.1685,-2.1525,-2.1481,-2.1206,-2.0553,-2.048,-2.0436,-2.048,-2.0349,-2.0727,-2.1351,-2.1786,-2.1932,-2.1888,-2.1699,-2.1407,-2.1218,-2.0404,-1.9905,-1.989,-1.9572,-1.9551,-1.9859,-1.9713,-1.9406,-1.975,-2.0625,-2.1175,-2.1471,-2.2573,-2.3177,-2.2879,-2.3256,-2.3354,-2.3106,-2.2775,-2.2642,-2.2609,-2.2642,-2.2791,-2.3089,-2.395,-2.4133,-1.7174,-1.7081,-1.6553,-1.6891,-1.7786,-1.737,-1.7878,-1.888,-1.888,-1.943,-2.0439,-2.0674,-2.1103,-2.176,-2.1604,-2.1375,-2.1182,-2.0752,-2.0576,-2.0605,-2.0957,-2.1182,-2.1211,-2.123,-2.1211,-2.1064,-2.084,-2.0644,-2.0576,-2.0576,-2.0576,-2.0576,-2.0576,-2.0576,-2.0576,-2.0576,-2.0576,-2.0537,-2.0225,-1.9961,-2.0062,-2.0777,-2.1722,-2.2457,-2.2899,-2.3099,-2.2955,-2.2486,-2.2209,-2.2197,-2.1777,-2.1534,-2.152,-2.0721,-2.0077,-1.9688,-1.9733,-1.9798,-1.9748,-1.9346,-1.9246,-1.9585,-1.9221,-1.897,-1.9093,-2.0307,-2.0948,-2.0634,-2.1419,-2.1787,-2.1396,-2.1352,-2.1017,-2.0553,-2.032,-2.0016,-1.9362,-1.942,-1.9217,-1.9275,-1.9406,-1.9754,-2.0219,-2.0204,-2.0494,-2.0524,-2.0335,-2.0215,-2.0045,-1.9631,-1.9507,-1.9545,-1.9509,-1.9406,-1.9472,-1.9487,-1.9647,-1.9884,-2.0137,-2.0466,-2.094,-2.1421,-2.1689,-2.1892,-2.2165,-2.2195,-2.198,-2.1913,-2.1963,-2.198,-2.2013,-2.2162,-2.2427,-2.2675,-2.2926,-1.6921,-1.6573,-1.6359,-1.6456,-1.6457,-1.6434,-1.6857,-1.787,-1.8519,-1.9338,-2.0296,-2.1076,-2.1506,-2.1797,-2.1447,-2.1306,-2.1201,-2.0771,-2.0576,-2.0586,-2.0732,-2.081,-2.084,-2.1084,-2.1064,-2.085,-2.0928,-2.084,-2.0586,-2.0576,-2.0576,-2.0576,-2.0576,-2.0576,-2.0576,-2.0576,-2.0576,-2.0547,-2.04,-2.0205,-1.9977,-2.0703,-2.1352,-2.1918,-2.2788,-2.3396,-2.3603,-2.3031,-2.266,-2.2518,-2.1593,-2.1165,-2.1297,-2.0457,-1.9868,-1.9745,-1.9747,-1.9798,-1.9773,-1.9635,-1.9597,-1.9723,-1.9321,-1.9133,-1.951,-2.0067,-2.0534,-2.1064,-2.134,-2.1587,-2.178,-2.1701,-2.1554,-2.1322,-2.0915,-2.0407,-1.9841,-1.9391,-1.9116,-1.9174,-1.9459,-1.9919,-2.0011,-2.0206,-2.0567,-2.1073,-2.0356,-2.0187,-2.0812,-2.0543,-2.0032,-2.0032,-2.0041,-1.9968,-1.9553,-1.9553,-1.9647,-1.9797,-1.999,-2.0235,-2.0597,-2.1103,-2.1469,-2.1609,-2.1648,-2.1797,-2.1847,-2.1831,-2.1781,-2.1781,-2.1781,-2.1781,-2.1797,-2.2312,-2.2428,-1.672,-1.6293,-1.6172,-1.6019,-1.5838,-1.5825,-1.6204,-1.6943,-1.787,-1.8824,-1.9676,-2.0781,-2.1312,-2.1532,-2.1226,-2.116,-2.1191,-2.0771,-2.0576,-2.0586,-2.0713,-2.0781,-2.083,-2.1094,-2.1084,-2.083,-2.0918,-2.084,-2.0605,-2.0576,-2.0576,-2.0576,-2.0576,-2.0576,-2.0576,-2.0576,-2.0518,-2.0381,-2.0234,-1.9922,-1.9634,-1.9995,-2.0636,-2.1337,-2.2246,-2.312,-2.3705,-2.3195,-2.2834,-2.2543,-2.1575,-2.0883,-2.0765,-2.0173,-1.9798,-1.9798,-1.9798,-1.9798,-1.9798,-1.9798,-1.9798,-1.9798,-1.951,-1.9447,-1.9787,-1.9948,-2.0466,-2.0997,-2.1334,-2.1575,-2.1805,-2.1823,-2.1796,-2.1685,-2.1296,-2.077,-2.0175,-1.9696,-1.9362,-1.9203,-1.9497,-1.9885,-2.0109,-2.027,-2.0808,-2.1695,-2.0705,-2.0715,-2.1495,-2.1359,-2.0774,-2.0798,-2.0891,-2.0593,-2.0221,-2.0072,-1.9789,-1.9882,-1.9833,-2.0015,-2.0308,-2.0827,-2.1231,-2.1341,-2.1511,-2.1708,-2.1797,-2.1797,-2.1781,-2.1781,-2.1781,-2.1781,-2.191,-2.2119,-2.2235,-1.6526,-1.6226,-1.5959,-1.5845,-1.5825,-1.5798,-1.5812,-1.6075,-1.6893,-1.7705,-1.8548,-1.9545,-2.0522,-2.107,-2.0962,-2.096,-2.1004,-2.0742,-2.0576,-2.0605,-2.0957,-2.1113,-2.1123,-2.1133,-2.1152,-2.1084,-2.0771,-2.0596,-2.0576,-2.0576,-2.0576,-2.0576,-2.0576,-2.0576,-2.0576,-2.0557,-2.0352,-2.001,-1.9697,-1.9228,-1.865,-1.884,-1.9514,-2.0736,-2.1369,-2.206,-2.3159,-2.291,-2.2727,-2.264,-2.1724,-2.0802,-2.006,-1.9836,-1.9798,-1.9798,-1.9798,-1.9798,-1.9798,-1.9798,-1.9798,-1.9798,-1.9773,-1.9736,-1.9812,-2.0206,-2.0508,-2.0733,-2.0979,-2.1321,-2.1369,-2.124,-2.123,-2.1226,-2.1026,-2.0688,-2.0262,-2.0074,-1.9827,-1.9299,-1.9315,-1.9595,-2.0035,-2.0318,-2.0749,-2.1211,-2.1311,-2.1351,-2.1821,-2.1702,-2.1605,-2.1655,-2.1665,-2.1386,-2.1013,-2.0654,-2.0288,-1.9981,-1.9816,-1.9854,-2.0231,-2.0673,-2.1244,-2.1472,-2.19,-2.2098,-2.2079,-2.2046,-2.1814,-2.1781,-2.1781,-2.188,-2.2159,-2.2322,-2.2159,-1.6233,-1.5972,-1.5872,-1.5825,-1.5798,-1.5618,-1.5531,-1.5597,-1.6399,-1.7115,-1.7954,-1.8854,-1.9775,-2.0527,-2.0579,-2.0624,-2.0762,-2.0615,-2.0576,-2.0596,-2.0723,-2.0791,-2.0781,-2.0781,-2.0781,-2.0762,-2.0635,-2.0576,-2.0576,-2.0576,-2.0576,-2.0576,-2.0576,-2.0576,-2.0576,-2.0557,-2.0352,-1.999,-2.0088,-1.9697,-1.8789,-1.8926,-1.9494,-2.028,-2.072,-2.1502,-2.275,-2.287,-2.2872,-2.28,-2.1666,-2.0692,-1.9997,-1.9798,-1.9798,-1.9798,-1.9798,-1.9798,-1.9798,-1.9798,-1.9798,-1.9798,-1.9798,-1.9798,-1.9798,-1.9952,-2.0207,-2.0459,-2.0446,-2.0434,-2.0627,-2.0043,-2.014,-2.1097,-2.0768,-2.0426,-2.0193,-1.974,-1.94,-1.9286,-1.9317,-1.9494,-1.9715,-2.0123,-2.0852,-2.1336,-2.1579,-2.1898,-2.2557,-2.245,-2.2342,-2.2353,-2.2334,-2.2143,-2.1665,-2.1321,-2.1036,-2.0572,-2.0243,-2.0068,-2.034,-2.0911,-2.141,-2.1746,-2.2162,-2.2349,-2.2361,-2.2178,-2.1897,-2.1814,-2.1831,-2.2079,-2.2427,-2.2493,-2.2363,-1.6159,-1.5992,-1.5872,-1.5758,-1.5658,-1.5464,-1.5331,-1.5399,-1.6077,-1.6615,-1.7165,-1.8078,-1.9062,-1.973,-1.9888,-2.0177,-2.0566,-2.0576,-2.0576,-2.0576,-2.0576,-2.0576,-2.0576,-2.0576,-2.0576,-2.0576,-2.0576,-2.0576,-2.0576,-2.0576,-2.0576,-2.0576,-2.0576,-2.0576,-2.0576,-2.0557,-2.0352,-2.0019,-2.0166,-1.9785,-1.8936,-1.8906,-1.9393,-2.0085,-2.015,-2.0985,-2.2494,-2.2392,-2.2442,-2.2675,-2.1853,-2.0889,-2.0213,-1.9936,-1.9798,-1.9798,-1.9798,-1.9798,-1.9798,-1.9798,-1.9798,-1.9798,-1.9798,-1.9798,-1.9798,-1.9798,-2.0003,-2.0156,-2.0042,-1.9825,-1.9848,-1.9397,-1.9482,-2.0467,-2.023,-2.0174,-2.028,-1.9934,-1.9651,-1.9692,-1.959,-1.9598,-1.9901,-2.0533,-2.1147,-2.149,-2.2047,-2.2383,-2.3103,-2.3059,-2.3011,-2.2966,-2.2996,-2.2682,-2.2188,-2.1934,-2.1769,-2.1306,-2.0827,-2.0699,-2.0737,-2.1553,-2.2223,-2.2151,-2.2417,-2.2429,-2.241,-2.2079,-2.1814,-2.1847,-2.2046,-2.198,-2.2245,-2.2663,-2.2696,-1.6226,-1.6206,-1.5925,-1.5645,-1.5424,-1.5364,-1.5184,-1.5136,-1.5736,-1.5988,-1.6212,-1.7235,-1.815,-1.8629,-1.9222,-1.9766,-2.0489,-2.0576,-2.0576,-2.0576,-2.0576,-2.0576,-2.0576,-2.0576,-2.0576,-2.0576,-2.0576,-2.0576,-2.0576,-2.0576,-2.0576,-2.0576,-2.0576,-2.0576,-2.0576,-2.0576,-2.0352,-1.998,-1.9941,-1.9521,-1.8621,-1.8582,-1.9051,-2.0042,-1.9759,-2.0409,-2.1916,-2.1653,-2.168,-2.2596,-2.18,-2.1091,-2.0589,-2.0087,-1.9798,-1.9798,-1.9798,-1.9798,-1.9798,-1.9798,-1.9798,-1.9798,-1.9798,-1.9798,-1.9798,-1.9798,-1.985,-1.9901,-1.985,-1.9597,-1.9258,-1.8943,-1.9132,-1.9404,-1.9726,-2.0182,-2.0808,-2.0421,-2.0191,-2.0121,-1.9938,-1.9753,-2.0243,-2.0983,-2.1371,-2.171,-2.2387,-2.2757,-2.2787,-2.2877,-2.3385,-2.3415,-2.3266,-2.3221,-2.2742,-2.2682,-2.2488,-2.2039,-2.1659,-2.1628,-2.1556,-2.2321,-2.3311,-2.3177,-2.2795,-2.2694,-2.2675,-2.2609,-2.2559,-2.2775,-2.2609,-2.2079,-2.2294,-2.2975,-2.3191,-1.5752,-1.5905,-1.5631,-1.5464,-1.5364,-1.517,-1.491,-1.4623,-1.4654,-1.5057,-1.5533,-1.6012,-1.7212,-1.8567,-1.8966,-1.9608,-2.0323,-2.0566,-2.0576,-2.0576,-2.0576,-2.0576,-2.0576,-2.0576,-2.0576,-2.0576,-2.0576,-2.0576,-2.0576,-2.0576,-2.0576,-2.0576,-2.0576,-2.0576,-2.0576,-2.0576,-2.0332,-1.9971,-1.9912,-1.9492,-1.8708,-1.8562,-1.8824,-1.9229,-1.9431,-2.0009,-2.1175,-2.1549,-2.1451,-2.1064,-2.1024,-2.0614,-2.015,-1.9911,-1.9798,-1.9798,-1.9798,-1.9798,-1.9798,-1.9798,-1.9798,-1.9798,-1.9798,-1.9798,-1.9798,-1.9798,-1.9798,-1.9798,-1.9786,-1.9585,-1.9046,-1.8668,-1.8539,-1.8601,-1.9749,-2.0477,-2.0123,-2.0156,-2.0224,-1.9879,-1.9708,-1.9745,-2.0027,-2.052,-2.0991,-2.1126,-2.1665,-2.2233,-2.2173,-2.2607,-2.3086,-2.3146,-2.3116,-2.3355,-2.3415,-2.337,-2.3161,-2.2742,-2.2585,-2.2717,-2.2794,-2.3201,-2.4333,-2.5106,-2.405,-2.3719,-2.3901,-2.3984,-2.3951,-2.347,-2.3023,-2.2526,-2.3255,-2.3901,-2.3819,-1.5424,-1.5458,-1.5284,-1.5137,-1.5017,-1.4843,-1.4609,-1.4349,-1.4168,-1.4412,-1.4985,-1.5151,-1.637,-1.8149,-1.8479,-1.9125,-2.0001,-2.0089,-2.001,-2.0098,-2.0411,-2.0566,-2.0576,-2.0576,-2.0576,-2.0576,-2.0576,-2.0576,-2.0576,-2.0576,-2.0576,-2.0576,-2.0576,-2.0576,-2.0576,-2.0557,-2.0342,-1.999,-1.9883,-1.9492,-1.863,-1.8562,-1.8863,-1.9081,-1.9233,-1.9509,-2.0459,-2.1594,-2.1851,-2.1338,-2.1087,-2.0752,-2.0213,-1.9911,-1.9811,-1.9798,-1.9798,-1.9798,-1.9798,-1.9798,-1.9798,-1.9798,-1.9798,-1.9798,-1.9798,-1.9798,-1.9798,-1.9798,-1.9798,-1.9535,-1.912,-1.884,-1.8773,-1.9003,-2.0246,-2.0862,-1.9952,-2.0233,-2.0324,-2.0102,-1.9826,-1.9632,-1.9705,-2.0288,-2.0453,-2.0572,-2.1201,-2.1395,-2.1455,-2.2143,-2.2712,-2.2847,-2.3131,-2.343,-2.3505,-2.3475,-2.3295,-2.2936,-2.3209,-2.3379,-2.3535,-2.3808,-2.4507,-2.516,-2.4891,-2.4696,-2.4679,-2.4464,-2.3868,-2.3421,-2.3123,-2.3007,-2.3404,-2.3735,-2.3768,-1.5197,-1.4963,-1.4937,-1.477,-1.4563,-1.4516,-1.4382,-1.4135,-1.4095,-1.425,-1.4405,-1.465,-1.5786,-1.7496,-1.7674,-1.8327,-1.9292,-1.9371,-1.946,-1.9775,-2.0255,-2.0576,-2.0576,-2.0576,-2.0576,-2.0576,-2.0576,-2.0576,-2.0576,-2.0576,-2.0576,-2.0576,-2.0576,-2.0518,-2.0439,-2.0449,-2.0254,-1.9853,-1.9658,-1.9316,-1.865,-1.8535,-1.8714,-1.8993,-1.8988,-1.9479,-2.054,-2.1572,-2.2172,-2.2309,-2.1732,-2.1091,-2.0643,-2.0112,-1.9836,-1.9798,-1.9798,-1.9798,-1.9798,-1.9798,-1.9798,-1.9798,-1.9798,-1.9798,-1.9798,-1.9798,-1.9798,-1.9798,-1.9798,-1.9585,-1.9341,-1.9423,-1.959,-1.9792,-2.0779,-2.0956,-2.0739,-2.057,-2.054,-2.0624,-2.0109,-1.9765,-1.9929,-2.0168,-2.0423,-2.0453,-2.0961,-2.1186,-2.147,-2.2128,-2.2547,-2.2712,-2.3101,-2.355,-2.355,-2.349,-2.3266,-2.3083,-2.3522,-2.3751,-2.3804,-2.4067,-2.442,-2.4717,-2.4944,-2.4956,-2.4829,-2.4414,-2.3951,-2.357,-2.3421,-2.2857,-2.2477,-2.2758,-2.2874,-1.5023,-1.4943,-1.471,-1.4576,-1.4522,-1.4509,-1.4349,-1.4095,-1.4088,-1.4166,-1.425,-1.4573,-1.5296,-1.6175,-1.669,-1.7602,-1.8859,-1.9027,-1.945,-2.0333,-2.0489,-2.0566,-2.0547,-2.0518,-2.0547,-2.0557,-2.0566,-2.0557,-2.0557,-2.0488,-2.0557,-2.0518,-2.042,-2.0391,-2.0088,-2.0039,-1.9844,-1.9434,-1.9111,-1.8887,-1.8633,-1.8311,-1.8262,-1.8462,-1.8911,-1.9966,-2.1249,-2.1834,-2.2067,-2.2023,-2.1468,-2.0995,-2.0627,-2.0125,-1.9823,-1.9798,-1.9798,-1.9798,-1.9798,-1.9798,-1.9798,-1.9798,-1.9798,-1.9798,-1.9798,-1.9798,-1.9798,-1.9798,-1.9786,-1.9813,-1.9878,-1.9758,-2.0114,-2.0552,-2.0753,-2.0985,-2.1252,-2.0983,-2.0699,-2.058,-2.0228,-1.9899,-2.0378,-2.0124,-2.0288,-2.0453,-2.0767,-2.1096,-2.1605,-2.2158,-2.2458,-2.2697,-2.3161,-2.358,-2.355,-2.3445,-2.3161,-2.3071,-2.3525,-2.3697,-2.3769,-2.4264,-2.4592,-2.496,-2.5297,-2.5239,-2.5076,-2.506,-2.4729,-2.4249,-2.3719,-2.3305,-2.2907,-2.2626,-2.2477,-1.4803,-1.4543,-1.4382,-1.4315,-1.4315,-1.4315,-1.4229,-1.4108,-1.4088,-1.4166,-1.4243,-1.4482,-1.4982,-1.5665,-1.6047,-1.6782,-1.7553,-1.832,-1.8937,-1.9599,-2.0024,-2.0254,-2.0195,-2.0117,-2.0107,-2.043,-2.0332,-2.0273,-2.0225,-2.0078,-1.9922,-1.9971,-1.998,-1.9824,-1.9658,-1.9609,-1.9385,-1.9043,-1.876,-1.8555,-1.832,-1.8144,-1.8076,-1.8395,-1.9299,-2.0515,-2.1267,-2.2113,-2.2469,-2.2443,-2.1882,-2.1209,-2.0706,-2.0125,-1.9836,-1.9798,-1.9798,-1.9798,-1.9798,-1.9798,-1.9798,-1.9798,-1.9798,-1.9798,-1.9798,-1.9798,-1.9798,-1.9811,-1.9901,-2.0129,-2.0697,-2.0392,-2.0662,-2.1322,-2.1252,-2.1233,-2.1461,-2.1126,-2.0872,-2.1006,-2.0932,-2.0902,-2.0887,-2.0632,-2.0737,-2.1171,-2.1201,-2.15,-2.165,-2.2158,-2.2488,-2.2817,-2.3266,-2.355,-2.3535,-2.337,-2.3056,-2.3056,-2.3293,-2.3272,-2.3197,-2.3937,-2.4736,-2.5089,-2.5422,-2.5471,-2.5374,-2.5407,-2.5193,-2.4464,-2.3934,-2.3768,-2.3437,-2.2924,-2.2808,-1.4623,-1.4088,-1.4088,-1.4088,-1.4088,-1.4095,-1.4095,-1.4088,-1.4088,-1.4166,-1.43,-1.4364,-1.466,-1.5168,-1.5412,-1.5602,-1.6452,-1.7656,-1.8747,-1.9004,-1.9599,-1.9824,-1.9756,-1.9619,-1.9678,-2.0273,-1.999,-1.9834,-1.9727,-1.9502,-1.9463,-1.9336,-1.9316,-1.9316,-1.9238,-1.917,-1.8975,-1.8594,-1.8506,-1.8359,-1.8115,-1.8095,-1.8202,-1.8798,-1.9628,-2.0643,-2.1279,-2.2113,-2.2859,-2.304,-2.2598,-2.1807,-2.0966,-2.0275,-1.9849,-1.9836,-1.9798,-1.9798,-1.9798,-1.9798,-1.9798,-1.9798,-1.9798,-1.9798,-1.9798,-1.985,-1.9862,-1.9862,-2.0016,-2.0459,-2.1452,-2.123,-2.1443,-2.2104,-2.1972,-2.1853,-2.1804,-2.1425,-2.1455,-2.1665,-2.156,-2.1455,-2.159,-2.1545,-2.1695,-2.1814,-2.1844,-2.1919,-2.2099,-2.2293,-2.2712,-2.2966,-2.34,-2.331,-2.3236,-2.349,-2.3146,-2.2892,-2.3086,-2.3155,-2.3058,-2.3805,-2.4632,-2.516,-2.5459,-2.554,-2.557,-2.5524,-2.5143,-2.4481,-2.4133,-2.3967,-2.3586,-2.3139,-2.3272,-1.4623,-1.4088,-1.4088,-1.4082,-1.4082,-1.4082,-1.4055,-1.4088,-1.4041,-1.4082,-1.4112,-1.4062,-1.4001,-1.4061,-1.3933,-1.4695,-1.6333,-1.7904,-1.8928,-1.9027,-1.9321,-1.9385,-1.9355,-1.9219,-1.9336,-1.9434,-1.9375,-1.9336,-1.9375,-1.9316,-1.9131,-1.9228,-1.9209,-1.9072,-1.8809,-1.8721,-1.8564,-1.8262,-1.8193,-1.8096,-1.8047,-1.8144,-1.8472,-1.9075,-1.9715,-2.0473,-2.1428,-2.1939,-2.2384,-2.2955,-2.2539,-2.2008,-2.1355,-2.0778,-2.0326,-1.9911,-1.9798,-1.9798,-1.9798,-1.9798,-1.9798,-1.9798,-1.9798,-1.9798,-1.9798,-1.9914,-1.9978,-1.9978,-2.0131,-2.0523,-2.1188,-2.1349,-2.1974,-2.2511,-2.2655,-2.264,-2.2921,-2.2682,-2.2278,-2.2443,-2.2173,-2.1949,-2.2188,-2.2323,-2.2323,-2.2413,-2.2503,-2.2682,-2.2921,-2.3026,-2.3221,-2.3385,-2.3535,-2.3221,-2.2933,-2.3266,-2.331,-2.2802,-2.2903,-2.336,-2.344,-2.3902,-2.4465,-2.4926,-2.5406,-2.566,-2.5642,-2.562,-2.5441,-2.5027,-2.4613,-2.4216,-2.4,-2.3835,-2.4,-1.4028,-1.3641,-1.3634,-1.3634,-1.3634,-1.3641,-1.3634,-1.3634,-1.3634,-1.3634,-1.3587,-1.3554,-1.3473,-1.3371,-1.3759,-1.4941,-1.6749,-1.7841,-1.8642,-1.887,-1.8955,-1.8945,-1.8906,-1.876,-1.8799,-1.8818,-1.876,-1.8789,-1.8896,-1.8701,-1.8682,-1.8613,-1.8633,-1.8506,-1.8369,-1.8301,-1.8213,-1.8027,-1.8008,-1.8008,-1.8008,-1.8144,-1.8472,-1.8808,-1.9649,-2.0473,-2.1112,-2.2261,-2.2702,-2.2967,-2.2815,-2.2297,-2.1669,-2.1192,-2.0702,-1.9999,-1.9798,-1.9798,-1.9798,-1.9798,-1.9798,-1.9798,-1.9862,-1.9914,-1.9926,-2.0029,-2.0144,-2.0207,-2.0182,-2.0523,-2.1251,-2.1479,-2.1988,-2.2651,-2.2864,-2.3096,-2.3344,-2.3266,-2.3161,-2.3086,-2.2906,-2.2817,-2.2981,-2.3026,-2.2936,-2.2996,-2.3116,-2.3295,-2.3535,-2.34,-2.3295,-2.3475,-2.352,-2.343,-2.3101,-2.3281,-2.3505,-2.3041,-2.2858,-2.3314,-2.3622,-2.3956,-2.4241,-2.4517,-2.4997,-2.5481,-2.5888,-2.5936,-2.5737,-2.564,-2.5425,-2.5143,-2.4779,-2.463,-2.4746,-1.3393,-1.3206,-1.3206,-1.3206,-1.3206,-1.3213,-1.322,-1.3206,-1.3227,-1.3247,-1.32,-1.314,-1.2986,-1.307,-1.3877,-1.5177,-1.6933,-1.7276,-1.7903,-1.8434,-1.8516,-1.8506,-1.8408,-1.8271,-1.8232,-1.8437,-1.8291,-1.8184,-1.8398,-1.8262,-1.8066,-1.8115,-1.8047,-1.8008,-1.8037,-1.8076,-1.8008,-1.8076,-1.8008,-1.8008,-1.8076,-1.8086,-1.8144,-1.8212,-1.9562,-2.0344,-2.0921,-2.1803,-2.2641,-2.2944,-2.3,-2.2623,-2.1707,-2.1481,-2.0953,-2.0037,-1.9811,-1.9798,-1.9798,-1.9798,-1.9798,-1.9798,-1.9914,-1.9926,-2.0042,-2.0144,-2.0347,-2.0461,-2.0448,-2.0536,-2.1082,-2.1348,-2.1846,-2.2452,-2.292,-2.3157,-2.345,-2.352,-2.349,-2.3475,-2.352,-2.3445,-2.3355,-2.3415,-2.3266,-2.3266,-2.3355,-2.3116,-2.3281,-2.3011,-2.2966,-2.3266,-2.343,-2.3565,-2.3475,-2.343,-2.3565,-2.34,-2.3266,-2.3501,-2.3719,-2.3937,-2.4162,-2.4369,-2.4664,-2.5176,-2.568,-2.6043,-2.5773,-2.5724,-2.6013,-2.5952,-2.5508,-2.5292,-2.5342,-1.3312,-1.3206,-1.32,-1.3206,-1.3186,-1.3173,-1.3193,-1.318,-1.3153,-1.3206,-1.3113,-1.2926,-1.2849,-1.3147,-1.3748,-1.4623,-1.5694,-1.6749,-1.7539,-1.8095,-1.8154,-1.8154,-1.8105,-1.8057,-1.8037,-1.8164,-1.8066,-1.8027,-1.8115,-1.8066,-1.8018,-1.8008,-1.8008,-1.8008,-1.8008,-1.8008,-1.8076,-1.8212,-1.8076,-1.8144,-1.8357,-1.8424,-1.8617,-1.8875,-1.9253,-1.9901,-2.0741,-2.1439,-2.2002,-2.2932,-2.3053,-2.2573,-2.1707,-2.1481,-2.0865,-2.0175,-1.9798,-1.9798,-1.9798,-1.9798,-1.9798,-1.9811,-1.9862,-1.9875,-2.0093,-2.0296,-2.0498,-2.0662,-2.0599,-2.0649,-2.0934,-2.1479,-2.1941,-2.2406,-2.283,-2.3246,-2.3551,-2.3595,-2.3595,-2.3505,-2.3445,-2.3415,-2.3355,-2.349,-2.358,-2.3595,-2.3535,-2.3295,-2.3131,-2.2966,-2.2739,-2.3023,-2.3385,-2.3565,-2.3638,-2.3638,-2.3595,-2.3595,-2.3638,-2.3638,-2.3739,-2.3867,-2.4094,-2.4328,-2.4542,-2.4648,-2.4981,-2.5269,-2.5465,-2.5684,-2.5828,-2.6043,-2.6137,-2.6005,-2.5874,-1.2498,-1.2699,-1.2699,-1.2699,-1.2699,-1.2692,-1.2692,-1.2699,-1.2692,-1.2692,-1.2679,-1.2565,-1.2933,-1.3638,-1.4369,-1.5267,-1.6385,-1.7019,-1.7579,-1.794,-1.8008,-1.8008,-1.8018,-1.8008,-1.8008,-1.8008,-1.8008,-1.8008,-1.8008,-1.8008,-1.8008,-1.8008,-1.8008,-1.8008,-1.8008,-1.8008,-1.8144,-1.8202,-1.8279,-1.8347,-1.8482,-1.8482,-1.8607,-1.8798,-1.9177,-1.9759,-2.0333,-2.1365,-2.1803,-2.2555,-2.2575,-2.2322,-2.1606,-2.1167,-2.0614,-1.9949,-1.9798,-1.9798,-1.9798,-1.9798,-1.9862,-1.9875,-1.9926,-2.0029,-2.0246,-2.041,-2.0562,-2.0699,-2.0699,-2.0699,-2.0699,-2.1068,-2.1589,-2.2049,-2.2589,-2.3098,-2.3421,-2.3551,-2.358,-2.3475,-2.337,-2.3325,-2.3251,-2.3161,-2.3266,-2.3355,-2.3415,-2.3385,-2.334,-2.3355,-2.3068,-2.2836,-2.326,-2.3595,-2.3696,-2.3739,-2.3653,-2.3653,-2.3696,-2.3696,-2.3696,-2.3824,-2.4036,-2.4094,-2.4105,-2.423,-2.4338,-2.4704,-2.5137,-2.5384,-2.5626,-2.5828,-2.6043,-2.6329,-2.623,-1.1855,-1.215,-1.2224,-1.2305,-1.2305,-1.2305,-1.2318,-1.2311,-1.2331,-1.2318,-1.2305,-1.2311,-1.2959,-1.3882,-1.4402,-1.5259,-1.6821,-1.7235,-1.7647,-1.7862,-1.8008,-1.8008,-1.8008,-1.8008,-1.8008,-1.8008,-1.8008,-1.8008,-1.8008,-1.8008,-1.8008,-1.8008,-1.8076,-1.8076,-1.8076,-1.8144,-1.8269,-1.8337,-1.8482,-1.8479,-1.8445,-1.8415,-1.8344,-1.8522,-1.8947,-1.9544,-1.9921,-2.1014,-2.1803,-2.1922,-2.2206,-2.2046,-2.1317,-2.0891,-2.0464,-1.9949,-1.9798,-1.9811,-1.985,-1.985,-1.9875,-1.999,-2.0156,-2.0246,-2.041,-2.0524,-2.0562,-2.0699,-2.0699,-2.0699,-2.0749,-2.0848,-2.1264,-2.1718,-2.2067,-2.268,-2.3187,-2.3319,-2.3478,-2.346,-2.3355,-2.3221,-2.3086,-2.2847,-2.2877,-2.3056,-2.3221,-2.3413,-2.3458,-2.3488,-2.3303,-2.2949,-2.3387,-2.3709,-2.3782,-2.3839,-2.3739,-2.3739,-2.3782,-2.3797,-2.3782,-2.3839,-2.4009,-2.3967,-2.3882,-2.4009,-2.4261,-2.4533,-2.4799,-2.4958,-2.5192,-2.5605,-2.5881,-2.6222,-2.6485,-1.1558,-1.1787,-1.215,-1.2305,-1.2305,-1.2305,-1.2305,-1.2305,-1.2318,-1.2331,-1.2351,-1.2305,-1.2445,-1.2806,-1.3753,-1.4537,-1.5455,-1.6315,-1.7088,-1.7716,-1.8008,-1.8008,-1.8008,-1.8008,-1.8008,-1.8008,-1.8008,-1.8008,-1.8008,-1.8008,-1.8008,-1.8008,-1.8144,-1.8202,-1.8269,-1.8279,-1.8347,-1.8482,-1.8674,-1.8548,-1.8334,-1.8236,-1.8083,-1.7976,-1.83,-1.8807,-1.9441,-2.0432,-2.1225,-2.132,-2.1728,-2.1757,-2.1004,-2.0706,-2.0355,-1.9988,-1.9862,-1.9926,-1.9914,-1.9862,-1.9875,-2.0042,-2.0246,-2.041,-2.0524,-2.0612,-2.0649,-2.0712,-2.0699,-2.0699,-2.0799,-2.1046,-2.1215,-2.1541,-2.1908,-2.2466,-2.292,-2.3098,-2.3245,-2.3374,-2.3355,-2.3236,-2.3026,-2.2802,-2.2873,-2.3068,-2.3288,-2.3453,-2.336,-2.333,-2.3277,-2.3197,-2.3633,-2.3864,-2.3925,-2.3925,-2.3882,-2.3839,-2.3882,-2.3925,-2.3925,-2.4024,-2.4067,-2.4109,-2.4067,-2.4124,-2.4166,-2.4343,-2.4492,-2.4558,-2.4799,-2.5323,-2.5791,-2.6189,-2.6382,-1.1558,-1.1706,-1.2003,-1.2077,-1.215,-1.2224,-1.2305,-1.2338,-1.2492,-1.2579,-1.2545,-1.2392,-1.2592,-1.3105,-1.3608,-1.4402,-1.5251,-1.6315,-1.6941,-1.7364,-1.7716,-1.794,-1.8008,-1.8008,-1.8008,-1.8008,-1.8008,-1.8008,-1.8008,-1.8008,-1.8008,-1.8076,-1.8134,-1.8076,-1.8144,-1.8414,-1.8482,-1.8617,-1.8808,-1.8874,-1.8761,-1.8366,-1.8235,-1.8195,-1.7905,-1.8291,-1.8837,-1.9337,-2.0033,-2.0605,-2.0872,-2.0859,-2.0743,-2.0534,-2.0295,-2.0054,-2.0029,-2.008,-2.008,-2.0029,-1.9978,-2.0131,-2.0347,-2.0524,-2.0524,-2.0562,-2.0612,-2.0662,-2.0699,-2.0699,-2.0749,-2.0848,-2.1033,-2.141,-2.1779,-2.2235,-2.2603,-2.2785,-2.3143,-2.3288,-2.3357,-2.3281,-2.3041,-2.2787,-2.2933,-2.3137,-2.3314,-2.3489,-2.3413,-2.3425,-2.3477,-2.3503,-2.3869,-2.4006,-2.4067,-2.4024,-2.3982,-2.3982,-2.3982,-2.4024,-2.4024,-2.4124,-2.4166,-2.4208,-2.425,-2.4208,-2.4166,-2.4109,-2.4219,-2.4426,-2.4759,-2.5176,-2.5647,-2.6137,-2.633,-1.1403,-1.1558,-1.17,-1.1929,-1.2077,-1.2231,-1.2305,-1.2338,-1.2505,-1.2619,-1.2592,-1.2459,-1.2586,-1.3171,-1.368,-1.4394,-1.5251,-1.6167,-1.6802,-1.7364,-1.7794,-1.8008,-1.8008,-1.8008,-1.8008,-1.8008,-1.8008,-1.8008,-1.8008,-1.8008,-1.8008,-1.8008,-1.8066,-1.8144,-1.8279,-1.8482,-1.8684,-1.8741,-1.8942,-1.8847,-1.8671,-1.835,-1.7874,-1.7781,-1.7533,-1.7655,-1.8223,-1.8753,-1.9408,-1.991,-2.02,-2.0345,-2.0404,-2.0308,-2.0169,-2.0182,-2.0182,-2.0233,-2.0246,-2.0246,-2.0195,-2.0296,-2.0461,-2.0562,-2.0562,-2.0562,-2.0612,-2.0649,-2.0699,-2.0699,-2.0699,-2.0749,-2.0835,-2.1131,-2.1264,-2.1623,-2.2142,-2.2466,-2.2875,-2.3216,-2.3302,-2.3458,-2.3468,-2.3242,-2.3134,-2.3149,-2.3043,-2.3398,-2.3857,-2.3884,-2.3941,-2.3983,-2.4074,-2.4177,-2.4208,-2.4109,-2.4067,-2.4082,-2.4082,-2.4082,-2.4124,-2.4166,-2.4208,-2.4234,-2.4234,-2.425,-2.4234,-2.4234,-2.4276,-2.44,-2.4815,-2.5329,-2.5689,-2.6156,-2.6367,-1.1111,-1.1111,-1.1329,-1.1768,-1.2224,-1.2305,-1.2305,-1.2305,-1.2338,-1.2371,-1.2398,-1.2325,-1.2298,-1.2592,-1.3251,-1.4034,-1.5029,-1.5948,-1.6793,-1.751,-1.7862,-1.8008,-1.8008,-1.8008,-1.8008,-1.8008,-1.8008,-1.8008,-1.8008,-1.8008,-1.8008,-1.8076,-1.8134,-1.8337,-1.8482,-1.8875,-1.9075,-1.9075,-1.9075,-1.8651,-1.8164,-1.7926,-1.7481,-1.7067,-1.6984,-1.7116,-1.7562,-1.8239,-1.8791,-1.9055,-1.983,-1.9994,-1.9922,-2.0079,-2.0093,-2.0144,-2.0182,-2.0334,-2.0461,-2.0461,-2.0461,-2.0461,-2.0612,-2.0649,-2.0649,-2.0699,-2.0662,-2.0699,-2.0699,-2.0699,-2.0699,-2.0699,-2.0749,-2.0835,-2.097,-2.1264,-2.1779,-2.2189,-2.2649,-2.3068,-2.3377,-2.3638,-2.3824,-2.3803,-2.35,-2.3288,-2.2949,-2.3258,-2.3987,-2.4208,-2.4193,-2.4193,-2.4234,-2.4234,-2.4234,-2.4193,-2.4208,-2.4223,-2.4181,-2.4208,-2.4208,-2.425,-2.4276,-2.4317,-2.4276,-2.4276,-2.4276,-2.4317,-2.4508,-2.4775,-2.5098,-2.554,-2.5872,-2.6158,-2.635,-1.1186,-1.1242,-1.1138,-1.1468,-1.1916,-1.2083,-1.215,-1.2305,-1.2318,-1.2405,-1.2525,-1.2412,-1.2378,-1.2599,-1.2945,-1.3665,-1.4673,-1.5525,-1.6446,-1.7276,-1.7765,-1.794,-1.7998,-1.7959,-1.7988,-1.8008,-1.8008,-1.8008,-1.8008,-1.8008,-1.8008,-1.8076,-1.824,-1.8414,-1.8549,-1.8741,-1.8875,-1.8942,-1.8957,-1.8775,-1.8195,-1.7833,-1.7409,-1.6788,-1.6694,-1.6748,-1.7016,-1.7734,-1.8,-1.8393,-1.9246,-1.9434,-1.9617,-1.9926,-2.0347,-2.0385,-2.0485,-2.0549,-2.0612,-2.0662,-2.0662,-2.0649,-2.0649,-2.0699,-2.0699,-2.0699,-2.0699,-2.0699,-2.0699,-2.0699,-2.0699,-2.0699,-2.0749,-2.0785,-2.0983,-2.1229,-2.165,-2.2002,-2.236,-2.2799,-2.3172,-2.361,-2.3882,-2.4024,-2.3823,-2.3804,-2.3564,-2.3579,-2.4188,-2.4234,-2.4276,-2.4276,-2.4261,-2.4261,-2.4276,-2.4234,-2.4234,-2.425,-2.425,-2.4276,-2.4276,-2.4276,-2.4276,-2.4302,-2.4302,-2.4302,-2.4343,-2.4492,-2.4863,-2.5198,-2.5503,-2.5762,-2.6052,-2.621,-2.6297,-1.1046,-1.1089,-1.0838,-1.0969,-1.1348,-1.1668,-1.1859,-1.2078,-1.2151,-1.2218,-1.2238,-1.2158,-1.2143,-1.226,-1.2539,-1.3445,-1.4442,-1.528,-1.6285,-1.698,-1.7504,-1.7687,-1.7764,-1.7822,-1.7861,-1.793,-1.7998,-1.8008,-1.8008,-1.8008,-1.8076,-1.8172,-1.8265,-1.8288,-1.8517,-1.8721,-1.8829,-1.8812,-1.8713,-1.8433,-1.7936,-1.7554,-1.7243,-1.6829,-1.6628,-1.6566,-1.6807,-1.7067,-1.729,-1.7995,-1.8578,-1.9056,-1.9643,-2.0067,-2.0408,-2.0403,-2.0361,-2.0348,-2.0335,-2.0673,-2.0673,-2.0699,-2.0699,-2.0699,-2.0699,-2.0699,-2.0699,-2.0699,-2.0699,-2.0699,-2.0699,-2.0699,-2.0749,-2.0785,-2.0885,-2.1131,-2.1361,-2.1718,-2.2267,-2.2709,-2.3304,-2.3668,-2.3925,-2.4051,-2.4074,-2.4173,-2.423,-2.4261,-2.4302,-2.4302,-2.4302,-2.4302,-2.4302,-2.4302,-2.4302,-2.4276,-2.4276,-2.4302,-2.4302,-2.4302,-2.4317,-2.4276,-2.4317,-2.4302,-2.4302,-2.4343,-2.4451,-2.4639,-2.5059,-2.5465,-2.5835,-2.6052,-2.6245,-2.628,-2.6332,-1.0713,-1.0671,-1.0429,-1.0402,-1.0666,-1.1083,-1.1397,-1.1644,-1.1786,-1.171,-1.1483,-1.1784,-1.1821,-1.1632,-1.2025,-1.3097,-1.4437,-1.5202,-1.6138,-1.6959,-1.7298,-1.7363,-1.7383,-1.7441,-1.7568,-1.7812,-1.7959,-1.7969,-1.7978,-1.7948,-1.8083,-1.8235,-1.8046,-1.8121,-1.8366,-1.8534,-1.8661,-1.8547,-1.8297,-1.804,-1.7523,-1.7212,-1.6971,-1.6717,-1.6509,-1.6534,-1.6797,-1.7279,-1.7655,-1.8363,-1.9069,-1.9656,-2.0042,-2.0296,-2.0049,-1.9902,-1.9895,-1.9812,-2.01,-2.0542,-2.0633,-2.0673,-2.0699,-2.0699,-2.0699,-2.0699,-2.0699,-2.0699,-2.0699,-2.0699,-2.0699,-2.0699,-2.0699,-2.0699,-2.0699,-2.0934,-2.1131,-2.1589,-2.2235,-2.2844,-2.3523,-2.3925,-2.4109,-2.4234,-2.4193,-2.4261,-2.4261,-2.4261,-2.4302,-2.4302,-2.4302,-2.4302,-2.4302,-2.4302,-2.4302,-2.4302,-2.4302,-2.4302,-2.4302,-2.4302,-2.4302,-2.4302,-2.4302,-2.4302,-2.4302,-2.4385,-2.441,-2.4759,-2.5214,-2.5631,-2.5864,-2.6227,-2.6383,-2.6332,-2.6367,-1.0441,-1.0417,-1.0158,-1.0152,-1.0372,-1.0548,-1.0947,-1.1398,-1.155,-1.1483,-1.143,-1.151,-1.1545,-1.1655,-1.1937,-1.3036,-1.402,-1.4872,-1.5731,-1.641,-1.686,-1.6914,-1.7012,-1.7148,-1.7227,-1.7373,-1.7588,-1.7783,-1.7598,-1.7615,-1.7813,-1.7941,-1.7762,-1.7789,-1.7905,-1.805,-1.8154,-1.8206,-1.7956,-1.7637,-1.7327,-1.7059,-1.6942,-1.68,-1.6534,-1.6591,-1.7011,-1.7268,-1.7589,-1.7809,-1.8792,-1.9448,-1.9592,-2.0131,-2.0343,-2.0299,-1.9865,-1.9447,-2.0165,-2.0191,-2.0218,-2.0581,-2.0673,-2.0699,-2.0699,-2.0699,-2.0699,-2.0699,-2.0699,-2.0699,-2.0699,-2.0699,-2.0749,-2.0749,-2.0749,-2.0835,-2.1131,-2.1602,-2.2249,-2.3054,-2.3739,-2.4024,-2.4193,-2.4193,-2.4177,-2.4261,-2.4302,-2.4302,-2.4302,-2.4302,-2.4302,-2.4302,-2.4302,-2.4302,-2.4302,-2.4302,-2.4302,-2.4302,-2.4302,-2.4302,-2.4343,-2.4343,-2.4302,-2.4343,-2.4385,-2.4385,-2.4343,-2.4735,-2.5153,-2.542,-2.5681,-2.6096,-2.6452,-2.6453,-2.647,-1.0107,-1.0003,-0.9826,-0.9874,-1.0111,-1.018,-1.0469,-1.0823,-1.1129,-1.1202,-1.1109,-1.1202,-1.1263,-1.1288,-1.165,-1.2454,-1.3648,-1.441,-1.5192,-1.5776,-1.634,-1.6465,-1.6602,-1.6738,-1.6787,-1.6934,-1.7119,-1.7305,-1.7243,-1.7313,-1.7432,-1.7594,-1.7378,-1.7328,-1.7358,-1.7265,-1.7368,-1.7513,-1.7523,-1.7327,-1.7121,-1.6964,-1.6843,-1.6793,-1.6513,-1.6719,-1.7069,-1.7213,-1.7556,-1.7895,-1.9004,-1.9656,-1.9699,-1.9986,-1.9651,-1.9473,-1.9054,-1.8885,-1.9376,-1.9786,-1.9982,-2.027,-2.0581,-2.0686,-2.0699,-2.0699,-2.0699,-2.0699,-2.0699,-2.0712,-2.0749,-2.0749,-2.0785,-2.0785,-2.0835,-2.0835,-2.1215,-2.1698,-2.242,-2.3231,-2.3739,-2.4024,-2.4151,-2.4135,-2.4177,-2.4261,-2.4302,-2.4302,-2.4302,-2.4302,-2.4302,-2.4302,-2.4302,-2.4302,-2.4302,-2.4302,-2.4302,-2.4302,-2.4302,-2.4302,-2.4343,-2.4426,-2.4482,-2.4467,-2.4508,-2.4508,-2.4467,-2.4614,-2.4974,-2.5281,-2.5691,-2.6112,-2.6486,-2.6607,-2.6624,-0.962,-0.9657,-0.9467,-0.9527,-0.9742,-0.9748,-0.9888,-1.0015,-1.0646,-1.0795,-1.0661,-1.0842,-1.0835,-1.0884,-1.1258,-1.192,-1.294,-1.3855,-1.4593,-1.5081,-1.5763,-1.6016,-1.6025,-1.6135,-1.6309,-1.6543,-1.6768,-1.6943,-1.686,-1.6908,-1.7046,-1.7151,-1.691,-1.6866,-1.6824,-1.6598,-1.6681,-1.6886,-1.6977,-1.6853,-1.6674,-1.6477,-1.641,-1.6404,-1.6373,-1.6476,-1.6915,-1.7455,-1.8182,-1.8754,-1.9354,-1.9939,-1.9804,-1.9404,-1.878,-1.844,-1.8257,-1.8375,-1.8741,-1.9264,-1.9656,-1.9982,-2.0358,-2.0607,-2.0699,-2.0699,-2.0699,-2.0749,-2.0762,-2.0749,-2.0799,-2.0835,-2.0835,-2.0885,-2.0885,-2.1082,-2.1423,-2.2016,-2.2844,-2.3508,-2.3739,-2.4024,-2.4177,-2.4177,-2.4094,-2.4219,-2.4302,-2.4302,-2.4317,-2.4317,-2.4302,-2.4302,-2.4302,-2.4302,-2.4302,-2.4302,-2.4302,-2.4302,-2.4302,-2.4385,-2.4467,-2.4564,-2.4645,-2.4686,-2.4766,-2.471,-2.471,-2.4855,-2.5084,-2.5468,-2.5863,-2.6203,-2.6486,-2.6674,-2.6742,-0.9023,-0.9056,-0.892,-0.8926,-0.9029,-0.953,-0.9553,-0.9436,-1.0071,-1.0358,-1.0421,-1.0551,-1.0712,-1.0672,-1.1023,-1.1573,-1.225,-1.3322,-1.4022,-1.4607,-1.5243,-1.5518,-1.5625,-1.5762,-1.5889,-1.5996,-1.625,-1.6562,-1.6517,-1.6584,-1.6618,-1.6638,-1.6471,-1.6341,-1.6273,-1.6115,-1.6218,-1.6311,-1.6378,-1.656,-1.6601,-1.6452,-1.643,-1.6269,-1.6221,-1.6192,-1.6541,-1.6923,-1.7396,-1.7859,-1.8604,-1.9033,-1.923,-1.8662,-1.8519,-1.8506,-1.7931,-1.7957,-1.8388,-1.8898,-1.9277,-1.9812,-2.0205,-2.0542,-2.0699,-2.0699,-2.0699,-2.0749,-2.0799,-2.0799,-2.0835,-2.0885,-2.0934,-2.0983,-2.0983,-2.1326,-2.1664,-2.2434,-2.326,-2.3523,-2.3754,-2.3925,-2.4078,-2.4135,-2.4078,-2.4135,-2.4261,-2.4317,-2.4359,-2.4359,-2.4385,-2.4343,-2.4302,-2.4302,-2.4302,-2.4302,-2.4302,-2.4385,-2.4426,-2.4508,-2.463,-2.4806,-2.4966,-2.4982,-2.5021,-2.4966,-2.4966,-2.5084,-2.5365,-2.5713,-2.5954,-2.6289,-2.6555,-2.6775,-2.6758,-0.8486,-0.8523,-0.8569,-0.8622,-0.8729,-0.9211,-0.9288,-0.9225,-0.9627,-0.989,-0.9956,-1.0239,-1.0428,-1.0591,-1.087,-1.1071,-1.1706,-1.2785,-1.3254,-1.3767,-1.462,-1.4848,-1.5127,-1.5361,-1.5293,-1.5352,-1.5625,-1.59,-1.5979,-1.573,-1.5612,-1.5749,-1.572,-1.5749,-1.5618,-1.5729,-1.5749,-1.5622,-1.5749,-1.596,-1.6182,-1.6088,-1.5915,-1.5785,-1.568,-1.5667,-1.6089,-1.6489,-1.7046,-1.7593,-1.8371,-1.8804,-1.8839,-1.8453,-1.831,-1.8192,-1.7852,-1.7473,-1.81,-1.8597,-1.8911,-1.9355,-2.0218,-2.0607,-2.0345,-2.0371,-2.0673,-2.0749,-2.0898,-2.0947,-2.1082,-2.118,-2.1326,-2.1375,-2.1313,-2.1458,-2.1888,-2.2526,-2.3068,-2.3392,-2.3523,-2.348,-2.3638,-2.3739,-2.3782,-2.4219,-2.4302,-2.4426,-2.4441,-2.4482,-2.4467,-2.4467,-2.4426,-2.4343,-2.4302,-2.4302,-2.4343,-2.4426,-2.4549,-2.4751,-2.4926,-2.5139,-2.5294,-2.5217,-2.5217,-2.5178,-2.5217,-2.5317,-2.5584,-2.5983,-2.6142,-2.6338,-2.6605,-2.6842,-2.6875,-0.8024,-0.806,-0.823,-0.8346,-0.8451,-0.8849,-0.8979,-0.8982,-0.9332,-0.9439,-0.946,-0.9774,-1.018,-1.0477,-1.0615,-1.0616,-1.1088,-1.2186,-1.2522,-1.3116,-1.411,-1.4457,-1.4671,-1.4756,-1.4902,-1.4929,-1.5005,-1.5041,-1.5022,-1.4934,-1.4925,-1.4818,-1.4829,-1.4892,-1.4945,-1.5018,-1.5068,-1.512,-1.513,-1.4986,-1.5163,-1.5318,-1.5288,-1.508,-1.4914,-1.5039,-1.5499,-1.5936,-1.6664,-1.7194,-1.7752,-1.8106,-1.8254,-1.7917,-1.7926,-1.7757,-1.7565,-1.7303,-1.7539,-1.8231,-1.8388,-1.8793,-1.9939,-2.0371,-2.0096,-2.0315,-2.0631,-2.0898,-2.0997,-2.1144,-2.1277,-2.1471,-2.1616,-2.1712,-2.165,-2.165,-2.2109,-2.2526,-2.2844,-2.3216,-2.3216,-2.3201,-2.3348,-2.3436,-2.3782,-2.4219,-2.4467,-2.4589,-2.467,-2.4726,-2.4751,-2.467,-2.463,-2.4508,-2.4385,-2.4426,-2.4508,-2.463,-2.4791,-2.5005,-2.5178,-2.5333,-2.5426,-2.5371,-2.5371,-2.5371,-2.5432,-2.553,-2.5881,-2.6151,-2.638,-2.6553,-2.6691,-2.6908,-2.6973,-0.752,-0.745,-0.7614,-0.7724,-0.7929,-0.8339,-0.8465,-0.8452,-0.8914,-0.9091,-0.9134,-0.9286,-0.9679,-1.018,-1.0217,-1.0314,-1.0707,-1.1678,-1.2468,-1.3033,-1.3754,-1.4175,-1.4463,-1.459,-1.4922,-1.4821,-1.4562,-1.4449,-1.4443,-1.4609,-1.4726,-1.4675,-1.4873,-1.4831,-1.4778,-1.481,-1.4728,-1.4718,-1.4676,-1.4615,-1.4593,-1.4718,-1.478,-1.4635,-1.4438,-1.4496,-1.467,-1.4813,-1.5303,-1.5863,-1.6524,-1.703,-1.7231,-1.7311,-1.7338,-1.7518,-1.7313,-1.7251,-1.7499,-1.797,-1.8166,-1.8537,-1.9567,-2.0219,-2.0241,-2.0616,-2.0939,-2.1229,-2.1326,-2.1326,-2.1471,-2.165,-2.1793,-2.1902,-2.1855,-2.1935,-2.2217,-2.248,-2.2709,-2.2949,-2.3083,-2.326,-2.3566,-2.3739,-2.4036,-2.4426,-2.4751,-2.4831,-2.4926,-2.4966,-2.5005,-2.4926,-2.4846,-2.471,-2.4589,-2.471,-2.4846,-2.4926,-2.5045,-2.5217,-2.5388,-2.5502,-2.554,-2.5502,-2.554,-2.5616,-2.5659,-2.568,-2.601,-2.626,-2.6572,-2.6775,-2.6875,-2.6908,-2.6908]}]]